<?xml version="1.0" encoding="UTF-8" standalone="no" ?>
<gpx xmlns="http://www.topografix.com/GPX/1/1" xmlns:xsi="http://www.w3.org/2001/XMLSchema-instance" xsi:schemaLocation="http://www.topografix.com/GPX/1/1 http://www.topografix.com/GPX/1/1/gpx.xsd" version="1.1" creator="VisuGPX - https://www.visugpx.com">
  <metadata>
    <name>Randonnée du 31/07/2021 à 08:45</name>
  </metadata>
  <trk>
    <name><![CDATA[Randonnée du 31/07/2021 à 08:45]]></name>
    <trkseg>
      <trkpt lat="48.01461" lon="6.98516">
        <ele>1218</ele>
        <time>2021-07-31T08:45:02+02:00</time>
      </trkpt>
      <trkpt lat="48.01476" lon="6.98531">
        <ele>1234</ele>
        <time>2021-07-31T08:45:32+02:00</time>
      </trkpt>
      <trkpt lat="48.01487" lon="6.98554">
        <ele>1238</ele>
        <time>2021-07-31T08:45:47+02:00</time>
      </trkpt>
      <trkpt lat="48.0148" lon="6.9858">
        <ele>1240</ele>
        <time>2021-07-31T08:46:13+02:00</time>
      </trkpt>
      <trkpt lat="48.01462" lon="6.98584">
        <ele>1238</ele>
        <time>2021-07-31T08:46:37+02:00</time>
      </trkpt>
      <trkpt lat="48.01444" lon="6.98593">
        <ele>1238</ele>
        <time>2021-07-31T08:46:52+02:00</time>
      </trkpt>
      <trkpt lat="48.01426" lon="6.98591">
        <ele>1239</ele>
        <time>2021-07-31T08:47:12+02:00</time>
      </trkpt>
      <trkpt lat="48.0141" lon="6.98607">
        <ele>1237</ele>
        <time>2021-07-31T08:47:31+02:00</time>
      </trkpt>
      <trkpt lat="48.01394" lon="6.98621">
        <ele>1235</ele>
        <time>2021-07-31T08:47:41+02:00</time>
      </trkpt>
      <trkpt lat="48.01375" lon="6.98622">
        <ele>1232</ele>
        <time>2021-07-31T08:47:54+02:00</time>
      </trkpt>
      <trkpt lat="48.01356" lon="6.98614">
        <ele>1228</ele>
        <time>2021-07-31T08:48:12+02:00</time>
      </trkpt>
      <trkpt lat="48.0134" lon="6.98601">
        <ele>1223</ele>
        <time>2021-07-31T08:48:22+02:00</time>
      </trkpt>
      <trkpt lat="48.01323" lon="6.98587">
        <ele>1222</ele>
        <time>2021-07-31T08:48:41+02:00</time>
      </trkpt>
      <trkpt lat="48.01308" lon="6.98569">
        <ele>1224</ele>
        <time>2021-07-31T08:48:56+02:00</time>
      </trkpt>
      <trkpt lat="48.0129" lon="6.9856">
        <ele>1228</ele>
        <time>2021-07-31T08:49:06+02:00</time>
      </trkpt>
      <trkpt lat="48.01272" lon="6.9855">
        <ele>1233</ele>
        <time>2021-07-31T08:49:19+02:00</time>
      </trkpt>
      <trkpt lat="48.01257" lon="6.98534">
        <ele>1232</ele>
        <time>2021-07-31T08:49:31+02:00</time>
      </trkpt>
      <trkpt lat="48.01239" lon="6.9853">
        <ele>1232</ele>
        <time>2021-07-31T08:49:47+02:00</time>
      </trkpt>
      <trkpt lat="48.01222" lon="6.98521">
        <ele>1235</ele>
        <time>2021-07-31T08:49:56+02:00</time>
      </trkpt>
      <trkpt lat="48.01203" lon="6.98513">
        <ele>1234</ele>
        <time>2021-07-31T08:50:10+02:00</time>
      </trkpt>
      <trkpt lat="48.01187" lon="6.98496">
        <ele>1232</ele>
        <time>2021-07-31T08:50:24+02:00</time>
      </trkpt>
      <trkpt lat="48.01172" lon="6.98481">
        <ele>1236</ele>
        <time>2021-07-31T08:50:35+02:00</time>
      </trkpt>
      <trkpt lat="48.01154" lon="6.98476">
        <ele>1237</ele>
        <time>2021-07-31T08:50:52+02:00</time>
      </trkpt>
      <trkpt lat="48.01136" lon="6.98477">
        <ele>1237</ele>
        <time>2021-07-31T08:51:10+02:00</time>
      </trkpt>
      <trkpt lat="48.0112" lon="6.98492">
        <ele>1236</ele>
        <time>2021-07-31T08:51:24+02:00</time>
      </trkpt>
      <trkpt lat="48.01101" lon="6.985">
        <ele>1234</ele>
        <time>2021-07-31T08:51:39+02:00</time>
      </trkpt>
      <trkpt lat="48.01089" lon="6.98523">
        <ele>1236</ele>
        <time>2021-07-31T08:51:56+02:00</time>
      </trkpt>
      <trkpt lat="48.01074" lon="6.98542">
        <ele>1243</ele>
        <time>2021-07-31T08:52:12+02:00</time>
      </trkpt>
      <trkpt lat="48.01061" lon="6.9856">
        <ele>1235</ele>
        <time>2021-07-31T08:52:31+02:00</time>
      </trkpt>
      <trkpt lat="48.01051" lon="6.98584">
        <ele>1241</ele>
        <time>2021-07-31T08:52:52+02:00</time>
      </trkpt>
      <trkpt lat="48.01035" lon="6.98599">
        <ele>1239</ele>
        <time>2021-07-31T08:53:03+02:00</time>
      </trkpt>
      <trkpt lat="48.01017" lon="6.98602">
        <ele>1238</ele>
        <time>2021-07-31T08:53:15+02:00</time>
      </trkpt>
      <trkpt lat="48.00998" lon="6.98607">
        <ele>1236</ele>
        <time>2021-07-31T08:53:28+02:00</time>
      </trkpt>
      <trkpt lat="48.00982" lon="6.98626">
        <ele>1236</ele>
        <time>2021-07-31T08:53:35+02:00</time>
      </trkpt>
      <trkpt lat="48.00969" lon="6.98646">
        <ele>1242</ele>
        <time>2021-07-31T08:53:42+02:00</time>
      </trkpt>
      <trkpt lat="48.00954" lon="6.98661">
        <ele>1245</ele>
        <time>2021-07-31T08:53:56+02:00</time>
      </trkpt>
      <trkpt lat="48.00938" lon="6.98678">
        <ele>1240</ele>
        <time>2021-07-31T08:54:06+02:00</time>
      </trkpt>
      <trkpt lat="48.00929" lon="6.98701">
        <ele>1237</ele>
        <time>2021-07-31T08:54:39+02:00</time>
      </trkpt>
      <trkpt lat="48.00931" lon="6.98729">
        <ele>1242</ele>
        <time>2021-07-31T08:54:48+02:00</time>
      </trkpt>
      <trkpt lat="48.00932" lon="6.98756">
        <ele>1239</ele>
        <time>2021-07-31T08:54:55+02:00</time>
      </trkpt>
      <trkpt lat="48.00926" lon="6.98783">
        <ele>1231</ele>
        <time>2021-07-31T08:55:07+02:00</time>
      </trkpt>
      <trkpt lat="48.00914" lon="6.98805">
        <ele>1229</ele>
        <time>2021-07-31T08:55:13+02:00</time>
      </trkpt>
      <trkpt lat="48.009" lon="6.98823">
        <ele>1223</ele>
        <time>2021-07-31T08:55:23+02:00</time>
      </trkpt>
      <trkpt lat="48.00885" lon="6.98837">
        <ele>1215</ele>
        <time>2021-07-31T08:55:34+02:00</time>
      </trkpt>
      <trkpt lat="48.00874" lon="6.98859">
        <ele>1216</ele>
        <time>2021-07-31T08:55:43+02:00</time>
      </trkpt>
      <trkpt lat="48.00876" lon="6.98887">
        <ele>1208</ele>
        <time>2021-07-31T08:56:12+02:00</time>
      </trkpt>
      <trkpt lat="48.0087" lon="6.98913">
        <ele>1208</ele>
        <time>2021-07-31T08:56:34+02:00</time>
      </trkpt>
      <trkpt lat="48.00859" lon="6.98935">
        <ele>1206</ele>
        <time>2021-07-31T08:56:46+02:00</time>
      </trkpt>
      <trkpt lat="48.00847" lon="6.98914">
        <ele>1202</ele>
        <time>2021-07-31T08:57:01+02:00</time>
      </trkpt>
      <trkpt lat="48.00848" lon="6.98941">
        <ele>1193</ele>
        <time>2021-07-31T08:57:21+02:00</time>
      </trkpt>
      <trkpt lat="48.00858" lon="6.98965">
        <ele>1193</ele>
        <time>2021-07-31T08:57:27+02:00</time>
      </trkpt>
      <trkpt lat="48.00876" lon="6.98974">
        <ele>1181</ele>
        <time>2021-07-31T08:57:41+02:00</time>
      </trkpt>
      <trkpt lat="48.00894" lon="6.98966">
        <ele>1177</ele>
        <time>2021-07-31T08:57:51+02:00</time>
      </trkpt>
      <trkpt lat="48.009" lon="6.98941">
        <ele>1169</ele>
        <time>2021-07-31T08:58:09+02:00</time>
      </trkpt>
      <trkpt lat="48.00903" lon="6.98913">
        <ele>1164</ele>
        <time>2021-07-31T08:58:23+02:00</time>
      </trkpt>
      <trkpt lat="48.0091" lon="6.98941">
        <ele>1164</ele>
        <time>2021-07-31T08:58:51+02:00</time>
      </trkpt>
      <trkpt lat="48.00918" lon="6.98966">
        <ele>1163</ele>
        <time>2021-07-31T08:58:59+02:00</time>
      </trkpt>
      <trkpt lat="48.00924" lon="6.98991">
        <ele>1161</ele>
        <time>2021-07-31T08:59:08+02:00</time>
      </trkpt>
      <trkpt lat="48.00923" lon="6.99018">
        <ele>1160</ele>
        <time>2021-07-31T08:59:20+02:00</time>
      </trkpt>
      <trkpt lat="48.0091" lon="6.9904">
        <ele>1159</ele>
        <time>2021-07-31T08:59:34+02:00</time>
      </trkpt>
      <trkpt lat="48.00898" lon="6.99062">
        <ele>1159</ele>
        <time>2021-07-31T08:59:47+02:00</time>
      </trkpt>
      <trkpt lat="48.00916" lon="6.99069">
        <ele>1148</ele>
        <time>2021-07-31T09:00:06+02:00</time>
      </trkpt>
      <trkpt lat="48.00929" lon="6.99047">
        <ele>1151</ele>
        <time>2021-07-31T09:00:24+02:00</time>
      </trkpt>
      <trkpt lat="48.00945" lon="6.99032">
        <ele>1144</ele>
        <time>2021-07-31T09:00:35+02:00</time>
      </trkpt>
      <trkpt lat="48.00957" lon="6.99011">
        <ele>1143</ele>
        <time>2021-07-31T09:00:46+02:00</time>
      </trkpt>
      <trkpt lat="48.00952" lon="6.9904">
        <ele>1137</ele>
        <time>2021-07-31T09:01:01+02:00</time>
      </trkpt>
      <trkpt lat="48.00939" lon="6.99062">
        <ele>1130</ele>
        <time>2021-07-31T09:01:14+02:00</time>
      </trkpt>
      <trkpt lat="48.0093" lon="6.99086">
        <ele>1128</ele>
        <time>2021-07-31T09:01:21+02:00</time>
      </trkpt>
      <trkpt lat="48.00949" lon="6.99085">
        <ele>1122</ele>
        <time>2021-07-31T09:01:49+02:00</time>
      </trkpt>
      <trkpt lat="48.00962" lon="6.99067">
        <ele>1120</ele>
        <time>2021-07-31T09:02:00+02:00</time>
      </trkpt>
      <trkpt lat="48.00973" lon="6.99044">
        <ele>1115</ele>
        <time>2021-07-31T09:02:12+02:00</time>
      </trkpt>
      <trkpt lat="48.00986" lon="6.99024">
        <ele>1113</ele>
        <time>2021-07-31T09:02:28+02:00</time>
      </trkpt>
      <trkpt lat="48.00999" lon="6.99045">
        <ele>1113</ele>
        <time>2021-07-31T09:02:49+02:00</time>
      </trkpt>
      <trkpt lat="48.00997" lon="6.99071">
        <ele>1113</ele>
        <time>2021-07-31T09:03:06+02:00</time>
      </trkpt>
      <trkpt lat="48.01015" lon="6.99078">
        <ele>1109</ele>
        <time>2021-07-31T09:03:34+02:00</time>
      </trkpt>
      <trkpt lat="48.01033" lon="6.99086">
        <ele>1102</ele>
        <time>2021-07-31T09:03:57+02:00</time>
      </trkpt>
      <trkpt lat="48.01034" lon="6.99059">
        <ele>1101</ele>
        <time>2021-07-31T09:04:12+02:00</time>
      </trkpt>
      <trkpt lat="48.01028" lon="6.99033">
        <ele>1094</ele>
        <time>2021-07-31T09:04:28+02:00</time>
      </trkpt>
      <trkpt lat="48.01047" lon="6.99043">
        <ele>1083</ele>
        <time>2021-07-31T09:05:04+02:00</time>
      </trkpt>
      <trkpt lat="48.01043" lon="6.99015">
        <ele>1077</ele>
        <time>2021-07-31T09:05:31+02:00</time>
      </trkpt>
      <trkpt lat="48.01037" lon="6.98989">
        <ele>1075</ele>
        <time>2021-07-31T09:05:45+02:00</time>
      </trkpt>
      <trkpt lat="48.01055" lon="6.99">
        <ele>1078</ele>
        <time>2021-07-31T09:06:35+02:00</time>
      </trkpt>
      <trkpt lat="48.01053" lon="6.98973">
        <ele>1068</ele>
        <time>2021-07-31T09:07:06+02:00</time>
      </trkpt>
      <trkpt lat="48.01062" lon="6.98996">
        <ele>1061</ele>
        <time>2021-07-31T09:07:32+02:00</time>
      </trkpt>
      <trkpt lat="48.01071" lon="6.99019">
        <ele>1054</ele>
        <time>2021-07-31T09:07:49+02:00</time>
      </trkpt>
      <trkpt lat="48.01087" lon="6.99035">
        <ele>1061</ele>
        <time>2021-07-31T09:08:05+02:00</time>
      </trkpt>
      <trkpt lat="48.01099" lon="6.99057">
        <ele>1064</ele>
        <time>2021-07-31T09:08:21+02:00</time>
      </trkpt>
      <trkpt lat="48.01114" lon="6.99074">
        <ele>1055</ele>
        <time>2021-07-31T09:08:52+02:00</time>
      </trkpt>
      <trkpt lat="48.01115" lon="6.99103">
        <ele>1048</ele>
        <time>2021-07-31T09:09:03+02:00</time>
      </trkpt>
      <trkpt lat="48.0112" lon="6.9913">
        <ele>1044</ele>
        <time>2021-07-31T09:09:14+02:00</time>
      </trkpt>
      <trkpt lat="48.01103" lon="6.99143">
        <ele>1035</ele>
        <time>2021-07-31T09:09:33+02:00</time>
      </trkpt>
      <trkpt lat="48.01087" lon="6.99158">
        <ele>1039</ele>
        <time>2021-07-31T09:09:52+02:00</time>
      </trkpt>
      <trkpt lat="48.0107" lon="6.9917">
        <ele>1040</ele>
        <time>2021-07-31T09:10:01+02:00</time>
      </trkpt>
      <trkpt lat="48.01054" lon="6.99185">
        <ele>1035</ele>
        <time>2021-07-31T09:10:16+02:00</time>
      </trkpt>
      <trkpt lat="48.01041" lon="6.99206">
        <ele>1031</ele>
        <time>2021-07-31T09:10:29+02:00</time>
      </trkpt>
      <trkpt lat="48.01027" lon="6.99223">
        <ele>1032</ele>
        <time>2021-07-31T09:10:45+02:00</time>
      </trkpt>
      <trkpt lat="48.01014" lon="6.99243">
        <ele>1033</ele>
        <time>2021-07-31T09:11:03+02:00</time>
      </trkpt>
      <trkpt lat="48.01" lon="6.99261">
        <ele>1028</ele>
        <time>2021-07-31T09:11:17+02:00</time>
      </trkpt>
      <trkpt lat="48.00985" lon="6.99276">
        <ele>1021</ele>
        <time>2021-07-31T09:11:31+02:00</time>
      </trkpt>
      <trkpt lat="48.0097" lon="6.99294">
        <ele>1020</ele>
        <time>2021-07-31T09:11:48+02:00</time>
      </trkpt>
      <trkpt lat="48.00961" lon="6.99318">
        <ele>1014</ele>
        <time>2021-07-31T09:12:04+02:00</time>
      </trkpt>
      <trkpt lat="48.00979" lon="6.99318">
        <ele>1017</ele>
        <time>2021-07-31T09:13:02+02:00</time>
      </trkpt>
      <trkpt lat="48.00992" lon="6.99298">
        <ele>1011</ele>
        <time>2021-07-31T09:13:17+02:00</time>
      </trkpt>
      <trkpt lat="48.01009" lon="6.99286">
        <ele>1018</ele>
        <time>2021-07-31T09:13:30+02:00</time>
      </trkpt>
      <trkpt lat="48.01028" lon="6.9929">
        <ele>1010</ele>
        <time>2021-07-31T09:13:46+02:00</time>
      </trkpt>
      <trkpt lat="48.01038" lon="6.99313">
        <ele>1019</ele>
        <time>2021-07-31T09:13:58+02:00</time>
      </trkpt>
      <trkpt lat="48.0105" lon="6.99337">
        <ele>1016</ele>
        <time>2021-07-31T09:14:14+02:00</time>
      </trkpt>
      <trkpt lat="48.01064" lon="6.99355">
        <ele>1011</ele>
        <time>2021-07-31T09:14:28+02:00</time>
      </trkpt>
      <trkpt lat="48.0107" lon="6.9938">
        <ele>1003</ele>
        <time>2021-07-31T09:14:42+02:00</time>
      </trkpt>
      <trkpt lat="48.01085" lon="6.99396">
        <ele>1001</ele>
        <time>2021-07-31T09:14:59+02:00</time>
      </trkpt>
      <trkpt lat="48.0109" lon="6.99422">
        <ele>998</ele>
        <time>2021-07-31T09:15:14+02:00</time>
      </trkpt>
      <trkpt lat="48.01085" lon="6.99449">
        <ele>995</ele>
        <time>2021-07-31T09:15:29+02:00</time>
      </trkpt>
      <trkpt lat="48.01079" lon="6.99474">
        <ele>987</ele>
        <time>2021-07-31T09:15:45+02:00</time>
      </trkpt>
      <trkpt lat="48.01072" lon="6.99501">
        <ele>990</ele>
        <time>2021-07-31T09:16:00+02:00</time>
      </trkpt>
      <trkpt lat="48.0107" lon="6.99529">
        <ele>992</ele>
        <time>2021-07-31T09:16:21+02:00</time>
      </trkpt>
      <trkpt lat="48.01071" lon="6.99556">
        <ele>990</ele>
        <time>2021-07-31T09:16:31+02:00</time>
      </trkpt>
      <trkpt lat="48.01067" lon="6.99583">
        <ele>979</ele>
        <time>2021-07-31T09:16:46+02:00</time>
      </trkpt>
      <trkpt lat="48.01063" lon="6.99611">
        <ele>975</ele>
        <time>2021-07-31T09:17:01+02:00</time>
      </trkpt>
      <trkpt lat="48.0106" lon="6.99639">
        <ele>972</ele>
        <time>2021-07-31T09:17:15+02:00</time>
      </trkpt>
      <trkpt lat="48.01063" lon="6.99666">
        <ele>970</ele>
        <time>2021-07-31T09:18:13+02:00</time>
      </trkpt>
      <trkpt lat="48.0107" lon="6.99693">
        <ele>970</ele>
        <time>2021-07-31T09:18:25+02:00</time>
      </trkpt>
      <trkpt lat="48.01078" lon="6.99718">
        <ele>969</ele>
        <time>2021-07-31T09:18:37+02:00</time>
      </trkpt>
      <trkpt lat="48.01084" lon="6.99744">
        <ele>968</ele>
        <time>2021-07-31T09:18:52+02:00</time>
      </trkpt>
      <trkpt lat="48.01092" lon="6.9977">
        <ele>964</ele>
        <time>2021-07-31T09:19:03+02:00</time>
      </trkpt>
      <trkpt lat="48.01081" lon="6.99793">
        <ele>963</ele>
        <time>2021-07-31T09:19:23+02:00</time>
      </trkpt>
      <trkpt lat="48.01068" lon="6.99815">
        <ele>964</ele>
        <time>2021-07-31T09:19:39+02:00</time>
      </trkpt>
      <trkpt lat="48.01055" lon="6.99835">
        <ele>959</ele>
        <time>2021-07-31T09:19:53+02:00</time>
      </trkpt>
      <trkpt lat="48.01043" lon="6.99856">
        <ele>962</ele>
        <time>2021-07-31T09:20:06+02:00</time>
      </trkpt>
      <trkpt lat="48.01031" lon="6.99878">
        <ele>965</ele>
        <time>2021-07-31T09:20:22+02:00</time>
      </trkpt>
      <trkpt lat="48.01028" lon="6.99906">
        <ele>975</ele>
        <time>2021-07-31T09:20:42+02:00</time>
      </trkpt>
      <trkpt lat="48.01029" lon="6.99933">
        <ele>975</ele>
        <time>2021-07-31T09:20:56+02:00</time>
      </trkpt>
      <trkpt lat="48.01032" lon="6.9996">
        <ele>980</ele>
        <time>2021-07-31T09:21:08+02:00</time>
      </trkpt>
      <trkpt lat="48.01033" lon="6.99989">
        <ele>976</ele>
        <time>2021-07-31T09:21:25+02:00</time>
      </trkpt>
      <trkpt lat="48.01034" lon="7.00017">
        <ele>982</ele>
        <time>2021-07-31T09:21:35+02:00</time>
      </trkpt>
      <trkpt lat="48.01036" lon="7.00045">
        <ele>985</ele>
        <time>2021-07-31T09:21:49+02:00</time>
      </trkpt>
      <trkpt lat="48.01047" lon="7.00068">
        <ele>984</ele>
        <time>2021-07-31T09:22:00+02:00</time>
      </trkpt>
      <trkpt lat="48.01049" lon="7.00095">
        <ele>984</ele>
        <time>2021-07-31T09:22:14+02:00</time>
      </trkpt>
      <trkpt lat="48.01056" lon="7.0012">
        <ele>986</ele>
        <time>2021-07-31T09:22:29+02:00</time>
      </trkpt>
      <trkpt lat="48.01063" lon="7.00147">
        <ele>984</ele>
        <time>2021-07-31T09:22:43+02:00</time>
      </trkpt>
      <trkpt lat="48.01076" lon="7.00167">
        <ele>984</ele>
        <time>2021-07-31T09:22:57+02:00</time>
      </trkpt>
      <trkpt lat="48.01091" lon="7.00184">
        <ele>976</ele>
        <time>2021-07-31T09:23:14+02:00</time>
      </trkpt>
      <trkpt lat="48.0111" lon="7.00191">
        <ele>973</ele>
        <time>2021-07-31T09:23:31+02:00</time>
      </trkpt>
      <trkpt lat="48.01128" lon="7.00191">
        <ele>969</ele>
        <time>2021-07-31T09:23:47+02:00</time>
      </trkpt>
      <trkpt lat="48.01147" lon="7.00187">
        <ele>969</ele>
        <time>2021-07-31T09:23:59+02:00</time>
      </trkpt>
      <trkpt lat="48.01165" lon="7.00179">
        <ele>972</ele>
        <time>2021-07-31T09:24:16+02:00</time>
      </trkpt>
      <trkpt lat="48.01183" lon="7.00173">
        <ele>974</ele>
        <time>2021-07-31T09:24:29+02:00</time>
      </trkpt>
      <trkpt lat="48.01201" lon="7.00169">
        <ele>976</ele>
        <time>2021-07-31T09:24:44+02:00</time>
      </trkpt>
      <trkpt lat="48.01214" lon="7.00189">
        <ele>972</ele>
        <time>2021-07-31T09:25:10+02:00</time>
      </trkpt>
      <trkpt lat="48.01232" lon="7.00195">
        <ele>972</ele>
        <time>2021-07-31T09:25:31+02:00</time>
      </trkpt>
      <trkpt lat="48.01246" lon="7.00213">
        <ele>974</ele>
        <time>2021-07-31T09:25:50+02:00</time>
      </trkpt>
      <trkpt lat="48.01264" lon="7.00208">
        <ele>977</ele>
        <time>2021-07-31T09:26:44+02:00</time>
      </trkpt>
      <trkpt lat="48.01281" lon="7.0022">
        <ele>983</ele>
        <time>2021-07-31T09:27:04+02:00</time>
      </trkpt>
      <trkpt lat="48.01299" lon="7.00222">
        <ele>991</ele>
        <time>2021-07-31T09:27:30+02:00</time>
      </trkpt>
      <trkpt lat="48.01316" lon="7.00233">
        <ele>999</ele>
        <time>2021-07-31T09:27:47+02:00</time>
      </trkpt>
      <trkpt lat="48.01333" lon="7.00246">
        <ele>1001</ele>
        <time>2021-07-31T09:28:03+02:00</time>
      </trkpt>
      <trkpt lat="48.0135" lon="7.00252">
        <ele>1007</ele>
        <time>2021-07-31T09:28:51+02:00</time>
      </trkpt>
      <trkpt lat="48.01366" lon="7.00267">
        <ele>1013</ele>
        <time>2021-07-31T09:29:07+02:00</time>
      </trkpt>
      <trkpt lat="48.0137" lon="7.00296">
        <ele>1017</ele>
        <time>2021-07-31T09:29:20+02:00</time>
      </trkpt>
      <trkpt lat="48.01374" lon="7.00322">
        <ele>1024</ele>
        <time>2021-07-31T09:29:41+02:00</time>
      </trkpt>
      <trkpt lat="48.01378" lon="7.00349">
        <ele>1021</ele>
        <time>2021-07-31T09:29:56+02:00</time>
      </trkpt>
      <trkpt lat="48.01378" lon="7.00377">
        <ele>1023</ele>
        <time>2021-07-31T09:30:22+02:00</time>
      </trkpt>
      <trkpt lat="48.01373" lon="7.00403">
        <ele>1016</ele>
        <time>2021-07-31T09:30:42+02:00</time>
      </trkpt>
      <trkpt lat="48.01362" lon="7.00426">
        <ele>1014</ele>
        <time>2021-07-31T09:30:59+02:00</time>
      </trkpt>
      <trkpt lat="48.01353" lon="7.00449">
        <ele>1015</ele>
        <time>2021-07-31T09:31:17+02:00</time>
      </trkpt>
      <trkpt lat="48.01345" lon="7.00474">
        <ele>1021</ele>
        <time>2021-07-31T09:31:40+02:00</time>
      </trkpt>
      <trkpt lat="48.01341" lon="7.00501">
        <ele>1021</ele>
        <time>2021-07-31T09:31:56+02:00</time>
      </trkpt>
      <trkpt lat="48.01336" lon="7.00526">
        <ele>1022</ele>
        <time>2021-07-31T09:32:18+02:00</time>
      </trkpt>
      <trkpt lat="48.01323" lon="7.00545">
        <ele>1025</ele>
        <time>2021-07-31T09:32:34+02:00</time>
      </trkpt>
      <trkpt lat="48.01321" lon="7.00572">
        <ele>1029</ele>
        <time>2021-07-31T09:32:53+02:00</time>
      </trkpt>
      <trkpt lat="48.01317" lon="7.006">
        <ele>1030</ele>
        <time>2021-07-31T09:33:06+02:00</time>
      </trkpt>
      <trkpt lat="48.01311" lon="7.00626">
        <ele>1034</ele>
        <time>2021-07-31T09:33:27+02:00</time>
      </trkpt>
      <trkpt lat="48.01303" lon="7.0065">
        <ele>1035</ele>
        <time>2021-07-31T09:33:41+02:00</time>
      </trkpt>
      <trkpt lat="48.01307" lon="7.00677">
        <ele>1040</ele>
        <time>2021-07-31T09:33:57+02:00</time>
      </trkpt>
      <trkpt lat="48.01303" lon="7.00703">
        <ele>1045</ele>
        <time>2021-07-31T09:34:14+02:00</time>
      </trkpt>
      <trkpt lat="48.01315" lon="7.00725">
        <ele>1045</ele>
        <time>2021-07-31T09:34:35+02:00</time>
      </trkpt>
      <trkpt lat="48.01322" lon="7.00751">
        <ele>1053</ele>
        <time>2021-07-31T09:34:51+02:00</time>
      </trkpt>
      <trkpt lat="48.01333" lon="7.00774">
        <ele>1055</ele>
        <time>2021-07-31T09:35:05+02:00</time>
      </trkpt>
      <trkpt lat="48.01349" lon="7.00791">
        <ele>1051</ele>
        <time>2021-07-31T09:35:20+02:00</time>
      </trkpt>
      <trkpt lat="48.01356" lon="7.00815">
        <ele>1058</ele>
        <time>2021-07-31T09:35:37+02:00</time>
      </trkpt>
      <trkpt lat="48.01356" lon="7.00842">
        <ele>1066</ele>
        <time>2021-07-31T09:35:58+02:00</time>
      </trkpt>
      <trkpt lat="48.01347" lon="7.00866">
        <ele>1067</ele>
        <time>2021-07-31T09:36:40+02:00</time>
      </trkpt>
      <trkpt lat="48.01344" lon="7.00894">
        <ele>1077</ele>
        <time>2021-07-31T09:37:33+02:00</time>
      </trkpt>
      <trkpt lat="48.01328" lon="7.00906">
        <ele>1076</ele>
        <time>2021-07-31T09:37:48+02:00</time>
      </trkpt>
      <trkpt lat="48.01319" lon="7.00929">
        <ele>1082</ele>
        <time>2021-07-31T09:38:06+02:00</time>
      </trkpt>
      <trkpt lat="48.01309" lon="7.00953">
        <ele>1080</ele>
        <time>2021-07-31T09:38:21+02:00</time>
      </trkpt>
      <trkpt lat="48.01301" lon="7.00978">
        <ele>1085</ele>
        <time>2021-07-31T09:38:38+02:00</time>
      </trkpt>
      <trkpt lat="48.013" lon="7.01005">
        <ele>1092</ele>
        <time>2021-07-31T09:38:55+02:00</time>
      </trkpt>
      <trkpt lat="48.01297" lon="7.01032">
        <ele>1090</ele>
        <time>2021-07-31T09:39:11+02:00</time>
      </trkpt>
      <trkpt lat="48.01285" lon="7.01053">
        <ele>1086</ele>
        <time>2021-07-31T09:39:36+02:00</time>
      </trkpt>
      <trkpt lat="48.01271" lon="7.01071">
        <ele>1092</ele>
        <time>2021-07-31T09:39:53+02:00</time>
      </trkpt>
      <trkpt lat="48.01261" lon="7.01096">
        <ele>1094</ele>
        <time>2021-07-31T09:40:09+02:00</time>
      </trkpt>
      <trkpt lat="48.01246" lon="7.01115">
        <ele>1095</ele>
        <time>2021-07-31T09:40:22+02:00</time>
      </trkpt>
      <trkpt lat="48.01237" lon="7.01139">
        <ele>1097</ele>
        <time>2021-07-31T09:40:35+02:00</time>
      </trkpt>
      <trkpt lat="48.01244" lon="7.01164">
        <ele>1105</ele>
        <time>2021-07-31T09:41:29+02:00</time>
      </trkpt>
      <trkpt lat="48.01253" lon="7.01188">
        <ele>1122</ele>
        <time>2021-07-31T09:42:02+02:00</time>
      </trkpt>
      <trkpt lat="48.01247" lon="7.01213">
        <ele>1126</ele>
        <time>2021-07-31T09:42:19+02:00</time>
      </trkpt>
      <trkpt lat="48.01235" lon="7.01234">
        <ele>1121</ele>
        <time>2021-07-31T09:42:37+02:00</time>
      </trkpt>
      <trkpt lat="48.01222" lon="7.01254">
        <ele>1124</ele>
        <time>2021-07-31T09:42:58+02:00</time>
      </trkpt>
      <trkpt lat="48.01215" lon="7.01279">
        <ele>1123</ele>
        <time>2021-07-31T09:43:22+02:00</time>
      </trkpt>
      <trkpt lat="48.01214" lon="7.01309">
        <ele>1113</ele>
        <time>2021-07-31T09:43:42+02:00</time>
      </trkpt>
      <trkpt lat="48.01208" lon="7.01335">
        <ele>1115</ele>
        <time>2021-07-31T09:43:55+02:00</time>
      </trkpt>
      <trkpt lat="48.01211" lon="7.01362">
        <ele>1113</ele>
        <time>2021-07-31T09:44:19+02:00</time>
      </trkpt>
      <trkpt lat="48.01212" lon="7.0139">
        <ele>1114</ele>
        <time>2021-07-31T09:44:59+02:00</time>
      </trkpt>
      <trkpt lat="48.01491" lon="7.01579">
        <ele>1124</ele>
        <time>2021-07-31T09:53:08+02:00</time>
      </trkpt>
      <trkpt lat="48.01513" lon="7.0158">
        <ele>1125</ele>
        <time>2021-07-31T09:53:29+02:00</time>
      </trkpt>
      <trkpt lat="48.0153" lon="7.01594">
        <ele>1114</ele>
        <time>2021-07-31T09:53:39+02:00</time>
      </trkpt>
      <trkpt lat="48.01549" lon="7.01603">
        <ele>1114</ele>
        <time>2021-07-31T09:53:45+02:00</time>
      </trkpt>
      <trkpt lat="48.01568" lon="7.01611">
        <ele>1115</ele>
        <time>2021-07-31T09:53:52+02:00</time>
      </trkpt>
      <trkpt lat="48.01585" lon="7.01626">
        <ele>1119</ele>
        <time>2021-07-31T09:54:03+02:00</time>
      </trkpt>
      <trkpt lat="48.01601" lon="7.0164">
        <ele>1128</ele>
        <time>2021-07-31T09:54:13+02:00</time>
      </trkpt>
      <trkpt lat="48.01619" lon="7.01652">
        <ele>1131</ele>
        <time>2021-07-31T09:54:22+02:00</time>
      </trkpt>
      <trkpt lat="48.01634" lon="7.01667">
        <ele>1130</ele>
        <time>2021-07-31T09:54:33+02:00</time>
      </trkpt>
      <trkpt lat="48.01644" lon="7.01692">
        <ele>1127</ele>
        <time>2021-07-31T09:54:41+02:00</time>
      </trkpt>
      <trkpt lat="48.01662" lon="7.01706">
        <ele>1130</ele>
        <time>2021-07-31T09:54:52+02:00</time>
      </trkpt>
      <trkpt lat="48.01675" lon="7.01724">
        <ele>1127</ele>
        <time>2021-07-31T09:54:59+02:00</time>
      </trkpt>
      <trkpt lat="48.01691" lon="7.01741">
        <ele>1126</ele>
        <time>2021-07-31T09:55:09+02:00</time>
      </trkpt>
      <trkpt lat="48.01703" lon="7.01763">
        <ele>1127</ele>
        <time>2021-07-31T09:55:20+02:00</time>
      </trkpt>
      <trkpt lat="48.01715" lon="7.01783">
        <ele>1132</ele>
        <time>2021-07-31T09:55:30+02:00</time>
      </trkpt>
      <trkpt lat="48.01731" lon="7.01796">
        <ele>1124</ele>
        <time>2021-07-31T09:55:42+02:00</time>
      </trkpt>
      <trkpt lat="48.01746" lon="7.01811">
        <ele>1126</ele>
        <time>2021-07-31T09:55:56+02:00</time>
      </trkpt>
      <trkpt lat="48.01761" lon="7.0183">
        <ele>1129</ele>
        <time>2021-07-31T09:56:10+02:00</time>
      </trkpt>
      <trkpt lat="48.01773" lon="7.01851">
        <ele>1128</ele>
        <time>2021-07-31T09:56:20+02:00</time>
      </trkpt>
      <trkpt lat="48.01787" lon="7.01868">
        <ele>1130</ele>
        <time>2021-07-31T09:56:32+02:00</time>
      </trkpt>
      <trkpt lat="48.01799" lon="7.01848">
        <ele>1121</ele>
        <time>2021-07-31T09:57:52+02:00</time>
      </trkpt>
      <trkpt lat="48.01809" lon="7.01825">
        <ele>1118</ele>
        <time>2021-07-31T09:58:29+02:00</time>
      </trkpt>
      <trkpt lat="48.01821" lon="7.01804">
        <ele>1113</ele>
        <time>2021-07-31T09:58:53+02:00</time>
      </trkpt>
      <trkpt lat="48.0184" lon="7.01798">
        <ele>1108</ele>
        <time>2021-07-31T09:59:06+02:00</time>
      </trkpt>
      <trkpt lat="48.01857" lon="7.01791">
        <ele>1110</ele>
        <time>2021-07-31T09:59:19+02:00</time>
      </trkpt>
      <trkpt lat="48.01871" lon="7.01771">
        <ele>1110</ele>
        <time>2021-07-31T09:59:32+02:00</time>
      </trkpt>
      <trkpt lat="48.01885" lon="7.01754">
        <ele>1117</ele>
        <time>2021-07-31T09:59:49+02:00</time>
      </trkpt>
      <trkpt lat="48.01899" lon="7.01736">
        <ele>1123</ele>
        <time>2021-07-31T10:00:07+02:00</time>
      </trkpt>
      <trkpt lat="48.01918" lon="7.01736">
        <ele>1121</ele>
        <time>2021-07-31T10:00:27+02:00</time>
      </trkpt>
      <trkpt lat="48.01937" lon="7.01736">
        <ele>1117</ele>
        <time>2021-07-31T10:00:45+02:00</time>
      </trkpt>
      <trkpt lat="48.01953" lon="7.0175">
        <ele>1119</ele>
        <time>2021-07-31T10:00:58+02:00</time>
      </trkpt>
      <trkpt lat="48.01972" lon="7.01752">
        <ele>1112</ele>
        <time>2021-07-31T10:01:18+02:00</time>
      </trkpt>
      <trkpt lat="48.0199" lon="7.01747">
        <ele>1108</ele>
        <time>2021-07-31T10:01:37+02:00</time>
      </trkpt>
      <trkpt lat="48.02005" lon="7.01728">
        <ele>1106</ele>
        <time>2021-07-31T10:01:48+02:00</time>
      </trkpt>
      <trkpt lat="48.0202" lon="7.01711">
        <ele>1105</ele>
        <time>2021-07-31T10:01:59+02:00</time>
      </trkpt>
      <trkpt lat="48.02039" lon="7.01718">
        <ele>1106</ele>
        <time>2021-07-31T10:02:16+02:00</time>
      </trkpt>
      <trkpt lat="48.02048" lon="7.01741">
        <ele>1093</ele>
        <time>2021-07-31T10:03:10+02:00</time>
      </trkpt>
      <trkpt lat="48.02067" lon="7.01745">
        <ele>1089</ele>
        <time>2021-07-31T10:03:31+02:00</time>
      </trkpt>
      <trkpt lat="48.02081" lon="7.01727">
        <ele>1079</ele>
        <time>2021-07-31T10:03:48+02:00</time>
      </trkpt>
      <trkpt lat="48.02099" lon="7.01724">
        <ele>1081</ele>
        <time>2021-07-31T10:03:58+02:00</time>
      </trkpt>
      <trkpt lat="48.02116" lon="7.01719">
        <ele>1068</ele>
        <time>2021-07-31T10:04:20+02:00</time>
      </trkpt>
      <trkpt lat="48.02129" lon="7.01697">
        <ele>1063</ele>
        <time>2021-07-31T10:04:34+02:00</time>
      </trkpt>
      <trkpt lat="48.02145" lon="7.01684">
        <ele>1063</ele>
        <time>2021-07-31T10:04:55+02:00</time>
      </trkpt>
      <trkpt lat="48.02158" lon="7.01665">
        <ele>1059</ele>
        <time>2021-07-31T10:05:13+02:00</time>
      </trkpt>
      <trkpt lat="48.02164" lon="7.01638">
        <ele>1074</ele>
        <time>2021-07-31T10:05:46+02:00</time>
      </trkpt>
      <trkpt lat="48.02178" lon="7.01623">
        <ele>1079</ele>
        <time>2021-07-31T10:06:07+02:00</time>
      </trkpt>
      <trkpt lat="48.02194" lon="7.01637">
        <ele>1082</ele>
        <time>2021-07-31T10:06:24+02:00</time>
      </trkpt>
      <trkpt lat="48.02212" lon="7.01639">
        <ele>1078</ele>
        <time>2021-07-31T10:06:44+02:00</time>
      </trkpt>
      <trkpt lat="48.02229" lon="7.01625">
        <ele>1081</ele>
        <time>2021-07-31T10:07:05+02:00</time>
      </trkpt>
      <trkpt lat="48.02247" lon="7.01631">
        <ele>1083</ele>
        <time>2021-07-31T10:07:17+02:00</time>
      </trkpt>
      <trkpt lat="48.02266" lon="7.01635">
        <ele>1082</ele>
        <time>2021-07-31T10:07:31+02:00</time>
      </trkpt>
      <trkpt lat="48.02285" lon="7.01631">
        <ele>1074</ele>
        <time>2021-07-31T10:07:44+02:00</time>
      </trkpt>
      <trkpt lat="48.02301" lon="7.01616">
        <ele>1068</ele>
        <time>2021-07-31T10:08:06+02:00</time>
      </trkpt>
      <trkpt lat="48.02318" lon="7.01608">
        <ele>1066</ele>
        <time>2021-07-31T10:08:25+02:00</time>
      </trkpt>
      <trkpt lat="48.02336" lon="7.01601">
        <ele>1068</ele>
        <time>2021-07-31T10:08:47+02:00</time>
      </trkpt>
      <trkpt lat="48.02351" lon="7.01585">
        <ele>1064</ele>
        <time>2021-07-31T10:09:07+02:00</time>
      </trkpt>
      <trkpt lat="48.02354" lon="7.01557">
        <ele>1059</ele>
        <time>2021-07-31T10:09:26+02:00</time>
      </trkpt>
      <trkpt lat="48.02368" lon="7.0154">
        <ele>1054</ele>
        <time>2021-07-31T10:09:43+02:00</time>
      </trkpt>
      <trkpt lat="48.02384" lon="7.01524">
        <ele>1064</ele>
        <time>2021-07-31T10:10:03+02:00</time>
      </trkpt>
      <trkpt lat="48.02399" lon="7.01508">
        <ele>1064</ele>
        <time>2021-07-31T10:10:23+02:00</time>
      </trkpt>
      <trkpt lat="48.02408" lon="7.01484">
        <ele>1069</ele>
        <time>2021-07-31T10:10:41+02:00</time>
      </trkpt>
      <trkpt lat="48.02424" lon="7.01472">
        <ele>1061</ele>
        <time>2021-07-31T10:11:04+02:00</time>
      </trkpt>
      <trkpt lat="48.02444" lon="7.01471">
        <ele>1059</ele>
        <time>2021-07-31T10:11:19+02:00</time>
      </trkpt>
      <trkpt lat="48.02462" lon="7.01467">
        <ele>1059</ele>
        <time>2021-07-31T10:11:30+02:00</time>
      </trkpt>
      <trkpt lat="48.0248" lon="7.01475">
        <ele>1059</ele>
        <time>2021-07-31T10:11:45+02:00</time>
      </trkpt>
      <trkpt lat="48.02498" lon="7.01479">
        <ele>1065</ele>
        <time>2021-07-31T10:11:59+02:00</time>
      </trkpt>
      <trkpt lat="48.02516" lon="7.01482">
        <ele>1071</ele>
        <time>2021-07-31T10:12:13+02:00</time>
      </trkpt>
      <trkpt lat="48.02528" lon="7.01505">
        <ele>1072</ele>
        <time>2021-07-31T10:13:31+02:00</time>
      </trkpt>
      <trkpt lat="48.02541" lon="7.01525">
        <ele>1070</ele>
        <time>2021-07-31T10:13:46+02:00</time>
      </trkpt>
      <trkpt lat="48.02558" lon="7.01536">
        <ele>1082</ele>
        <time>2021-07-31T10:14:24+02:00</time>
      </trkpt>
      <trkpt lat="48.02576" lon="7.01533">
        <ele>1089</ele>
        <time>2021-07-31T10:14:44+02:00</time>
      </trkpt>
      <trkpt lat="48.02593" lon="7.01547">
        <ele>1085</ele>
        <time>2021-07-31T10:15:00+02:00</time>
      </trkpt>
      <trkpt lat="48.0261" lon="7.01557">
        <ele>1094</ele>
        <time>2021-07-31T10:15:16+02:00</time>
      </trkpt>
      <trkpt lat="48.02627" lon="7.01571">
        <ele>1098</ele>
        <time>2021-07-31T10:15:30+02:00</time>
      </trkpt>
      <trkpt lat="48.02641" lon="7.01587">
        <ele>1096</ele>
        <time>2021-07-31T10:15:45+02:00</time>
      </trkpt>
      <trkpt lat="48.02659" lon="7.01597">
        <ele>1097</ele>
        <time>2021-07-31T10:16:01+02:00</time>
      </trkpt>
      <trkpt lat="48.02677" lon="7.01599">
        <ele>1099</ele>
        <time>2021-07-31T10:16:22+02:00</time>
      </trkpt>
      <trkpt lat="48.02696" lon="7.01611">
        <ele>1100</ele>
        <time>2021-07-31T10:16:36+02:00</time>
      </trkpt>
      <trkpt lat="48.02713" lon="7.01605">
        <ele>1102</ele>
        <time>2021-07-31T10:16:48+02:00</time>
      </trkpt>
      <trkpt lat="48.02726" lon="7.01626">
        <ele>1111</ele>
        <time>2021-07-31T10:17:17+02:00</time>
      </trkpt>
      <trkpt lat="48.02726" lon="7.01654">
        <ele>1105</ele>
        <time>2021-07-31T10:17:41+02:00</time>
      </trkpt>
      <trkpt lat="48.02723" lon="7.01681">
        <ele>1091</ele>
        <time>2021-07-31T10:18:04+02:00</time>
      </trkpt>
      <trkpt lat="48.02719" lon="7.01708">
        <ele>1080</ele>
        <time>2021-07-31T10:18:21+02:00</time>
      </trkpt>
      <trkpt lat="48.02711" lon="7.01732">
        <ele>1075</ele>
        <time>2021-07-31T10:18:42+02:00</time>
      </trkpt>
      <trkpt lat="48.02706" lon="7.01758">
        <ele>1072</ele>
        <time>2021-07-31T10:19:00+02:00</time>
      </trkpt>
      <trkpt lat="48.02702" lon="7.01785">
        <ele>1068</ele>
        <time>2021-07-31T10:19:23+02:00</time>
      </trkpt>
      <trkpt lat="48.02701" lon="7.01812">
        <ele>1074</ele>
        <time>2021-07-31T10:19:49+02:00</time>
      </trkpt>
      <trkpt lat="48.02702" lon="7.0184">
        <ele>1077</ele>
        <time>2021-07-31T10:20:07+02:00</time>
      </trkpt>
      <trkpt lat="48.02699" lon="7.01867">
        <ele>1074</ele>
        <time>2021-07-31T10:20:37+02:00</time>
      </trkpt>
      <trkpt lat="48.02691" lon="7.01891">
        <ele>1078</ele>
        <time>2021-07-31T10:21:31+02:00</time>
      </trkpt>
      <trkpt lat="48.02678" lon="7.0191">
        <ele>1083</ele>
        <time>2021-07-31T10:22:02+02:00</time>
      </trkpt>
      <trkpt lat="48.02667" lon="7.01932">
        <ele>1088</ele>
        <time>2021-07-31T10:22:27+02:00</time>
      </trkpt>
      <trkpt lat="48.02653" lon="7.01948">
        <ele>1090</ele>
        <time>2021-07-31T10:22:53+02:00</time>
      </trkpt>
      <trkpt lat="48.02638" lon="7.01965">
        <ele>1072</ele>
        <time>2021-07-31T10:23:29+02:00</time>
      </trkpt>
      <trkpt lat="48.0263" lon="7.0199">
        <ele>1079</ele>
        <time>2021-07-31T10:23:44+02:00</time>
      </trkpt>
      <trkpt lat="48.02621" lon="7.02015">
        <ele>1076</ele>
        <time>2021-07-31T10:24:03+02:00</time>
      </trkpt>
      <trkpt lat="48.02609" lon="7.02035">
        <ele>1069</ele>
        <time>2021-07-31T10:24:21+02:00</time>
      </trkpt>
      <trkpt lat="48.02603" lon="7.02063">
        <ele>1075</ele>
        <time>2021-07-31T10:24:35+02:00</time>
      </trkpt>
      <trkpt lat="48.02596" lon="7.02089">
        <ele>1074</ele>
        <time>2021-07-31T10:24:49+02:00</time>
      </trkpt>
      <trkpt lat="48.02593" lon="7.02117">
        <ele>1070</ele>
        <time>2021-07-31T10:25:09+02:00</time>
      </trkpt>
      <trkpt lat="48.02603" lon="7.0214">
        <ele>1069</ele>
        <time>2021-07-31T10:25:23+02:00</time>
      </trkpt>
      <trkpt lat="48.02607" lon="7.02167">
        <ele>1068</ele>
        <time>2021-07-31T10:25:39+02:00</time>
      </trkpt>
      <trkpt lat="48.02621" lon="7.02183">
        <ele>1069</ele>
        <time>2021-07-31T10:25:51+02:00</time>
      </trkpt>
      <trkpt lat="48.02639" lon="7.02195">
        <ele>1071</ele>
        <time>2021-07-31T10:26:06+02:00</time>
      </trkpt>
      <trkpt lat="48.02655" lon="7.0221">
        <ele>1074</ele>
        <time>2021-07-31T10:26:20+02:00</time>
      </trkpt>
      <trkpt lat="48.02665" lon="7.02232">
        <ele>1077</ele>
        <time>2021-07-31T10:26:58+02:00</time>
      </trkpt>
      <trkpt lat="48.02661" lon="7.02259">
        <ele>1073</ele>
        <time>2021-07-31T10:27:14+02:00</time>
      </trkpt>
      <trkpt lat="48.02679" lon="7.02249">
        <ele>1067</ele>
        <time>2021-07-31T10:27:33+02:00</time>
      </trkpt>
      <trkpt lat="48.02695" lon="7.02233">
        <ele>1059</ele>
        <time>2021-07-31T10:27:52+02:00</time>
      </trkpt>
      <trkpt lat="48.02713" lon="7.02235">
        <ele>1057</ele>
        <time>2021-07-31T10:28:01+02:00</time>
      </trkpt>
      <trkpt lat="48.02721" lon="7.0226">
        <ele>1059</ele>
        <time>2021-07-31T10:28:22+02:00</time>
      </trkpt>
      <trkpt lat="48.02713" lon="7.02285">
        <ele>1058</ele>
        <time>2021-07-31T10:28:33+02:00</time>
      </trkpt>
      <trkpt lat="48.02702" lon="7.02306">
        <ele>1057</ele>
        <time>2021-07-31T10:28:48+02:00</time>
      </trkpt>
      <trkpt lat="48.02692" lon="7.0233">
        <ele>1055</ele>
        <time>2021-07-31T10:28:59+02:00</time>
      </trkpt>
      <trkpt lat="48.02679" lon="7.02352">
        <ele>1044</ele>
        <time>2021-07-31T10:29:22+02:00</time>
      </trkpt>
      <trkpt lat="48.0266" lon="7.02356">
        <ele>1037</ele>
        <time>2021-07-31T10:29:39+02:00</time>
      </trkpt>
      <trkpt lat="48.02642" lon="7.0236">
        <ele>1040</ele>
        <time>2021-07-31T10:29:53+02:00</time>
      </trkpt>
      <trkpt lat="48.02625" lon="7.02371">
        <ele>1040</ele>
        <time>2021-07-31T10:30:05+02:00</time>
      </trkpt>
      <trkpt lat="48.02642" lon="7.02384">
        <ele>1028</ele>
        <time>2021-07-31T10:30:29+02:00</time>
      </trkpt>
      <trkpt lat="48.0266" lon="7.02389">
        <ele>1024</ele>
        <time>2021-07-31T10:30:43+02:00</time>
      </trkpt>
      <trkpt lat="48.02678" lon="7.02396">
        <ele>1023</ele>
        <time>2021-07-31T10:30:57+02:00</time>
      </trkpt>
      <trkpt lat="48.02696" lon="7.02392">
        <ele>1017</ele>
        <time>2021-07-31T10:31:14+02:00</time>
      </trkpt>
      <trkpt lat="48.02709" lon="7.02372">
        <ele>1024</ele>
        <time>2021-07-31T10:31:32+02:00</time>
      </trkpt>
      <trkpt lat="48.02726" lon="7.02361">
        <ele>1019</ele>
        <time>2021-07-31T10:31:47+02:00</time>
      </trkpt>
      <trkpt lat="48.0274" lon="7.02342">
        <ele>1018</ele>
        <time>2021-07-31T10:32:00+02:00</time>
      </trkpt>
      <trkpt lat="48.02754" lon="7.02324">
        <ele>1018</ele>
        <time>2021-07-31T10:32:16+02:00</time>
      </trkpt>
      <trkpt lat="48.02769" lon="7.02306">
        <ele>1020</ele>
        <time>2021-07-31T10:32:29+02:00</time>
      </trkpt>
      <trkpt lat="48.02785" lon="7.02293">
        <ele>1022</ele>
        <time>2021-07-31T10:32:46+02:00</time>
      </trkpt>
      <trkpt lat="48.02803" lon="7.02295">
        <ele>1024</ele>
        <time>2021-07-31T10:32:59+02:00</time>
      </trkpt>
      <trkpt lat="48.02817" lon="7.02278">
        <ele>1016</ele>
        <time>2021-07-31T10:33:35+02:00</time>
      </trkpt>
      <trkpt lat="48.0283" lon="7.02254">
        <ele>1008</ele>
        <time>2021-07-31T10:34:55+02:00</time>
      </trkpt>
      <trkpt lat="48.02847" lon="7.02243">
        <ele>1012</ele>
        <time>2021-07-31T10:35:10+02:00</time>
      </trkpt>
      <trkpt lat="48.02863" lon="7.02231">
        <ele>1013</ele>
        <time>2021-07-31T10:35:25+02:00</time>
      </trkpt>
      <trkpt lat="48.0288" lon="7.02218">
        <ele>1017</ele>
        <time>2021-07-31T10:35:45+02:00</time>
      </trkpt>
      <trkpt lat="48.02899" lon="7.02213">
        <ele>1019</ele>
        <time>2021-07-31T10:36:00+02:00</time>
      </trkpt>
      <trkpt lat="48.02917" lon="7.02207">
        <ele>1024</ele>
        <time>2021-07-31T10:36:19+02:00</time>
      </trkpt>
      <trkpt lat="48.0293" lon="7.02188">
        <ele>1031</ele>
        <time>2021-07-31T10:36:38+02:00</time>
      </trkpt>
      <trkpt lat="48.02946" lon="7.02175">
        <ele>1030</ele>
        <time>2021-07-31T10:36:55+02:00</time>
      </trkpt>
      <trkpt lat="48.02965" lon="7.02167">
        <ele>1036</ele>
        <time>2021-07-31T10:37:12+02:00</time>
      </trkpt>
      <trkpt lat="48.02982" lon="7.02158">
        <ele>1038</ele>
        <time>2021-07-31T10:37:29+02:00</time>
      </trkpt>
      <trkpt lat="48.02999" lon="7.02148">
        <ele>1041</ele>
        <time>2021-07-31T10:37:46+02:00</time>
      </trkpt>
      <trkpt lat="48.03013" lon="7.02129">
        <ele>1045</ele>
        <time>2021-07-31T10:38:06+02:00</time>
      </trkpt>
      <trkpt lat="48.03006" lon="7.02104">
        <ele>1057</ele>
        <time>2021-07-31T10:38:48+02:00</time>
      </trkpt>
      <trkpt lat="48.03021" lon="7.02088">
        <ele>1053</ele>
        <time>2021-07-31T10:39:12+02:00</time>
      </trkpt>
      <trkpt lat="48.03038" lon="7.02078">
        <ele>1057</ele>
        <time>2021-07-31T10:39:28+02:00</time>
      </trkpt>
      <trkpt lat="48.03055" lon="7.02065">
        <ele>1063</ele>
        <time>2021-07-31T10:39:46+02:00</time>
      </trkpt>
      <trkpt lat="48.03072" lon="7.02055">
        <ele>1074</ele>
        <time>2021-07-31T10:40:04+02:00</time>
      </trkpt>
      <trkpt lat="48.03089" lon="7.02045">
        <ele>1076</ele>
        <time>2021-07-31T10:40:20+02:00</time>
      </trkpt>
      <trkpt lat="48.03104" lon="7.02029">
        <ele>1074</ele>
        <time>2021-07-31T10:40:35+02:00</time>
      </trkpt>
      <trkpt lat="48.03122" lon="7.0202">
        <ele>1074</ele>
        <time>2021-07-31T10:40:51+02:00</time>
      </trkpt>
      <trkpt lat="48.03139" lon="7.02008">
        <ele>1073</ele>
        <time>2021-07-31T10:41:07+02:00</time>
      </trkpt>
      <trkpt lat="48.03156" lon="7.01997">
        <ele>1068</ele>
        <time>2021-07-31T10:41:21+02:00</time>
      </trkpt>
      <trkpt lat="48.03166" lon="7.01974">
        <ele>1072</ele>
        <time>2021-07-31T10:41:34+02:00</time>
      </trkpt>
      <trkpt lat="48.03174" lon="7.01949">
        <ele>1071</ele>
        <time>2021-07-31T10:41:51+02:00</time>
      </trkpt>
      <trkpt lat="48.03184" lon="7.01924">
        <ele>1073</ele>
        <time>2021-07-31T10:42:07+02:00</time>
      </trkpt>
      <trkpt lat="48.03198" lon="7.01906">
        <ele>1071</ele>
        <time>2021-07-31T10:42:24+02:00</time>
      </trkpt>
      <trkpt lat="48.03209" lon="7.01886">
        <ele>1080</ele>
        <time>2021-07-31T10:42:50+02:00</time>
      </trkpt>
      <trkpt lat="48.03227" lon="7.01879">
        <ele>1076</ele>
        <time>2021-07-31T10:43:09+02:00</time>
      </trkpt>
      <trkpt lat="48.0324" lon="7.0186">
        <ele>1079</ele>
        <time>2021-07-31T10:43:22+02:00</time>
      </trkpt>
      <trkpt lat="48.03243" lon="7.01833">
        <ele>1090</ele>
        <time>2021-07-31T10:43:54+02:00</time>
      </trkpt>
      <trkpt lat="48.03226" lon="7.0182">
        <ele>1099</ele>
        <time>2021-07-31T10:44:34+02:00</time>
      </trkpt>
      <trkpt lat="48.03243" lon="7.01808">
        <ele>1092</ele>
        <time>2021-07-31T10:44:57+02:00</time>
      </trkpt>
      <trkpt lat="48.03262" lon="7.01806">
        <ele>1092</ele>
        <time>2021-07-31T10:45:19+02:00</time>
      </trkpt>
      <trkpt lat="48.03271" lon="7.01781">
        <ele>1109</ele>
        <time>2021-07-31T10:45:49+02:00</time>
      </trkpt>
      <trkpt lat="48.03275" lon="7.01755">
        <ele>1107</ele>
        <time>2021-07-31T10:46:05+02:00</time>
      </trkpt>
      <trkpt lat="48.03288" lon="7.01735">
        <ele>1112</ele>
        <time>2021-07-31T10:46:23+02:00</time>
      </trkpt>
      <trkpt lat="48.033" lon="7.01714">
        <ele>1116</ele>
        <time>2021-07-31T10:46:47+02:00</time>
      </trkpt>
      <trkpt lat="48.03309" lon="7.01689">
        <ele>1116</ele>
        <time>2021-07-31T10:47:08+02:00</time>
      </trkpt>
      <trkpt lat="48.03325" lon="7.01677">
        <ele>1123</ele>
        <time>2021-07-31T10:47:22+02:00</time>
      </trkpt>
      <trkpt lat="48.03339" lon="7.01658">
        <ele>1134</ele>
        <time>2021-07-31T10:47:44+02:00</time>
      </trkpt>
      <trkpt lat="48.03356" lon="7.01653">
        <ele>1150</ele>
        <time>2021-07-31T10:48:04+02:00</time>
      </trkpt>
      <trkpt lat="48.0337" lon="7.01634">
        <ele>1146</ele>
        <time>2021-07-31T10:48:24+02:00</time>
      </trkpt>
      <trkpt lat="48.03386" lon="7.01621">
        <ele>1155</ele>
        <time>2021-07-31T10:48:46+02:00</time>
      </trkpt>
      <trkpt lat="48.03397" lon="7.01599">
        <ele>1166</ele>
        <time>2021-07-31T10:49:24+02:00</time>
      </trkpt>
      <trkpt lat="48.03378" lon="7.01597">
        <ele>1178</ele>
        <time>2021-07-31T10:50:22+02:00</time>
      </trkpt>
      <trkpt lat="48.0339" lon="7.01575">
        <ele>1172</ele>
        <time>2021-07-31T10:50:55+02:00</time>
      </trkpt>
      <trkpt lat="48.03396" lon="7.0155">
        <ele>1167</ele>
        <time>2021-07-31T10:51:12+02:00</time>
      </trkpt>
      <trkpt lat="48.0339" lon="7.01524">
        <ele>1173</ele>
        <time>2021-07-31T10:51:35+02:00</time>
      </trkpt>
      <trkpt lat="48.03382" lon="7.01499">
        <ele>1187</ele>
        <time>2021-07-31T10:51:59+02:00</time>
      </trkpt>
      <trkpt lat="48.03382" lon="7.01471">
        <ele>1196</ele>
        <time>2021-07-31T10:52:22+02:00</time>
      </trkpt>
      <trkpt lat="48.0338" lon="7.01444">
        <ele>1201</ele>
        <time>2021-07-31T10:52:39+02:00</time>
      </trkpt>
      <trkpt lat="48.03376" lon="7.01417">
        <ele>1201</ele>
        <time>2021-07-31T10:52:55+02:00</time>
      </trkpt>
      <trkpt lat="48.03382" lon="7.01391">
        <ele>1195</ele>
        <time>2021-07-31T10:53:12+02:00</time>
      </trkpt>
      <trkpt lat="48.034" lon="7.0138">
        <ele>1201</ele>
        <time>2021-07-31T10:53:48+02:00</time>
      </trkpt>
      <trkpt lat="48.03416" lon="7.0137">
        <ele>1207</ele>
        <time>2021-07-31T10:54:21+02:00</time>
      </trkpt>
      <trkpt lat="48.03413" lon="7.01343">
        <ele>1221</ele>
        <time>2021-07-31T10:55:04+02:00</time>
      </trkpt>
      <trkpt lat="48.03403" lon="7.0132">
        <ele>1226</ele>
        <time>2021-07-31T10:55:22+02:00</time>
      </trkpt>
      <trkpt lat="48.0342" lon="7.0133">
        <ele>1236</ele>
        <time>2021-07-31T10:55:53+02:00</time>
      </trkpt>
      <trkpt lat="48.03417" lon="7.01302">
        <ele>1240</ele>
        <time>2021-07-31T10:56:13+02:00</time>
      </trkpt>
      <trkpt lat="48.03431" lon="7.01286">
        <ele>1250</ele>
        <time>2021-07-31T10:56:52+02:00</time>
      </trkpt>
      <trkpt lat="48.03437" lon="7.01259">
        <ele>1255</ele>
        <time>2021-07-31T10:57:40+02:00</time>
      </trkpt>
      <trkpt lat="48.03444" lon="7.01234">
        <ele>1259</ele>
        <time>2021-07-31T10:58:05+02:00</time>
      </trkpt>
      <trkpt lat="48.03451" lon="7.01209">
        <ele>1279</ele>
        <time>2021-07-31T10:58:47+02:00</time>
      </trkpt>
      <trkpt lat="48.0345" lon="7.01181">
        <ele>1287</ele>
        <time>2021-07-31T10:59:14+02:00</time>
      </trkpt>
      <trkpt lat="48.03439" lon="7.0116">
        <ele>1295</ele>
        <time>2021-07-31T10:59:59+02:00</time>
      </trkpt>
      <trkpt lat="48.03445" lon="7.01133">
        <ele>1303</ele>
        <time>2021-07-31T11:01:08+02:00</time>
      </trkpt>
      <trkpt lat="48.03464" lon="7.01139">
        <ele>1309</ele>
        <time>2021-07-31T11:01:28+02:00</time>
      </trkpt>
      <trkpt lat="48.03481" lon="7.0113">
        <ele>1314</ele>
        <time>2021-07-31T11:01:58+02:00</time>
      </trkpt>
      <trkpt lat="48.03499" lon="7.01125">
        <ele>1326</ele>
        <time>2021-07-31T11:02:28+02:00</time>
      </trkpt>
      <trkpt lat="48.03517" lon="7.01134">
        <ele>1331</ele>
        <time>2021-07-31T11:02:43+02:00</time>
      </trkpt>
      <trkpt lat="48.03536" lon="7.01138">
        <ele>1338</ele>
        <time>2021-07-31T11:03:17+02:00</time>
      </trkpt>
      <trkpt lat="48.03553" lon="7.01131">
        <ele>1339</ele>
        <time>2021-07-31T11:03:33+02:00</time>
      </trkpt>
      <trkpt lat="48.03557" lon="7.01159">
        <ele>1341</ele>
        <time>2021-07-31T11:03:55+02:00</time>
      </trkpt>
      <trkpt lat="48.03552" lon="7.01187">
        <ele>1342</ele>
        <time>2021-07-31T11:04:06+02:00</time>
      </trkpt>
      <trkpt lat="48.03552" lon="7.01215">
        <ele>1343</ele>
        <time>2021-07-31T11:04:22+02:00</time>
      </trkpt>
      <trkpt lat="48.03561" lon="7.01238">
        <ele>1346</ele>
        <time>2021-07-31T11:04:35+02:00</time>
      </trkpt>
      <trkpt lat="48.03575" lon="7.01255">
        <ele>1349</ele>
        <time>2021-07-31T11:04:50+02:00</time>
      </trkpt>
      <trkpt lat="48.03592" lon="7.01267">
        <ele>1351</ele>
        <time>2021-07-31T11:05:07+02:00</time>
      </trkpt>
      <trkpt lat="48.03607" lon="7.0125">
        <ele>1354</ele>
        <time>2021-07-31T11:05:27+02:00</time>
      </trkpt>
      <trkpt lat="48.03624" lon="7.01241">
        <ele>1359</ele>
        <time>2021-07-31T11:05:42+02:00</time>
      </trkpt>
      <trkpt lat="48.03641" lon="7.01236">
        <ele>1362</ele>
        <time>2021-07-31T11:05:56+02:00</time>
      </trkpt>
      <trkpt lat="48.03642" lon="7.01263">
        <ele>1366</ele>
        <time>2021-07-31T11:06:12+02:00</time>
      </trkpt>
      <trkpt lat="48.03659" lon="7.01275">
        <ele>1372</ele>
        <time>2021-07-31T11:06:34+02:00</time>
      </trkpt>
      <trkpt lat="48.03676" lon="7.01284">
        <ele>1374</ele>
        <time>2021-07-31T11:06:47+02:00</time>
      </trkpt>
      <trkpt lat="48.03676" lon="7.01313">
        <ele>1379</ele>
        <time>2021-07-31T11:07:09+02:00</time>
      </trkpt>
      <trkpt lat="48.0367" lon="7.01339">
        <ele>1378</ele>
        <time>2021-07-31T11:07:24+02:00</time>
      </trkpt>
      <trkpt lat="48.03688" lon="7.0134">
        <ele>1383</ele>
        <time>2021-07-31T11:07:46+02:00</time>
      </trkpt>
      <trkpt lat="48.03677" lon="7.01362">
        <ele>1385</ele>
        <time>2021-07-31T11:08:02+02:00</time>
      </trkpt>
      <trkpt lat="48.03697" lon="7.01364">
        <ele>1386</ele>
        <time>2021-07-31T11:08:50+02:00</time>
      </trkpt>
      <trkpt lat="48.03716" lon="7.01367">
        <ele>1392</ele>
        <time>2021-07-31T11:09:01+02:00</time>
      </trkpt>
      <trkpt lat="48.0371" lon="7.01394">
        <ele>1399</ele>
        <time>2021-07-31T11:09:10+02:00</time>
      </trkpt>
      <trkpt lat="48.03699" lon="7.01416">
        <ele>1400</ele>
        <time>2021-07-31T11:09:21+02:00</time>
      </trkpt>
      <trkpt lat="48.03695" lon="7.01444">
        <ele>1396</ele>
        <time>2021-07-31T11:09:42+02:00</time>
      </trkpt>
      <trkpt lat="48.03704" lon="7.01468">
        <ele>1399</ele>
        <time>2021-07-31T11:09:58+02:00</time>
      </trkpt>
      <trkpt lat="48.03716" lon="7.01489">
        <ele>1403</ele>
        <time>2021-07-31T11:10:17+02:00</time>
      </trkpt>
      <trkpt lat="48.03721" lon="7.01515">
        <ele>1405</ele>
        <time>2021-07-31T11:10:36+02:00</time>
      </trkpt>
      <trkpt lat="48.0373" lon="7.01541">
        <ele>1408</ele>
        <time>2021-07-31T11:10:54+02:00</time>
      </trkpt>
      <trkpt lat="48.03738" lon="7.01565">
        <ele>1411</ele>
        <time>2021-07-31T11:11:08+02:00</time>
      </trkpt>
      <trkpt lat="48.03749" lon="7.01571">
        <ele>1412</ele>
        <time>2021-07-31T11:25:23+02:00</time>
      </trkpt>
      <trkpt lat="48.0375" lon="7.01599">
        <ele>1409</ele>
        <time>2021-07-31T11:25:53+02:00</time>
      </trkpt>
      <trkpt lat="48.03756" lon="7.01626">
        <ele>1408</ele>
        <time>2021-07-31T11:26:09+02:00</time>
      </trkpt>
      <trkpt lat="48.03763" lon="7.01653">
        <ele>1410</ele>
        <time>2021-07-31T11:26:23+02:00</time>
      </trkpt>
      <trkpt lat="48.03762" lon="7.01682">
        <ele>1412</ele>
        <time>2021-07-31T11:26:41+02:00</time>
      </trkpt>
      <trkpt lat="48.03756" lon="7.01707">
        <ele>1408</ele>
        <time>2021-07-31T11:27:06+02:00</time>
      </trkpt>
      <trkpt lat="48.03772" lon="7.01721">
        <ele>1401</ele>
        <time>2021-07-31T11:28:19+02:00</time>
      </trkpt>
      <trkpt lat="48.0379" lon="7.01714">
        <ele>1405</ele>
        <time>2021-07-31T11:28:29+02:00</time>
      </trkpt>
      <trkpt lat="48.03806" lon="7.01698">
        <ele>1403</ele>
        <time>2021-07-31T11:28:47+02:00</time>
      </trkpt>
      <trkpt lat="48.03821" lon="7.0168">
        <ele>1404</ele>
        <time>2021-07-31T11:29:00+02:00</time>
      </trkpt>
      <trkpt lat="48.03837" lon="7.01667">
        <ele>1402</ele>
        <time>2021-07-31T11:29:13+02:00</time>
      </trkpt>
      <trkpt lat="48.0385" lon="7.01648">
        <ele>1402</ele>
        <time>2021-07-31T11:29:28+02:00</time>
      </trkpt>
      <trkpt lat="48.03858" lon="7.01624">
        <ele>1402</ele>
        <time>2021-07-31T11:29:39+02:00</time>
      </trkpt>
      <trkpt lat="48.03864" lon="7.01596">
        <ele>1403</ele>
        <time>2021-07-31T11:29:54+02:00</time>
      </trkpt>
      <trkpt lat="48.03884" lon="7.01599">
        <ele>1401</ele>
        <time>2021-07-31T11:30:06+02:00</time>
      </trkpt>
      <trkpt lat="48.03902" lon="7.01602">
        <ele>1397</ele>
        <time>2021-07-31T11:30:25+02:00</time>
      </trkpt>
      <trkpt lat="48.0392" lon="7.0161">
        <ele>1391</ele>
        <time>2021-07-31T11:30:40+02:00</time>
      </trkpt>
      <trkpt lat="48.03937" lon="7.01621">
        <ele>1385</ele>
        <time>2021-07-31T11:30:54+02:00</time>
      </trkpt>
      <trkpt lat="48.03928" lon="7.01645">
        <ele>1382</ele>
        <time>2021-07-31T11:31:10+02:00</time>
      </trkpt>
      <trkpt lat="48.03919" lon="7.01668">
        <ele>1382</ele>
        <time>2021-07-31T11:31:25+02:00</time>
      </trkpt>
      <trkpt lat="48.03921" lon="7.01695">
        <ele>1382</ele>
        <time>2021-07-31T11:31:45+02:00</time>
      </trkpt>
      <trkpt lat="48.03917" lon="7.01722">
        <ele>1379</ele>
        <time>2021-07-31T11:32:09+02:00</time>
      </trkpt>
      <trkpt lat="48.03913" lon="7.01749">
        <ele>1375</ele>
        <time>2021-07-31T11:33:10+02:00</time>
      </trkpt>
      <trkpt lat="48.03907" lon="7.01775">
        <ele>1377</ele>
        <time>2021-07-31T11:33:23+02:00</time>
      </trkpt>
      <trkpt lat="48.03896" lon="7.01799">
        <ele>1376</ele>
        <time>2021-07-31T11:33:32+02:00</time>
      </trkpt>
      <trkpt lat="48.0389" lon="7.01826">
        <ele>1376</ele>
        <time>2021-07-31T11:33:49+02:00</time>
      </trkpt>
      <trkpt lat="48.03879" lon="7.01849">
        <ele>1375</ele>
        <time>2021-07-31T11:34:00+02:00</time>
      </trkpt>
      <trkpt lat="48.03869" lon="7.01873">
        <ele>1370</ele>
        <time>2021-07-31T11:34:14+02:00</time>
      </trkpt>
      <trkpt lat="48.03866" lon="7.01901">
        <ele>1373</ele>
        <time>2021-07-31T11:34:26+02:00</time>
      </trkpt>
      <trkpt lat="48.03858" lon="7.01926">
        <ele>1362</ele>
        <time>2021-07-31T11:34:44+02:00</time>
      </trkpt>
      <trkpt lat="48.03843" lon="7.01945">
        <ele>1363</ele>
        <time>2021-07-31T11:34:55+02:00</time>
      </trkpt>
      <trkpt lat="48.03833" lon="7.01967">
        <ele>1360</ele>
        <time>2021-07-31T11:35:14+02:00</time>
      </trkpt>
      <trkpt lat="48.03824" lon="7.01991">
        <ele>1355</ele>
        <time>2021-07-31T11:35:31+02:00</time>
      </trkpt>
      <trkpt lat="48.03821" lon="7.02019">
        <ele>1350</ele>
        <time>2021-07-31T11:35:48+02:00</time>
      </trkpt>
      <trkpt lat="48.0382" lon="7.02048">
        <ele>1351</ele>
        <time>2021-07-31T11:35:56+02:00</time>
      </trkpt>
      <trkpt lat="48.03815" lon="7.02076">
        <ele>1348</ele>
        <time>2021-07-31T11:36:42+02:00</time>
      </trkpt>
      <trkpt lat="48.03807" lon="7.021">
        <ele>1338</ele>
        <time>2021-07-31T11:37:05+02:00</time>
      </trkpt>
      <trkpt lat="48.038" lon="7.02127">
        <ele>1338</ele>
        <time>2021-07-31T11:37:18+02:00</time>
      </trkpt>
      <trkpt lat="48.03798" lon="7.02155">
        <ele>1338</ele>
        <time>2021-07-31T11:37:29+02:00</time>
      </trkpt>
      <trkpt lat="48.03793" lon="7.02183">
        <ele>1335</ele>
        <time>2021-07-31T11:37:47+02:00</time>
      </trkpt>
      <trkpt lat="48.03787" lon="7.02209">
        <ele>1336</ele>
        <time>2021-07-31T11:37:58+02:00</time>
      </trkpt>
      <trkpt lat="48.0378" lon="7.02235">
        <ele>1329</ele>
        <time>2021-07-31T11:38:13+02:00</time>
      </trkpt>
      <trkpt lat="48.03768" lon="7.02255">
        <ele>1328</ele>
        <time>2021-07-31T11:38:24+02:00</time>
      </trkpt>
      <trkpt lat="48.03753" lon="7.02271">
        <ele>1327</ele>
        <time>2021-07-31T11:38:41+02:00</time>
      </trkpt>
      <trkpt lat="48.03741" lon="7.02293">
        <ele>1322</ele>
        <time>2021-07-31T11:39:06+02:00</time>
      </trkpt>
      <trkpt lat="48.03732" lon="7.02316">
        <ele>1318</ele>
        <time>2021-07-31T11:39:17+02:00</time>
      </trkpt>
      <trkpt lat="48.0372" lon="7.02336">
        <ele>1310</ele>
        <time>2021-07-31T11:39:35+02:00</time>
      </trkpt>
      <trkpt lat="48.03713" lon="7.02363">
        <ele>1309</ele>
        <time>2021-07-31T11:39:50+02:00</time>
      </trkpt>
      <trkpt lat="48.03703" lon="7.02387">
        <ele>1305</ele>
        <time>2021-07-31T11:40:05+02:00</time>
      </trkpt>
      <trkpt lat="48.03699" lon="7.02415">
        <ele>1296</ele>
        <time>2021-07-31T11:40:27+02:00</time>
      </trkpt>
      <trkpt lat="48.03695" lon="7.02442">
        <ele>1297</ele>
        <time>2021-07-31T11:40:50+02:00</time>
      </trkpt>
      <trkpt lat="48.0369" lon="7.02469">
        <ele>1294</ele>
        <time>2021-07-31T11:41:02+02:00</time>
      </trkpt>
      <trkpt lat="48.03685" lon="7.02495">
        <ele>1291</ele>
        <time>2021-07-31T11:41:16+02:00</time>
      </trkpt>
      <trkpt lat="48.03675" lon="7.02518">
        <ele>1286</ele>
        <time>2021-07-31T11:41:30+02:00</time>
      </trkpt>
      <trkpt lat="48.03658" lon="7.02529">
        <ele>1283</ele>
        <time>2021-07-31T11:41:43+02:00</time>
      </trkpt>
      <trkpt lat="48.03646" lon="7.02551">
        <ele>1280</ele>
        <time>2021-07-31T11:42:00+02:00</time>
      </trkpt>
      <trkpt lat="48.03639" lon="7.02576">
        <ele>1278</ele>
        <time>2021-07-31T11:42:29+02:00</time>
      </trkpt>
      <trkpt lat="48.03637" lon="7.02604">
        <ele>1273</ele>
        <time>2021-07-31T11:42:44+02:00</time>
      </trkpt>
      <trkpt lat="48.03633" lon="7.02631">
        <ele>1272</ele>
        <time>2021-07-31T11:42:58+02:00</time>
      </trkpt>
      <trkpt lat="48.0363" lon="7.02658">
        <ele>1274</ele>
        <time>2021-07-31T11:43:10+02:00</time>
      </trkpt>
      <trkpt lat="48.03628" lon="7.02685">
        <ele>1273</ele>
        <time>2021-07-31T11:43:20+02:00</time>
      </trkpt>
      <trkpt lat="48.03625" lon="7.02714">
        <ele>1278</ele>
        <time>2021-07-31T11:43:36+02:00</time>
      </trkpt>
      <trkpt lat="48.03616" lon="7.02738">
        <ele>1281</ele>
        <time>2021-07-31T11:43:49+02:00</time>
      </trkpt>
      <trkpt lat="48.0361" lon="7.02764">
        <ele>1291</ele>
        <time>2021-07-31T11:44:13+02:00</time>
      </trkpt>
      <trkpt lat="48.03603" lon="7.02791">
        <ele>1296</ele>
        <time>2021-07-31T11:44:32+02:00</time>
      </trkpt>
      <trkpt lat="48.03588" lon="7.02804">
        <ele>1301</ele>
        <time>2021-07-31T11:44:51+02:00</time>
      </trkpt>
      <trkpt lat="48.03578" lon="7.02827">
        <ele>1308</ele>
        <time>2021-07-31T11:45:13+02:00</time>
      </trkpt>
      <trkpt lat="48.03568" lon="7.0285">
        <ele>1310</ele>
        <time>2021-07-31T11:45:26+02:00</time>
      </trkpt>
      <trkpt lat="48.03557" lon="7.02871">
        <ele>1313</ele>
        <time>2021-07-31T11:45:40+02:00</time>
      </trkpt>
      <trkpt lat="48.03546" lon="7.02896">
        <ele>1319</ele>
        <time>2021-07-31T11:46:04+02:00</time>
      </trkpt>
      <trkpt lat="48.03549" lon="7.02922">
        <ele>1320</ele>
        <time>2021-07-31T11:46:17+02:00</time>
      </trkpt>
      <trkpt lat="48.03547" lon="7.02949">
        <ele>1322</ele>
        <time>2021-07-31T11:46:31+02:00</time>
      </trkpt>
      <trkpt lat="48.03542" lon="7.02975">
        <ele>1325</ele>
        <time>2021-07-31T11:46:44+02:00</time>
      </trkpt>
      <trkpt lat="48.03536" lon="7.03003">
        <ele>1324</ele>
        <time>2021-07-31T11:47:00+02:00</time>
      </trkpt>
      <trkpt lat="48.03533" lon="7.0303">
        <ele>1326</ele>
        <time>2021-07-31T11:47:16+02:00</time>
      </trkpt>
      <trkpt lat="48.03532" lon="7.03059">
        <ele>1328</ele>
        <time>2021-07-31T11:47:28+02:00</time>
      </trkpt>
      <trkpt lat="48.03531" lon="7.03089">
        <ele>1331</ele>
        <time>2021-07-31T11:47:44+02:00</time>
      </trkpt>
      <trkpt lat="48.03534" lon="7.03116">
        <ele>1328</ele>
        <time>2021-07-31T11:47:56+02:00</time>
      </trkpt>
      <trkpt lat="48.03538" lon="7.03144">
        <ele>1329</ele>
        <time>2021-07-31T11:48:07+02:00</time>
      </trkpt>
      <trkpt lat="48.0354" lon="7.03171">
        <ele>1332</ele>
        <time>2021-07-31T11:48:21+02:00</time>
      </trkpt>
      <trkpt lat="48.03543" lon="7.03199">
        <ele>1331</ele>
        <time>2021-07-31T11:48:34+02:00</time>
      </trkpt>
      <trkpt lat="48.03545" lon="7.03227">
        <ele>1335</ele>
        <time>2021-07-31T11:48:50+02:00</time>
      </trkpt>
      <trkpt lat="48.03551" lon="7.03255">
        <ele>1341</ele>
        <time>2021-07-31T11:49:26+02:00</time>
      </trkpt>
      <trkpt lat="48.03555" lon="7.03282">
        <ele>1338</ele>
        <time>2021-07-31T11:49:42+02:00</time>
      </trkpt>
      <trkpt lat="48.03559" lon="7.03309">
        <ele>1342</ele>
        <time>2021-07-31T11:49:57+02:00</time>
      </trkpt>
      <trkpt lat="48.03562" lon="7.03335">
        <ele>1340</ele>
        <time>2021-07-31T11:50:09+02:00</time>
      </trkpt>
      <trkpt lat="48.03565" lon="7.03363">
        <ele>1341</ele>
        <time>2021-07-31T11:50:23+02:00</time>
      </trkpt>
      <trkpt lat="48.03564" lon="7.03391">
        <ele>1339</ele>
        <time>2021-07-31T11:50:35+02:00</time>
      </trkpt>
      <trkpt lat="48.03564" lon="7.03418">
        <ele>1335</ele>
        <time>2021-07-31T11:50:50+02:00</time>
      </trkpt>
      <trkpt lat="48.03562" lon="7.03446">
        <ele>1334</ele>
        <time>2021-07-31T11:51:09+02:00</time>
      </trkpt>
      <trkpt lat="48.03551" lon="7.03467">
        <ele>1331</ele>
        <time>2021-07-31T11:51:21+02:00</time>
      </trkpt>
      <trkpt lat="48.03551" lon="7.03496">
        <ele>1331</ele>
        <time>2021-07-31T11:51:36+02:00</time>
      </trkpt>
      <trkpt lat="48.03547" lon="7.03523">
        <ele>1325</ele>
        <time>2021-07-31T11:51:51+02:00</time>
      </trkpt>
      <trkpt lat="48.03544" lon="7.0355">
        <ele>1320</ele>
        <time>2021-07-31T11:52:08+02:00</time>
      </trkpt>
      <trkpt lat="48.03537" lon="7.03575">
        <ele>1314</ele>
        <time>2021-07-31T11:52:21+02:00</time>
      </trkpt>
      <trkpt lat="48.03526" lon="7.03597">
        <ele>1314</ele>
        <time>2021-07-31T11:52:37+02:00</time>
      </trkpt>
      <trkpt lat="48.03526" lon="7.03624">
        <ele>1307</ele>
        <time>2021-07-31T11:52:58+02:00</time>
      </trkpt>
      <trkpt lat="48.03518" lon="7.03649">
        <ele>1298</ele>
        <time>2021-07-31T11:53:18+02:00</time>
      </trkpt>
      <trkpt lat="48.03511" lon="7.03675">
        <ele>1290</ele>
        <time>2021-07-31T11:53:42+02:00</time>
      </trkpt>
      <trkpt lat="48.03504" lon="7.03699">
        <ele>1285</ele>
        <time>2021-07-31T11:54:10+02:00</time>
      </trkpt>
      <trkpt lat="48.03501" lon="7.03726">
        <ele>1275</ele>
        <time>2021-07-31T11:54:40+02:00</time>
      </trkpt>
      <trkpt lat="48.03495" lon="7.03753">
        <ele>1270</ele>
        <time>2021-07-31T11:54:55+02:00</time>
      </trkpt>
      <trkpt lat="48.03493" lon="7.03781">
        <ele>1264</ele>
        <time>2021-07-31T11:55:12+02:00</time>
      </trkpt>
      <trkpt lat="48.03497" lon="7.03807">
        <ele>1252</ele>
        <time>2021-07-31T11:55:37+02:00</time>
      </trkpt>
      <trkpt lat="48.03496" lon="7.03835">
        <ele>1239</ele>
        <time>2021-07-31T11:56:23+02:00</time>
      </trkpt>
      <trkpt lat="48.03489" lon="7.03861">
        <ele>1236</ele>
        <time>2021-07-31T11:56:46+02:00</time>
      </trkpt>
      <trkpt lat="48.03478" lon="7.03884">
        <ele>1226</ele>
        <time>2021-07-31T11:57:09+02:00</time>
      </trkpt>
      <trkpt lat="48.03475" lon="7.03911">
        <ele>1220</ele>
        <time>2021-07-31T11:57:31+02:00</time>
      </trkpt>
      <trkpt lat="48.03472" lon="7.03938">
        <ele>1212</ele>
        <time>2021-07-31T11:57:51+02:00</time>
      </trkpt>
      <trkpt lat="48.03464" lon="7.03962">
        <ele>1204</ele>
        <time>2021-07-31T11:58:09+02:00</time>
      </trkpt>
      <trkpt lat="48.03457" lon="7.03989">
        <ele>1198</ele>
        <time>2021-07-31T11:58:31+02:00</time>
      </trkpt>
      <trkpt lat="48.03465" lon="7.04013">
        <ele>1191</ele>
        <time>2021-07-31T11:58:50+02:00</time>
      </trkpt>
      <trkpt lat="48.03483" lon="7.04014">
        <ele>1192</ele>
        <time>2021-07-31T11:59:07+02:00</time>
      </trkpt>
      <trkpt lat="48.03502" lon="7.04018">
        <ele>1183</ele>
        <time>2021-07-31T11:59:24+02:00</time>
      </trkpt>
      <trkpt lat="48.0352" lon="7.0402">
        <ele>1187</ele>
        <time>2021-07-31T11:59:34+02:00</time>
      </trkpt>
      <trkpt lat="48.03539" lon="7.04016">
        <ele>1186</ele>
        <time>2021-07-31T11:59:49+02:00</time>
      </trkpt>
      <trkpt lat="48.03556" lon="7.04005">
        <ele>1186</ele>
        <time>2021-07-31T12:00:04+02:00</time>
      </trkpt>
      <trkpt lat="48.03574" lon="7.03993">
        <ele>1184</ele>
        <time>2021-07-31T12:00:22+02:00</time>
      </trkpt>
      <trkpt lat="48.03589" lon="7.03978">
        <ele>1185</ele>
        <time>2021-07-31T12:00:35+02:00</time>
      </trkpt>
      <trkpt lat="48.03608" lon="7.03969">
        <ele>1178</ele>
        <time>2021-07-31T12:00:49+02:00</time>
      </trkpt>
      <trkpt lat="48.03626" lon="7.0397">
        <ele>1174</ele>
        <time>2021-07-31T12:01:08+02:00</time>
      </trkpt>
      <trkpt lat="48.0364" lon="7.03951">
        <ele>1174</ele>
        <time>2021-07-31T12:01:32+02:00</time>
      </trkpt>
      <trkpt lat="48.03655" lon="7.03935">
        <ele>1172</ele>
        <time>2021-07-31T12:02:35+02:00</time>
      </trkpt>
      <trkpt lat="48.03674" lon="7.03941">
        <ele>1171</ele>
        <time>2021-07-31T12:02:55+02:00</time>
      </trkpt>
      <trkpt lat="48.03693" lon="7.03947">
        <ele>1167</ele>
        <time>2021-07-31T12:03:13+02:00</time>
      </trkpt>
      <trkpt lat="48.0371" lon="7.03956">
        <ele>1164</ele>
        <time>2021-07-31T12:03:28+02:00</time>
      </trkpt>
      <trkpt lat="48.03727" lon="7.03967">
        <ele>1157</ele>
        <time>2021-07-31T12:03:40+02:00</time>
      </trkpt>
      <trkpt lat="48.03744" lon="7.03979">
        <ele>1160</ele>
        <time>2021-07-31T12:03:58+02:00</time>
      </trkpt>
      <trkpt lat="48.03761" lon="7.03991">
        <ele>1160</ele>
        <time>2021-07-31T12:04:15+02:00</time>
      </trkpt>
      <trkpt lat="48.03778" lon="7.04001">
        <ele>1155</ele>
        <time>2021-07-31T12:04:34+02:00</time>
      </trkpt>
      <trkpt lat="48.03796" lon="7.03996">
        <ele>1159</ele>
        <time>2021-07-31T12:05:34+02:00</time>
      </trkpt>
      <trkpt lat="48.0381" lon="7.03975">
        <ele>1161</ele>
        <time>2021-07-31T12:06:11+02:00</time>
      </trkpt>
      <trkpt lat="48.03818" lon="7.03951">
        <ele>1158</ele>
        <time>2021-07-31T12:06:26+02:00</time>
      </trkpt>
      <trkpt lat="48.03827" lon="7.03928">
        <ele>1158</ele>
        <time>2021-07-31T12:06:41+02:00</time>
      </trkpt>
      <trkpt lat="48.03833" lon="7.03902">
        <ele>1163</ele>
        <time>2021-07-31T12:07:01+02:00</time>
      </trkpt>
      <trkpt lat="48.03834" lon="7.03875">
        <ele>1168</ele>
        <time>2021-07-31T12:07:11+02:00</time>
      </trkpt>
      <trkpt lat="48.03837" lon="7.03848">
        <ele>1171</ele>
        <time>2021-07-31T12:07:32+02:00</time>
      </trkpt>
      <trkpt lat="48.03845" lon="7.03823">
        <ele>1170</ele>
        <time>2021-07-31T12:07:48+02:00</time>
      </trkpt>
      <trkpt lat="48.0385" lon="7.03796">
        <ele>1173</ele>
        <time>2021-07-31T12:08:00+02:00</time>
      </trkpt>
      <trkpt lat="48.03859" lon="7.03769">
        <ele>1183</ele>
        <time>2021-07-31T12:08:14+02:00</time>
      </trkpt>
      <trkpt lat="48.03872" lon="7.03748">
        <ele>1190</ele>
        <time>2021-07-31T12:08:25+02:00</time>
      </trkpt>
      <trkpt lat="48.03885" lon="7.03729">
        <ele>1190</ele>
        <time>2021-07-31T12:08:45+02:00</time>
      </trkpt>
      <trkpt lat="48.03898" lon="7.03711">
        <ele>1187</ele>
        <time>2021-07-31T12:09:01+02:00</time>
      </trkpt>
      <trkpt lat="48.03914" lon="7.03696">
        <ele>1190</ele>
        <time>2021-07-31T12:09:11+02:00</time>
      </trkpt>
      <trkpt lat="48.0393" lon="7.0368">
        <ele>1187</ele>
        <time>2021-07-31T12:09:29+02:00</time>
      </trkpt>
      <trkpt lat="48.03943" lon="7.03661">
        <ele>1189</ele>
        <time>2021-07-31T12:09:48+02:00</time>
      </trkpt>
      <trkpt lat="48.03947" lon="7.03634">
        <ele>1196</ele>
        <time>2021-07-31T12:09:57+02:00</time>
      </trkpt>
      <trkpt lat="48.0394" lon="7.03606">
        <ele>1205</ele>
        <time>2021-07-31T12:10:15+02:00</time>
      </trkpt>
      <trkpt lat="48.03926" lon="7.03585">
        <ele>1206</ele>
        <time>2021-07-31T12:10:28+02:00</time>
      </trkpt>
      <trkpt lat="48.03914" lon="7.03565">
        <ele>1208</ele>
        <time>2021-07-31T12:10:45+02:00</time>
      </trkpt>
      <trkpt lat="48.03904" lon="7.0354">
        <ele>1209</ele>
        <time>2021-07-31T12:10:57+02:00</time>
      </trkpt>
      <trkpt lat="48.0389" lon="7.03523">
        <ele>1213</ele>
        <time>2021-07-31T12:11:06+02:00</time>
      </trkpt>
      <trkpt lat="48.03884" lon="7.03497">
        <ele>1215</ele>
        <time>2021-07-31T12:11:13+02:00</time>
      </trkpt>
      <trkpt lat="48.03879" lon="7.03469">
        <ele>1217</ele>
        <time>2021-07-31T12:11:22+02:00</time>
      </trkpt>
      <trkpt lat="48.03869" lon="7.03448">
        <ele>1216</ele>
        <time>2021-07-31T12:11:36+02:00</time>
      </trkpt>
      <trkpt lat="48.03856" lon="7.03426">
        <ele>1217</ele>
        <time>2021-07-31T12:11:54+02:00</time>
      </trkpt>
      <trkpt lat="48.03838" lon="7.03413">
        <ele>1225</ele>
        <time>2021-07-31T12:12:13+02:00</time>
      </trkpt>
      <trkpt lat="48.03824" lon="7.03398">
        <ele>1226</ele>
        <time>2021-07-31T12:12:25+02:00</time>
      </trkpt>
      <trkpt lat="48.0381" lon="7.0338">
        <ele>1228</ele>
        <time>2021-07-31T12:12:38+02:00</time>
      </trkpt>
      <trkpt lat="48.03794" lon="7.03363">
        <ele>1231</ele>
        <time>2021-07-31T12:12:52+02:00</time>
      </trkpt>
      <trkpt lat="48.03786" lon="7.0334">
        <ele>1227</ele>
        <time>2021-07-31T12:13:06+02:00</time>
      </trkpt>
      <trkpt lat="48.03777" lon="7.03316">
        <ele>1237</ele>
        <time>2021-07-31T12:13:24+02:00</time>
      </trkpt>
      <trkpt lat="48.0376" lon="7.03307">
        <ele>1237</ele>
        <time>2021-07-31T12:13:44+02:00</time>
      </trkpt>
      <trkpt lat="48.03744" lon="7.03292">
        <ele>1239</ele>
        <time>2021-07-31T12:14:03+02:00</time>
      </trkpt>
      <trkpt lat="48.03737" lon="7.03267">
        <ele>1234</ele>
        <time>2021-07-31T12:14:19+02:00</time>
      </trkpt>
      <trkpt lat="48.03723" lon="7.03247">
        <ele>1240</ele>
        <time>2021-07-31T12:14:39+02:00</time>
      </trkpt>
      <trkpt lat="48.03705" lon="7.0324">
        <ele>1259</ele>
        <time>2021-07-31T12:15:15+02:00</time>
      </trkpt>
      <trkpt lat="48.03692" lon="7.03221">
        <ele>1265</ele>
        <time>2021-07-31T12:16:02+02:00</time>
      </trkpt>
      <trkpt lat="48.03693" lon="7.03194">
        <ele>1273</ele>
        <time>2021-07-31T12:16:25+02:00</time>
      </trkpt>
      <trkpt lat="48.03688" lon="7.03167">
        <ele>1267</ele>
        <time>2021-07-31T12:16:56+02:00</time>
      </trkpt>
      <trkpt lat="48.03683" lon="7.0314">
        <ele>1265</ele>
        <time>2021-07-31T12:17:13+02:00</time>
      </trkpt>
      <trkpt lat="48.03677" lon="7.03114">
        <ele>1271</ele>
        <time>2021-07-31T12:17:31+02:00</time>
      </trkpt>
      <trkpt lat="48.03679" lon="7.03086">
        <ele>1277</ele>
        <time>2021-07-31T12:17:42+02:00</time>
      </trkpt>
      <trkpt lat="48.03673" lon="7.03058">
        <ele>1277</ele>
        <time>2021-07-31T12:17:54+02:00</time>
      </trkpt>
      <trkpt lat="48.03675" lon="7.0303">
        <ele>1279</ele>
        <time>2021-07-31T12:18:08+02:00</time>
      </trkpt>
      <trkpt lat="48.03673" lon="7.03003">
        <ele>1271</ele>
        <time>2021-07-31T12:18:28+02:00</time>
      </trkpt>
      <trkpt lat="48.03673" lon="7.02976">
        <ele>1270</ele>
        <time>2021-07-31T12:18:45+02:00</time>
      </trkpt>
      <trkpt lat="48.03683" lon="7.02952">
        <ele>1276</ele>
        <time>2021-07-31T12:19:00+02:00</time>
      </trkpt>
      <trkpt lat="48.03676" lon="7.02927">
        <ele>1279</ele>
        <time>2021-07-31T12:19:14+02:00</time>
      </trkpt>
      <trkpt lat="48.03671" lon="7.029">
        <ele>1278</ele>
        <time>2021-07-31T12:19:27+02:00</time>
      </trkpt>
      <trkpt lat="48.03666" lon="7.02873">
        <ele>1279</ele>
        <time>2021-07-31T12:19:43+02:00</time>
      </trkpt>
      <trkpt lat="48.03662" lon="7.02847">
        <ele>1282</ele>
        <time>2021-07-31T12:19:55+02:00</time>
      </trkpt>
      <trkpt lat="48.03661" lon="7.02818">
        <ele>1284</ele>
        <time>2021-07-31T12:20:10+02:00</time>
      </trkpt>
      <trkpt lat="48.03658" lon="7.0279">
        <ele>1284</ele>
        <time>2021-07-31T12:20:28+02:00</time>
      </trkpt>
      <trkpt lat="48.03655" lon="7.02764">
        <ele>1289</ele>
        <time>2021-07-31T12:20:36+02:00</time>
      </trkpt>
      <trkpt lat="48.03649" lon="7.02736">
        <ele>1289</ele>
        <time>2021-07-31T12:20:46+02:00</time>
      </trkpt>
      <trkpt lat="48.03643" lon="7.02709">
        <ele>1285</ele>
        <time>2021-07-31T12:21:05+02:00</time>
      </trkpt>
      <trkpt lat="48.03634" lon="7.02684">
        <ele>1282</ele>
        <time>2021-07-31T12:21:17+02:00</time>
      </trkpt>
      <trkpt lat="48.03635" lon="7.02656">
        <ele>1277</ele>
        <time>2021-07-31T12:21:27+02:00</time>
      </trkpt>
      <trkpt lat="48.03645" lon="7.02634">
        <ele>1280</ele>
        <time>2021-07-31T12:21:37+02:00</time>
      </trkpt>
      <trkpt lat="48.03663" lon="7.0264">
        <ele>1273</ele>
        <time>2021-07-31T12:21:53+02:00</time>
      </trkpt>
      <trkpt lat="48.03681" lon="7.0264">
        <ele>1271</ele>
        <time>2021-07-31T12:22:05+02:00</time>
      </trkpt>
      <trkpt lat="48.037" lon="7.02637">
        <ele>1269</ele>
        <time>2021-07-31T12:22:18+02:00</time>
      </trkpt>
      <trkpt lat="48.03719" lon="7.02637">
        <ele>1268</ele>
        <time>2021-07-31T12:22:30+02:00</time>
      </trkpt>
      <trkpt lat="48.03737" lon="7.02631">
        <ele>1265</ele>
        <time>2021-07-31T12:22:43+02:00</time>
      </trkpt>
      <trkpt lat="48.03752" lon="7.02613">
        <ele>1259</ele>
        <time>2021-07-31T12:22:56+02:00</time>
      </trkpt>
      <trkpt lat="48.03771" lon="7.02615">
        <ele>1257</ele>
        <time>2021-07-31T12:23:10+02:00</time>
      </trkpt>
      <trkpt lat="48.0379" lon="7.02611">
        <ele>1255</ele>
        <time>2021-07-31T12:23:22+02:00</time>
      </trkpt>
      <trkpt lat="48.03799" lon="7.02588">
        <ele>1254</ele>
        <time>2021-07-31T12:23:37+02:00</time>
      </trkpt>
      <trkpt lat="48.03806" lon="7.02562">
        <ele>1255</ele>
        <time>2021-07-31T12:23:46+02:00</time>
      </trkpt>
      <trkpt lat="48.03807" lon="7.02535">
        <ele>1252</ele>
        <time>2021-07-31T12:24:02+02:00</time>
      </trkpt>
      <trkpt lat="48.03818" lon="7.02513">
        <ele>1253</ele>
        <time>2021-07-31T12:25:22+02:00</time>
      </trkpt>
      <trkpt lat="48.03826" lon="7.02489">
        <ele>1253</ele>
        <time>2021-07-31T12:25:33+02:00</time>
      </trkpt>
      <trkpt lat="48.03823" lon="7.02462">
        <ele>1250</ele>
        <time>2021-07-31T12:25:50+02:00</time>
      </trkpt>
      <trkpt lat="48.03837" lon="7.02443">
        <ele>1245</ele>
        <time>2021-07-31T12:26:02+02:00</time>
      </trkpt>
      <trkpt lat="48.03853" lon="7.0243">
        <ele>1246</ele>
        <time>2021-07-31T12:26:12+02:00</time>
      </trkpt>
      <trkpt lat="48.03869" lon="7.02417">
        <ele>1252</ele>
        <time>2021-07-31T12:26:29+02:00</time>
      </trkpt>
      <trkpt lat="48.03887" lon="7.02406">
        <ele>1245</ele>
        <time>2021-07-31T12:26:48+02:00</time>
      </trkpt>
      <trkpt lat="48.03903" lon="7.02393">
        <ele>1246</ele>
        <time>2021-07-31T12:27:55+02:00</time>
      </trkpt>
      <trkpt lat="48.03917" lon="7.02377">
        <ele>1246</ele>
        <time>2021-07-31T12:28:20+02:00</time>
      </trkpt>
      <trkpt lat="48.03933" lon="7.02363">
        <ele>1243</ele>
        <time>2021-07-31T12:28:39+02:00</time>
      </trkpt>
      <trkpt lat="48.03947" lon="7.02346">
        <ele>1245</ele>
        <time>2021-07-31T12:29:03+02:00</time>
      </trkpt>
      <trkpt lat="48.03947" lon="7.02319">
        <ele>1240</ele>
        <time>2021-07-31T12:29:35+02:00</time>
      </trkpt>
      <trkpt lat="48.03941" lon="7.02293">
        <ele>1233</ele>
        <time>2021-07-31T12:29:59+02:00</time>
      </trkpt>
      <trkpt lat="48.03936" lon="7.02266">
        <ele>1234</ele>
        <time>2021-07-31T12:30:14+02:00</time>
      </trkpt>
      <trkpt lat="48.03955" lon="7.0227">
        <ele>1232</ele>
        <time>2021-07-31T12:30:43+02:00</time>
      </trkpt>
      <trkpt lat="48.03971" lon="7.02259">
        <ele>1215</ele>
        <time>2021-07-31T12:32:41+02:00</time>
      </trkpt>
      <trkpt lat="48.03986" lon="7.02275">
        <ele>1215</ele>
        <time>2021-07-31T12:33:02+02:00</time>
      </trkpt>
      <trkpt lat="48.04004" lon="7.02278">
        <ele>1203</ele>
        <time>2021-07-31T12:34:04+02:00</time>
      </trkpt>
      <trkpt lat="48.04009" lon="7.0225">
        <ele>1190</ele>
        <time>2021-07-31T12:35:07+02:00</time>
      </trkpt>
      <trkpt lat="48.04009" lon="7.02222">
        <ele>1186</ele>
        <time>2021-07-31T12:35:27+02:00</time>
      </trkpt>
      <trkpt lat="48.04027" lon="7.02227">
        <ele>1181</ele>
        <time>2021-07-31T12:35:57+02:00</time>
      </trkpt>
      <trkpt lat="48.04045" lon="7.02222">
        <ele>1170</ele>
        <time>2021-07-31T12:36:30+02:00</time>
      </trkpt>
      <trkpt lat="48.04059" lon="7.02205">
        <ele>1166</ele>
        <time>2021-07-31T12:36:49+02:00</time>
      </trkpt>
      <trkpt lat="48.04077" lon="7.02201">
        <ele>1166</ele>
        <time>2021-07-31T12:37:12+02:00</time>
      </trkpt>
      <trkpt lat="48.04086" lon="7.02224">
        <ele>1159</ele>
        <time>2021-07-31T12:37:39+02:00</time>
      </trkpt>
      <trkpt lat="48.04086" lon="7.02252">
        <ele>1153</ele>
        <time>2021-07-31T12:38:10+02:00</time>
      </trkpt>
      <trkpt lat="48.04097" lon="7.02275">
        <ele>1151</ele>
        <time>2021-07-31T12:38:38+02:00</time>
      </trkpt>
      <trkpt lat="48.04109" lon="7.02296">
        <ele>1140</ele>
        <time>2021-07-31T12:39:03+02:00</time>
      </trkpt>
      <trkpt lat="48.04121" lon="7.02318">
        <ele>1139</ele>
        <time>2021-07-31T12:39:19+02:00</time>
      </trkpt>
      <trkpt lat="48.04136" lon="7.02335">
        <ele>1136</ele>
        <time>2021-07-31T12:39:41+02:00</time>
      </trkpt>
      <trkpt lat="48.04153" lon="7.02344">
        <ele>1126</ele>
        <time>2021-07-31T12:40:19+02:00</time>
      </trkpt>
      <trkpt lat="48.04163" lon="7.02366">
        <ele>1128</ele>
        <time>2021-07-31T12:40:49+02:00</time>
      </trkpt>
      <trkpt lat="48.04181" lon="7.02373">
        <ele>1116</ele>
        <time>2021-07-31T12:41:13+02:00</time>
      </trkpt>
      <trkpt lat="48.04184" lon="7.02345">
        <ele>1110</ele>
        <time>2021-07-31T12:41:48+02:00</time>
      </trkpt>
      <trkpt lat="48.04202" lon="7.02339">
        <ele>1107</ele>
        <time>2021-07-31T12:42:34+02:00</time>
      </trkpt>
      <trkpt lat="48.0422" lon="7.02338">
        <ele>1097</ele>
        <time>2021-07-31T12:43:04+02:00</time>
      </trkpt>
      <trkpt lat="48.04235" lon="7.02323">
        <ele>1083</ele>
        <time>2021-07-31T12:43:32+02:00</time>
      </trkpt>
      <trkpt lat="48.04245" lon="7.02299">
        <ele>1080</ele>
        <time>2021-07-31T12:44:34+02:00</time>
      </trkpt>
      <trkpt lat="48.04244" lon="7.02271">
        <ele>1075</ele>
        <time>2021-07-31T12:44:59+02:00</time>
      </trkpt>
      <trkpt lat="48.04252" lon="7.02247">
        <ele>1073</ele>
        <time>2021-07-31T12:45:17+02:00</time>
      </trkpt>
      <trkpt lat="48.04263" lon="7.02223">
        <ele>1076</ele>
        <time>2021-07-31T12:45:31+02:00</time>
      </trkpt>
      <trkpt lat="48.04269" lon="7.02196">
        <ele>1078</ele>
        <time>2021-07-31T12:45:47+02:00</time>
      </trkpt>
      <trkpt lat="48.04283" lon="7.02177">
        <ele>1078</ele>
        <time>2021-07-31T12:46:04+02:00</time>
      </trkpt>
      <trkpt lat="48.043" lon="7.02171">
        <ele>1079</ele>
        <time>2021-07-31T12:46:22+02:00</time>
      </trkpt>
      <trkpt lat="48.04316" lon="7.02154">
        <ele>1084</ele>
        <time>2021-07-31T12:46:45+02:00</time>
      </trkpt>
      <trkpt lat="48.04333" lon="7.02138">
        <ele>1081</ele>
        <time>2021-07-31T12:47:05+02:00</time>
      </trkpt>
      <trkpt lat="48.04352" lon="7.02135">
        <ele>1083</ele>
        <time>2021-07-31T12:47:14+02:00</time>
      </trkpt>
      <trkpt lat="48.04371" lon="7.02134">
        <ele>1079</ele>
        <time>2021-07-31T12:47:25+02:00</time>
      </trkpt>
      <trkpt lat="48.04389" lon="7.02124">
        <ele>1081</ele>
        <time>2021-07-31T12:47:46+02:00</time>
      </trkpt>
      <trkpt lat="48.04407" lon="7.02117">
        <ele>1074</ele>
        <time>2021-07-31T12:47:58+02:00</time>
      </trkpt>
      <trkpt lat="48.04425" lon="7.02115">
        <ele>1070</ele>
        <time>2021-07-31T12:48:12+02:00</time>
      </trkpt>
      <trkpt lat="48.04442" lon="7.02105">
        <ele>1075</ele>
        <time>2021-07-31T12:48:27+02:00</time>
      </trkpt>
      <trkpt lat="48.04458" lon="7.02105">
        <ele>1070</ele>
        <time>2021-07-31T13:02:12+02:00</time>
      </trkpt>
      <trkpt lat="48.04445" lon="7.02087">
        <ele>1074</ele>
        <time>2021-07-31T13:03:03+02:00</time>
      </trkpt>
      <trkpt lat="48.04448" lon="7.02059">
        <ele>1069</ele>
        <time>2021-07-31T13:03:19+02:00</time>
      </trkpt>
      <trkpt lat="48.04449" lon="7.0203">
        <ele>1069</ele>
        <time>2021-07-31T13:03:32+02:00</time>
      </trkpt>
      <trkpt lat="48.04447" lon="7.02003">
        <ele>1067</ele>
        <time>2021-07-31T13:03:46+02:00</time>
      </trkpt>
      <trkpt lat="48.04435" lon="7.0198">
        <ele>1067</ele>
        <time>2021-07-31T13:04:00+02:00</time>
      </trkpt>
      <trkpt lat="48.04423" lon="7.01958">
        <ele>1071</ele>
        <time>2021-07-31T13:04:13+02:00</time>
      </trkpt>
      <trkpt lat="48.0441" lon="7.01937">
        <ele>1072</ele>
        <time>2021-07-31T13:04:31+02:00</time>
      </trkpt>
      <trkpt lat="48.044" lon="7.01914">
        <ele>1076</ele>
        <time>2021-07-31T13:05:01+02:00</time>
      </trkpt>
      <trkpt lat="48.04394" lon="7.01888">
        <ele>1081</ele>
        <time>2021-07-31T13:05:15+02:00</time>
      </trkpt>
      <trkpt lat="48.04384" lon="7.01865">
        <ele>1076</ele>
        <time>2021-07-31T13:05:27+02:00</time>
      </trkpt>
      <trkpt lat="48.04377" lon="7.01838">
        <ele>1079</ele>
        <time>2021-07-31T13:05:42+02:00</time>
      </trkpt>
      <trkpt lat="48.04384" lon="7.01813">
        <ele>1077</ele>
        <time>2021-07-31T13:05:57+02:00</time>
      </trkpt>
      <trkpt lat="48.04381" lon="7.01786">
        <ele>1077</ele>
        <time>2021-07-31T13:06:10+02:00</time>
      </trkpt>
      <trkpt lat="48.04381" lon="7.01757">
        <ele>1075</ele>
        <time>2021-07-31T13:06:27+02:00</time>
      </trkpt>
      <trkpt lat="48.04374" lon="7.01733">
        <ele>1087</ele>
        <time>2021-07-31T13:06:48+02:00</time>
      </trkpt>
      <trkpt lat="48.04371" lon="7.01706">
        <ele>1090</ele>
        <time>2021-07-31T13:07:13+02:00</time>
      </trkpt>
      <trkpt lat="48.04367" lon="7.0168">
        <ele>1095</ele>
        <time>2021-07-31T13:07:33+02:00</time>
      </trkpt>
      <trkpt lat="48.04357" lon="7.01656">
        <ele>1097</ele>
        <time>2021-07-31T13:07:52+02:00</time>
      </trkpt>
      <trkpt lat="48.04345" lon="7.01636">
        <ele>1105</ele>
        <time>2021-07-31T13:08:44+02:00</time>
      </trkpt>
      <trkpt lat="48.04329" lon="7.01622">
        <ele>1114</ele>
        <time>2021-07-31T13:09:11+02:00</time>
      </trkpt>
      <trkpt lat="48.04321" lon="7.01597">
        <ele>1121</ele>
        <time>2021-07-31T13:09:33+02:00</time>
      </trkpt>
      <trkpt lat="48.04312" lon="7.01573">
        <ele>1129</ele>
        <time>2021-07-31T13:10:04+02:00</time>
      </trkpt>
      <trkpt lat="48.0431" lon="7.01546">
        <ele>1139</ele>
        <time>2021-07-31T13:10:34+02:00</time>
      </trkpt>
      <trkpt lat="48.04299" lon="7.01526">
        <ele>1144</ele>
        <time>2021-07-31T13:11:09+02:00</time>
      </trkpt>
      <trkpt lat="48.04297" lon="7.01497">
        <ele>1155</ele>
        <time>2021-07-31T13:11:52+02:00</time>
      </trkpt>
      <trkpt lat="48.04279" lon="7.01486">
        <ele>1169</ele>
        <time>2021-07-31T13:12:36+02:00</time>
      </trkpt>
      <trkpt lat="48.04271" lon="7.01462">
        <ele>1185</ele>
        <time>2021-07-31T13:13:26+02:00</time>
      </trkpt>
      <trkpt lat="48.04271" lon="7.01434">
        <ele>1192</ele>
        <time>2021-07-31T13:13:56+02:00</time>
      </trkpt>
      <trkpt lat="48.04262" lon="7.0141">
        <ele>1198</ele>
        <time>2021-07-31T13:14:36+02:00</time>
      </trkpt>
      <trkpt lat="48.04245" lon="7.01398">
        <ele>1205</ele>
        <time>2021-07-31T13:15:30+02:00</time>
      </trkpt>
      <trkpt lat="48.0424" lon="7.01372">
        <ele>1223</ele>
        <time>2021-07-31T13:16:25+02:00</time>
      </trkpt>
      <trkpt lat="48.04248" lon="7.01347">
        <ele>1238</ele>
        <time>2021-07-31T13:17:11+02:00</time>
      </trkpt>
      <trkpt lat="48.04241" lon="7.01321">
        <ele>1240</ele>
        <time>2021-07-31T13:17:48+02:00</time>
      </trkpt>
      <trkpt lat="48.04244" lon="7.01293">
        <ele>1260</ele>
        <time>2021-07-31T13:18:44+02:00</time>
      </trkpt>
      <trkpt lat="48.04227" lon="7.01282">
        <ele>1264</ele>
        <time>2021-07-31T13:19:26+02:00</time>
      </trkpt>
      <trkpt lat="48.0421" lon="7.01274">
        <ele>1285</ele>
        <time>2021-07-31T13:20:21+02:00</time>
      </trkpt>
      <trkpt lat="48.04197" lon="7.01253">
        <ele>1297</ele>
        <time>2021-07-31T13:21:16+02:00</time>
      </trkpt>
      <trkpt lat="48.04186" lon="7.01232">
        <ele>1303</ele>
        <time>2021-07-31T13:22:34+02:00</time>
      </trkpt>
      <trkpt lat="48.04175" lon="7.01209">
        <ele>1311</ele>
        <time>2021-07-31T13:23:53+02:00</time>
      </trkpt>
      <trkpt lat="48.04184" lon="7.01186">
        <ele>1315</ele>
        <time>2021-07-31T13:24:14+02:00</time>
      </trkpt>
      <trkpt lat="48.04186" lon="7.01159">
        <ele>1333</ele>
        <time>2021-07-31T13:25:22+02:00</time>
      </trkpt>
      <trkpt lat="48.04182" lon="7.01131">
        <ele>1334</ele>
        <time>2021-07-31T13:26:23+02:00</time>
      </trkpt>
      <trkpt lat="48.04173" lon="7.01108">
        <ele>1340</ele>
        <time>2021-07-31T13:26:42+02:00</time>
      </trkpt>
      <trkpt lat="48.04157" lon="7.01095">
        <ele>1344</ele>
        <time>2021-07-31T13:26:55+02:00</time>
      </trkpt>
      <trkpt lat="48.0414" lon="7.01079">
        <ele>1348</ele>
        <time>2021-07-31T13:27:13+02:00</time>
      </trkpt>
      <trkpt lat="48.04135" lon="7.01052">
        <ele>1340</ele>
        <time>2021-07-31T13:27:30+02:00</time>
      </trkpt>
      <trkpt lat="48.0413" lon="7.01026">
        <ele>1344</ele>
        <time>2021-07-31T13:27:41+02:00</time>
      </trkpt>
      <trkpt lat="48.04121" lon="7.00999">
        <ele>1335</ele>
        <time>2021-07-31T13:27:58+02:00</time>
      </trkpt>
      <trkpt lat="48.04115" lon="7.00972">
        <ele>1336</ele>
        <time>2021-07-31T13:28:08+02:00</time>
      </trkpt>
      <trkpt lat="48.04109" lon="7.00945">
        <ele>1332</ele>
        <time>2021-07-31T13:28:26+02:00</time>
      </trkpt>
      <trkpt lat="48.0411" lon="7.00918">
        <ele>1332</ele>
        <time>2021-07-31T13:28:35+02:00</time>
      </trkpt>
      <trkpt lat="48.04105" lon="7.00891">
        <ele>1333</ele>
        <time>2021-07-31T13:28:51+02:00</time>
      </trkpt>
      <trkpt lat="48.04109" lon="7.00863">
        <ele>1332</ele>
        <time>2021-07-31T13:29:06+02:00</time>
      </trkpt>
      <trkpt lat="48.04112" lon="7.00833">
        <ele>1330</ele>
        <time>2021-07-31T13:29:17+02:00</time>
      </trkpt>
      <trkpt lat="48.04112" lon="7.00806">
        <ele>1332</ele>
        <time>2021-07-31T13:29:31+02:00</time>
      </trkpt>
      <trkpt lat="48.04116" lon="7.00779">
        <ele>1331</ele>
        <time>2021-07-31T13:29:41+02:00</time>
      </trkpt>
      <trkpt lat="48.04124" lon="7.00753">
        <ele>1325</ele>
        <time>2021-07-31T13:30:01+02:00</time>
      </trkpt>
      <trkpt lat="48.04129" lon="7.00726">
        <ele>1328</ele>
        <time>2021-07-31T13:30:11+02:00</time>
      </trkpt>
      <trkpt lat="48.04139" lon="7.00701">
        <ele>1318</ele>
        <time>2021-07-31T13:30:28+02:00</time>
      </trkpt>
      <trkpt lat="48.04148" lon="7.00677">
        <ele>1314</ele>
        <time>2021-07-31T13:30:44+02:00</time>
      </trkpt>
      <trkpt lat="48.04157" lon="7.00652">
        <ele>1312</ele>
        <time>2021-07-31T13:30:56+02:00</time>
      </trkpt>
      <trkpt lat="48.04168" lon="7.0063">
        <ele>1310</ele>
        <time>2021-07-31T13:31:10+02:00</time>
      </trkpt>
      <trkpt lat="48.04179" lon="7.00608">
        <ele>1306</ele>
        <time>2021-07-31T13:31:25+02:00</time>
      </trkpt>
      <trkpt lat="48.04192" lon="7.00589">
        <ele>1306</ele>
        <time>2021-07-31T13:31:39+02:00</time>
      </trkpt>
      <trkpt lat="48.04206" lon="7.00572">
        <ele>1301</ele>
        <time>2021-07-31T13:31:53+02:00</time>
      </trkpt>
      <trkpt lat="48.04222" lon="7.00556">
        <ele>1302</ele>
        <time>2021-07-31T13:32:07+02:00</time>
      </trkpt>
      <trkpt lat="48.04234" lon="7.00537">
        <ele>1291</ele>
        <time>2021-07-31T13:32:21+02:00</time>
      </trkpt>
      <trkpt lat="48.04251" lon="7.00528">
        <ele>1299</ele>
        <time>2021-07-31T13:33:19+02:00</time>
      </trkpt>
      <trkpt lat="48.0427" lon="7.00517">
        <ele>1293</ele>
        <time>2021-07-31T13:33:39+02:00</time>
      </trkpt>
      <trkpt lat="48.04289" lon="7.00517">
        <ele>1289</ele>
        <time>2021-07-31T13:33:56+02:00</time>
      </trkpt>
      <trkpt lat="48.04308" lon="7.00524">
        <ele>1288</ele>
        <time>2021-07-31T13:34:05+02:00</time>
      </trkpt>
      <trkpt lat="48.04325" lon="7.00532">
        <ele>1290</ele>
        <time>2021-07-31T13:34:18+02:00</time>
      </trkpt>
      <trkpt lat="48.04343" lon="7.00537">
        <ele>1287</ele>
        <time>2021-07-31T13:34:30+02:00</time>
      </trkpt>
      <trkpt lat="48.0436" lon="7.00547">
        <ele>1290</ele>
        <time>2021-07-31T13:34:44+02:00</time>
      </trkpt>
      <trkpt lat="48.04376" lon="7.0056">
        <ele>1290</ele>
        <time>2021-07-31T13:34:57+02:00</time>
      </trkpt>
      <trkpt lat="48.04392" lon="7.00573">
        <ele>1285</ele>
        <time>2021-07-31T13:35:12+02:00</time>
      </trkpt>
      <trkpt lat="48.04408" lon="7.00589">
        <ele>1280</ele>
        <time>2021-07-31T13:35:29+02:00</time>
      </trkpt>
      <trkpt lat="48.04425" lon="7.00604">
        <ele>1280</ele>
        <time>2021-07-31T13:35:43+02:00</time>
      </trkpt>
      <trkpt lat="48.04444" lon="7.00606">
        <ele>1281</ele>
        <time>2021-07-31T13:36:02+02:00</time>
      </trkpt>
      <trkpt lat="48.04462" lon="7.00617">
        <ele>1282</ele>
        <time>2021-07-31T13:36:15+02:00</time>
      </trkpt>
      <trkpt lat="48.04478" lon="7.00632">
        <ele>1276</ele>
        <time>2021-07-31T13:36:33+02:00</time>
      </trkpt>
      <trkpt lat="48.04496" lon="7.00639">
        <ele>1274</ele>
        <time>2021-07-31T13:36:50+02:00</time>
      </trkpt>
      <trkpt lat="48.04515" lon="7.00641">
        <ele>1273</ele>
        <time>2021-07-31T13:37:03+02:00</time>
      </trkpt>
      <trkpt lat="48.04534" lon="7.00649">
        <ele>1265</ele>
        <time>2021-07-31T13:37:17+02:00</time>
      </trkpt>
      <trkpt lat="48.04552" lon="7.00653">
        <ele>1264</ele>
        <time>2021-07-31T13:37:31+02:00</time>
      </trkpt>
      <trkpt lat="48.04569" lon="7.00666">
        <ele>1263</ele>
        <time>2021-07-31T13:37:48+02:00</time>
      </trkpt>
      <trkpt lat="48.04587" lon="7.00669">
        <ele>1262</ele>
        <time>2021-07-31T13:38:05+02:00</time>
      </trkpt>
      <trkpt lat="48.04605" lon="7.00679">
        <ele>1256</ele>
        <time>2021-07-31T13:38:17+02:00</time>
      </trkpt>
      <trkpt lat="48.04623" lon="7.00687">
        <ele>1260</ele>
        <time>2021-07-31T13:38:31+02:00</time>
      </trkpt>
      <trkpt lat="48.04642" lon="7.00685">
        <ele>1262</ele>
        <time>2021-07-31T13:38:47+02:00</time>
      </trkpt>
      <trkpt lat="48.0466" lon="7.00683">
        <ele>1257</ele>
        <time>2021-07-31T13:39:05+02:00</time>
      </trkpt>
      <trkpt lat="48.04679" lon="7.00686">
        <ele>1250</ele>
        <time>2021-07-31T13:39:32+02:00</time>
      </trkpt>
      <trkpt lat="48.04699" lon="7.00684">
        <ele>1247</ele>
        <time>2021-07-31T13:39:51+02:00</time>
      </trkpt>
      <trkpt lat="48.04717" lon="7.00684">
        <ele>1244</ele>
        <time>2021-07-31T13:40:03+02:00</time>
      </trkpt>
      <trkpt lat="48.04735" lon="7.00681">
        <ele>1241</ele>
        <time>2021-07-31T13:40:21+02:00</time>
      </trkpt>
      <trkpt lat="48.04753" lon="7.00677">
        <ele>1239</ele>
        <time>2021-07-31T13:40:31+02:00</time>
      </trkpt>
      <trkpt lat="48.04772" lon="7.00675">
        <ele>1240</ele>
        <time>2021-07-31T13:40:43+02:00</time>
      </trkpt>
      <trkpt lat="48.04791" lon="7.00674">
        <ele>1240</ele>
        <time>2021-07-31T13:40:57+02:00</time>
      </trkpt>
      <trkpt lat="48.04809" lon="7.00681">
        <ele>1238</ele>
        <time>2021-07-31T13:41:09+02:00</time>
      </trkpt>
      <trkpt lat="48.04828" lon="7.00681">
        <ele>1233</ele>
        <time>2021-07-31T13:41:25+02:00</time>
      </trkpt>
      <trkpt lat="48.04848" lon="7.00687">
        <ele>1229</ele>
        <time>2021-07-31T13:41:50+02:00</time>
      </trkpt>
      <trkpt lat="48.04865" lon="7.00693">
        <ele>1226</ele>
        <time>2021-07-31T13:41:58+02:00</time>
      </trkpt>
      <trkpt lat="48.04885" lon="7.00691">
        <ele>1221</ele>
        <time>2021-07-31T13:42:08+02:00</time>
      </trkpt>
      <trkpt lat="48.04902" lon="7.00686">
        <ele>1223</ele>
        <time>2021-07-31T13:42:19+02:00</time>
      </trkpt>
      <trkpt lat="48.0492" lon="7.00687">
        <ele>1222</ele>
        <time>2021-07-31T13:42:34+02:00</time>
      </trkpt>
      <trkpt lat="48.0494" lon="7.00688">
        <ele>1216</ele>
        <time>2021-07-31T13:42:52+02:00</time>
      </trkpt>
      <trkpt lat="48.04958" lon="7.0069">
        <ele>1214</ele>
        <time>2021-07-31T13:43:01+02:00</time>
      </trkpt>
      <trkpt lat="48.04977" lon="7.00693">
        <ele>1212</ele>
        <time>2021-07-31T13:43:17+02:00</time>
      </trkpt>
      <trkpt lat="48.04995" lon="7.00699">
        <ele>1207</ele>
        <time>2021-07-31T13:43:27+02:00</time>
      </trkpt>
      <trkpt lat="48.05014" lon="7.00701">
        <ele>1202</ele>
        <time>2021-07-31T13:43:42+02:00</time>
      </trkpt>
      <trkpt lat="48.05032" lon="7.00698">
        <ele>1205</ele>
        <time>2021-07-31T13:43:58+02:00</time>
      </trkpt>
      <trkpt lat="48.05051" lon="7.00695">
        <ele>1209</ele>
        <time>2021-07-31T13:44:25+02:00</time>
      </trkpt>
      <trkpt lat="48.05068" lon="7.00691">
        <ele>1206</ele>
        <time>2021-07-31T13:44:36+02:00</time>
      </trkpt>
      <trkpt lat="48.05086" lon="7.00684">
        <ele>1206</ele>
        <time>2021-07-31T13:44:50+02:00</time>
      </trkpt>
      <trkpt lat="48.05104" lon="7.00676">
        <ele>1202</ele>
        <time>2021-07-31T13:45:04+02:00</time>
      </trkpt>
      <trkpt lat="48.05123" lon="7.00673">
        <ele>1199</ele>
        <time>2021-07-31T13:45:15+02:00</time>
      </trkpt>
      <trkpt lat="48.05141" lon="7.00668">
        <ele>1201</ele>
        <time>2021-07-31T13:45:26+02:00</time>
      </trkpt>
      <trkpt lat="48.05159" lon="7.00659">
        <ele>1200</ele>
        <time>2021-07-31T13:45:40+02:00</time>
      </trkpt>
      <trkpt lat="48.05177" lon="7.0065">
        <ele>1198</ele>
        <time>2021-07-31T13:46:03+02:00</time>
      </trkpt>
      <trkpt lat="48.05196" lon="7.00648">
        <ele>1193</ele>
        <time>2021-07-31T13:46:15+02:00</time>
      </trkpt>
      <trkpt lat="48.05214" lon="7.00644">
        <ele>1189</ele>
        <time>2021-07-31T13:46:26+02:00</time>
      </trkpt>
      <trkpt lat="48.05232" lon="7.00647">
        <ele>1186</ele>
        <time>2021-07-31T13:46:41+02:00</time>
      </trkpt>
      <trkpt lat="48.05251" lon="7.00644">
        <ele>1184</ele>
        <time>2021-07-31T13:47:03+02:00</time>
      </trkpt>
      <trkpt lat="48.0527" lon="7.00648">
        <ele>1173</ele>
        <time>2021-07-31T13:47:20+02:00</time>
      </trkpt>
      <trkpt lat="48.05288" lon="7.00642">
        <ele>1173</ele>
        <time>2021-07-31T13:47:31+02:00</time>
      </trkpt>
      <trkpt lat="48.05307" lon="7.00641">
        <ele>1174</ele>
        <time>2021-07-31T13:47:41+02:00</time>
      </trkpt>
      <trkpt lat="48.05325" lon="7.00638">
        <ele>1172</ele>
        <time>2021-07-31T13:47:54+02:00</time>
      </trkpt>
      <trkpt lat="48.05343" lon="7.00631">
        <ele>1167</ele>
        <time>2021-07-31T13:48:04+02:00</time>
      </trkpt>
      <trkpt lat="48.05358" lon="7.00613">
        <ele>1168</ele>
        <time>2021-07-31T13:48:17+02:00</time>
      </trkpt>
      <trkpt lat="48.05364" lon="7.00588">
        <ele>1167</ele>
        <time>2021-07-31T13:48:30+02:00</time>
      </trkpt>
      <trkpt lat="48.05375" lon="7.00566">
        <ele>1161</ele>
        <time>2021-07-31T13:48:49+02:00</time>
      </trkpt>
      <trkpt lat="48.05384" lon="7.00541">
        <ele>1160</ele>
        <time>2021-07-31T13:49:03+02:00</time>
      </trkpt>
      <trkpt lat="48.05394" lon="7.00518">
        <ele>1160</ele>
        <time>2021-07-31T13:49:15+02:00</time>
      </trkpt>
      <trkpt lat="48.05402" lon="7.00494">
        <ele>1155</ele>
        <time>2021-07-31T13:49:29+02:00</time>
      </trkpt>
      <trkpt lat="48.05414" lon="7.00473">
        <ele>1156</ele>
        <time>2021-07-31T13:49:40+02:00</time>
      </trkpt>
      <trkpt lat="48.05428" lon="7.00455">
        <ele>1158</ele>
        <time>2021-07-31T13:50:10+02:00</time>
      </trkpt>
      <trkpt lat="48.05441" lon="7.00435">
        <ele>1159</ele>
        <time>2021-07-31T13:50:23+02:00</time>
      </trkpt>
      <trkpt lat="48.05445" lon="7.00407">
        <ele>1159</ele>
        <time>2021-07-31T13:50:40+02:00</time>
      </trkpt>
      <trkpt lat="48.05442" lon="7.0038">
        <ele>1161</ele>
        <time>2021-07-31T13:50:56+02:00</time>
      </trkpt>
      <trkpt lat="48.05443" lon="7.00353">
        <ele>1165</ele>
        <time>2021-07-31T13:51:11+02:00</time>
      </trkpt>
      <trkpt lat="48.05444" lon="7.00325">
        <ele>1169</ele>
        <time>2021-07-31T13:51:30+02:00</time>
      </trkpt>
      <trkpt lat="48.05445" lon="7.00296">
        <ele>1176</ele>
        <time>2021-07-31T13:51:48+02:00</time>
      </trkpt>
      <trkpt lat="48.05445" lon="7.00269">
        <ele>1183</ele>
        <time>2021-07-31T13:52:10+02:00</time>
      </trkpt>
      <trkpt lat="48.05453" lon="7.00245">
        <ele>1192</ele>
        <time>2021-07-31T13:52:37+02:00</time>
      </trkpt>
      <trkpt lat="48.05448" lon="7.00218">
        <ele>1197</ele>
        <time>2021-07-31T13:53:14+02:00</time>
      </trkpt>
      <trkpt lat="48.05453" lon="7.00192">
        <ele>1205</ele>
        <time>2021-07-31T13:53:40+02:00</time>
      </trkpt>
      <trkpt lat="48.05457" lon="7.00164">
        <ele>1211</ele>
        <time>2021-07-31T13:54:02+02:00</time>
      </trkpt>
      <trkpt lat="48.05467" lon="7.0014">
        <ele>1211</ele>
        <time>2021-07-31T13:54:32+02:00</time>
      </trkpt>
      <trkpt lat="48.05476" lon="7.00116">
        <ele>1218</ele>
        <time>2021-07-31T13:54:52+02:00</time>
      </trkpt>
      <trkpt lat="48.05486" lon="7.00093">
        <ele>1222</ele>
        <time>2021-07-31T13:55:12+02:00</time>
      </trkpt>
      <trkpt lat="48.05493" lon="7.00066">
        <ele>1229</ele>
        <time>2021-07-31T13:55:29+02:00</time>
      </trkpt>
      <trkpt lat="48.05508" lon="7.0005">
        <ele>1232</ele>
        <time>2021-07-31T13:55:42+02:00</time>
      </trkpt>
      <trkpt lat="48.05521" lon="7.0003">
        <ele>1232</ele>
        <time>2021-07-31T13:55:54+02:00</time>
      </trkpt>
      <trkpt lat="48.05537" lon="7.00014">
        <ele>1233</ele>
        <time>2021-07-31T13:56:11+02:00</time>
      </trkpt>
      <trkpt lat="48.05552" lon="6.99998">
        <ele>1234</ele>
        <time>2021-07-31T13:56:33+02:00</time>
      </trkpt>
      <trkpt lat="48.0557" lon="6.99991">
        <ele>1240</ele>
        <time>2021-07-31T13:56:48+02:00</time>
      </trkpt>
      <trkpt lat="48.05587" lon="6.99987">
        <ele>1240</ele>
        <time>2021-07-31T13:57:03+02:00</time>
      </trkpt>
      <trkpt lat="48.05605" lon="6.99992">
        <ele>1241</ele>
        <time>2021-07-31T13:57:14+02:00</time>
      </trkpt>
      <trkpt lat="48.05622" lon="6.99984">
        <ele>1238</ele>
        <time>2021-07-31T13:57:31+02:00</time>
      </trkpt>
      <trkpt lat="48.05641" lon="6.99976">
        <ele>1240</ele>
        <time>2021-07-31T13:57:40+02:00</time>
      </trkpt>
      <trkpt lat="48.05659" lon="6.99968">
        <ele>1243</ele>
        <time>2021-07-31T13:57:54+02:00</time>
      </trkpt>
      <trkpt lat="48.05678" lon="6.99968">
        <ele>1239</ele>
        <time>2021-07-31T13:58:10+02:00</time>
      </trkpt>
      <trkpt lat="48.05696" lon="6.99964">
        <ele>1237</ele>
        <time>2021-07-31T13:58:19+02:00</time>
      </trkpt>
      <trkpt lat="48.05715" lon="6.99957">
        <ele>1235</ele>
        <time>2021-07-31T13:58:26+02:00</time>
      </trkpt>
      <trkpt lat="48.05733" lon="6.99952">
        <ele>1233</ele>
        <time>2021-07-31T13:58:33+02:00</time>
      </trkpt>
      <trkpt lat="48.05751" lon="6.99943">
        <ele>1234</ele>
        <time>2021-07-31T13:58:41+02:00</time>
      </trkpt>
      <trkpt lat="48.05771" lon="6.99935">
        <ele>1238</ele>
        <time>2021-07-31T13:58:47+02:00</time>
      </trkpt>
      <trkpt lat="48.05789" lon="6.9993">
        <ele>1234</ele>
        <time>2021-07-31T13:58:55+02:00</time>
      </trkpt>
      <trkpt lat="48.0581" lon="6.99928">
        <ele>1237</ele>
        <time>2021-07-31T13:59:04+02:00</time>
      </trkpt>
      <trkpt lat="48.0583" lon="6.99923">
        <ele>1237</ele>
        <time>2021-07-31T13:59:12+02:00</time>
      </trkpt>
      <trkpt lat="48.0585" lon="6.99919">
        <ele>1240</ele>
        <time>2021-07-31T13:59:21+02:00</time>
      </trkpt>
      <trkpt lat="48.05869" lon="6.99913">
        <ele>1242</ele>
        <time>2021-07-31T13:59:28+02:00</time>
      </trkpt>
      <trkpt lat="48.05888" lon="6.99913">
        <ele>1244</ele>
        <time>2021-07-31T13:59:37+02:00</time>
      </trkpt>
      <trkpt lat="48.05907" lon="6.99919">
        <ele>1239</ele>
        <time>2021-07-31T13:59:44+02:00</time>
      </trkpt>
      <trkpt lat="48.05927" lon="6.99921">
        <ele>1235</ele>
        <time>2021-07-31T13:59:52+02:00</time>
      </trkpt>
      <trkpt lat="48.05946" lon="6.99923">
        <ele>1231</ele>
        <time>2021-07-31T14:00:01+02:00</time>
      </trkpt>
      <trkpt lat="48.05964" lon="6.9993">
        <ele>1225</ele>
        <time>2021-07-31T14:00:10+02:00</time>
      </trkpt>
      <trkpt lat="48.05983" lon="6.99932">
        <ele>1225</ele>
        <time>2021-07-31T14:00:19+02:00</time>
      </trkpt>
      <trkpt lat="48.06002" lon="6.99931">
        <ele>1220</ele>
        <time>2021-07-31T14:00:33+02:00</time>
      </trkpt>
      <trkpt lat="48.06021" lon="6.99925">
        <ele>1217</ele>
        <time>2021-07-31T14:00:44+02:00</time>
      </trkpt>
      <trkpt lat="48.0604" lon="6.99924">
        <ele>1212</ele>
        <time>2021-07-31T14:00:58+02:00</time>
      </trkpt>
      <trkpt lat="48.06059" lon="6.99926">
        <ele>1203</ele>
        <time>2021-07-31T14:01:12+02:00</time>
      </trkpt>
      <trkpt lat="48.06078" lon="6.99929">
        <ele>1199</ele>
        <time>2021-07-31T14:01:26+02:00</time>
      </trkpt>
      <trkpt lat="48.06097" lon="6.99927">
        <ele>1194</ele>
        <time>2021-07-31T14:01:39+02:00</time>
      </trkpt>
      <trkpt lat="48.06115" lon="6.99932">
        <ele>1194</ele>
        <time>2021-07-31T14:01:54+02:00</time>
      </trkpt>
      <trkpt lat="48.06134" lon="6.99932">
        <ele>1203</ele>
        <time>2021-07-31T14:02:06+02:00</time>
      </trkpt>
      <trkpt lat="48.0615" lon="6.99921">
        <ele>1197</ele>
        <time>2021-07-31T14:02:22+02:00</time>
      </trkpt>
      <trkpt lat="48.06169" lon="6.99913">
        <ele>1193</ele>
        <time>2021-07-31T14:02:39+02:00</time>
      </trkpt>
      <trkpt lat="48.06187" lon="6.9991">
        <ele>1185</ele>
        <time>2021-07-31T14:02:51+02:00</time>
      </trkpt>
      <trkpt lat="48.06205" lon="6.99897">
        <ele>1186</ele>
        <time>2021-07-31T14:03:11+02:00</time>
      </trkpt>
      <trkpt lat="48.0622" lon="6.99881">
        <ele>1181</ele>
        <time>2021-07-31T14:03:27+02:00</time>
      </trkpt>
      <trkpt lat="48.06237" lon="6.99866">
        <ele>1178</ele>
        <time>2021-07-31T14:03:46+02:00</time>
      </trkpt>
      <trkpt lat="48.06251" lon="6.99847">
        <ele>1179</ele>
        <time>2021-07-31T14:03:56+02:00</time>
      </trkpt>
      <trkpt lat="48.06265" lon="6.9983">
        <ele>1177</ele>
        <time>2021-07-31T14:04:04+02:00</time>
      </trkpt>
      <trkpt lat="48.06282" lon="6.9982">
        <ele>1169</ele>
        <time>2021-07-31T14:04:25+02:00</time>
      </trkpt>
      <trkpt lat="48.06296" lon="6.99802">
        <ele>1167</ele>
        <time>2021-07-31T14:04:43+02:00</time>
      </trkpt>
      <trkpt lat="48.06315" lon="6.99796">
        <ele>1159</ele>
        <time>2021-07-31T14:04:52+02:00</time>
      </trkpt>
      <trkpt lat="48.06334" lon="6.99794">
        <ele>1155</ele>
        <time>2021-07-31T14:05:03+02:00</time>
      </trkpt>
      <trkpt lat="48.0635" lon="6.99779">
        <ele>1157</ele>
        <time>2021-07-31T14:05:14+02:00</time>
      </trkpt>
      <trkpt lat="48.06369" lon="6.99781">
        <ele>1148</ele>
        <time>2021-07-31T14:05:32+02:00</time>
      </trkpt>
      <trkpt lat="48.06386" lon="6.99765">
        <ele>1148</ele>
        <time>2021-07-31T14:05:47+02:00</time>
      </trkpt>
      <trkpt lat="48.06401" lon="6.99748">
        <ele>1153</ele>
        <time>2021-07-31T14:05:59+02:00</time>
      </trkpt>
      <trkpt lat="48.06416" lon="6.99731">
        <ele>1151</ele>
        <time>2021-07-31T14:06:11+02:00</time>
      </trkpt>
      <trkpt lat="48.06427" lon="6.99709">
        <ele>1147</ele>
        <time>2021-07-31T14:06:29+02:00</time>
      </trkpt>
      <trkpt lat="48.06439" lon="6.99687">
        <ele>1139</ele>
        <time>2021-07-31T14:06:43+02:00</time>
      </trkpt>
      <trkpt lat="48.06452" lon="6.99666">
        <ele>1135</ele>
        <time>2021-07-31T14:06:59+02:00</time>
      </trkpt>
      <trkpt lat="48.06466" lon="6.99647">
        <ele>1131</ele>
        <time>2021-07-31T14:07:14+02:00</time>
      </trkpt>
      <trkpt lat="48.06482" lon="6.99633">
        <ele>1132</ele>
        <time>2021-07-31T14:07:28+02:00</time>
      </trkpt>
      <trkpt lat="48.06499" lon="6.99618">
        <ele>1132</ele>
        <time>2021-07-31T14:07:40+02:00</time>
      </trkpt>
      <trkpt lat="48.06516" lon="6.99607">
        <ele>1134</ele>
        <time>2021-07-31T14:07:55+02:00</time>
      </trkpt>
      <trkpt lat="48.06533" lon="6.99596">
        <ele>1134</ele>
        <time>2021-07-31T14:08:08+02:00</time>
      </trkpt>
      <trkpt lat="48.0655" lon="6.99582">
        <ele>1132</ele>
        <time>2021-07-31T14:08:28+02:00</time>
      </trkpt>
      <trkpt lat="48.06567" lon="6.99572">
        <ele>1126</ele>
        <time>2021-07-31T14:08:45+02:00</time>
      </trkpt>
      <trkpt lat="48.06565" lon="6.99545">
        <ele>1133</ele>
        <time>2021-07-31T14:09:04+02:00</time>
      </trkpt>
      <trkpt lat="48.06552" lon="6.99525">
        <ele>1130</ele>
        <time>2021-07-31T14:09:17+02:00</time>
      </trkpt>
      <trkpt lat="48.06536" lon="6.99509">
        <ele>1129</ele>
        <time>2021-07-31T14:09:29+02:00</time>
      </trkpt>
      <trkpt lat="48.06525" lon="6.99487">
        <ele>1128</ele>
        <time>2021-07-31T14:10:36+02:00</time>
      </trkpt>
      <trkpt lat="48.06509" lon="6.99469">
        <ele>1130</ele>
        <time>2021-07-31T14:10:49+02:00</time>
      </trkpt>
      <trkpt lat="48.06499" lon="6.99447">
        <ele>1126</ele>
        <time>2021-07-31T14:11:05+02:00</time>
      </trkpt>
      <trkpt lat="48.06498" lon="6.99419">
        <ele>1119</ele>
        <time>2021-07-31T14:11:17+02:00</time>
      </trkpt>
      <trkpt lat="48.06503" lon="6.99392">
        <ele>1113</ele>
        <time>2021-07-31T14:11:30+02:00</time>
      </trkpt>
      <trkpt lat="48.06508" lon="6.99366">
        <ele>1116</ele>
        <time>2021-07-31T14:11:42+02:00</time>
      </trkpt>
      <trkpt lat="48.06518" lon="6.99341">
        <ele>1118</ele>
        <time>2021-07-31T14:11:54+02:00</time>
      </trkpt>
      <trkpt lat="48.06528" lon="6.99318">
        <ele>1115</ele>
        <time>2021-07-31T14:12:18+02:00</time>
      </trkpt>
      <trkpt lat="48.06538" lon="6.99294">
        <ele>1116</ele>
        <time>2021-07-31T14:12:34+02:00</time>
      </trkpt>
      <trkpt lat="48.0655" lon="6.99271">
        <ele>1114</ele>
        <time>2021-07-31T14:12:50+02:00</time>
      </trkpt>
      <trkpt lat="48.06563" lon="6.99251">
        <ele>1111</ele>
        <time>2021-07-31T14:13:04+02:00</time>
      </trkpt>
      <trkpt lat="48.0658" lon="6.9924">
        <ele>1111</ele>
        <time>2021-07-31T14:13:18+02:00</time>
      </trkpt>
      <trkpt lat="48.06594" lon="6.9922">
        <ele>1122</ele>
        <time>2021-07-31T14:13:29+02:00</time>
      </trkpt>
      <trkpt lat="48.0661" lon="6.99206">
        <ele>1121</ele>
        <time>2021-07-31T14:13:38+02:00</time>
      </trkpt>
      <trkpt lat="48.06628" lon="6.99196">
        <ele>1125</ele>
        <time>2021-07-31T14:13:49+02:00</time>
      </trkpt>
      <trkpt lat="48.06646" lon="6.99186">
        <ele>1127</ele>
        <time>2021-07-31T14:14:00+02:00</time>
      </trkpt>
      <trkpt lat="48.06662" lon="6.99173">
        <ele>1123</ele>
        <time>2021-07-31T14:14:18+02:00</time>
      </trkpt>
      <trkpt lat="48.0668" lon="6.99166">
        <ele>1127</ele>
        <time>2021-07-31T14:14:30+02:00</time>
      </trkpt>
      <trkpt lat="48.06698" lon="6.99168">
        <ele>1128</ele>
        <time>2021-07-31T14:14:42+02:00</time>
      </trkpt>
      <trkpt lat="48.06716" lon="6.99159">
        <ele>1131</ele>
        <time>2021-07-31T14:14:55+02:00</time>
      </trkpt>
      <trkpt lat="48.06733" lon="6.99148">
        <ele>1131</ele>
        <time>2021-07-31T14:15:10+02:00</time>
      </trkpt>
      <trkpt lat="48.06748" lon="6.9913">
        <ele>1131</ele>
        <time>2021-07-31T14:15:22+02:00</time>
      </trkpt>
      <trkpt lat="48.06754" lon="6.99104">
        <ele>1125</ele>
        <time>2021-07-31T14:15:36+02:00</time>
      </trkpt>
      <trkpt lat="48.06756" lon="6.99076">
        <ele>1124</ele>
        <time>2021-07-31T14:15:47+02:00</time>
      </trkpt>
      <trkpt lat="48.0675" lon="6.9905">
        <ele>1122</ele>
        <time>2021-07-31T14:16:01+02:00</time>
      </trkpt>
      <trkpt lat="48.06751" lon="6.9902">
        <ele>1121</ele>
        <time>2021-07-31T14:16:16+02:00</time>
      </trkpt>
      <trkpt lat="48.06746" lon="6.98992">
        <ele>1123</ele>
        <time>2021-07-31T14:16:26+02:00</time>
      </trkpt>
      <trkpt lat="48.06745" lon="6.98964">
        <ele>1120</ele>
        <time>2021-07-31T14:16:40+02:00</time>
      </trkpt>
      <trkpt lat="48.06747" lon="6.98938">
        <ele>1119</ele>
        <time>2021-07-31T14:16:48+02:00</time>
      </trkpt>
      <trkpt lat="48.06749" lon="6.98909">
        <ele>1120</ele>
        <time>2021-07-31T14:16:59+02:00</time>
      </trkpt>
      <trkpt lat="48.06744" lon="6.98882">
        <ele>1128</ele>
        <time>2021-07-31T14:17:14+02:00</time>
      </trkpt>
      <trkpt lat="48.06741" lon="6.98855">
        <ele>1130</ele>
        <time>2021-07-31T14:17:26+02:00</time>
      </trkpt>
      <trkpt lat="48.06738" lon="6.98828">
        <ele>1130</ele>
        <time>2021-07-31T14:17:39+02:00</time>
      </trkpt>
      <trkpt lat="48.06732" lon="6.98802">
        <ele>1124</ele>
        <time>2021-07-31T14:17:51+02:00</time>
      </trkpt>
      <trkpt lat="48.06732" lon="6.98775">
        <ele>1124</ele>
        <time>2021-07-31T14:18:05+02:00</time>
      </trkpt>
      <trkpt lat="48.06726" lon="6.9875">
        <ele>1124</ele>
        <time>2021-07-31T14:18:18+02:00</time>
      </trkpt>
      <trkpt lat="48.06721" lon="6.98724">
        <ele>1130</ele>
        <time>2021-07-31T14:18:35+02:00</time>
      </trkpt>
      <trkpt lat="48.06718" lon="6.98694">
        <ele>1127</ele>
        <time>2021-07-31T14:18:46+02:00</time>
      </trkpt>
      <trkpt lat="48.06717" lon="6.98667">
        <ele>1123</ele>
        <time>2021-07-31T14:18:54+02:00</time>
      </trkpt>
      <trkpt lat="48.06717" lon="6.9864">
        <ele>1126</ele>
        <time>2021-07-31T14:19:05+02:00</time>
      </trkpt>
      <trkpt lat="48.06707" lon="6.98617">
        <ele>1132</ele>
        <time>2021-07-31T14:19:17+02:00</time>
      </trkpt>
      <trkpt lat="48.06698" lon="6.98591">
        <ele>1137</ele>
        <time>2021-07-31T14:19:30+02:00</time>
      </trkpt>
      <trkpt lat="48.06692" lon="6.98566">
        <ele>1132</ele>
        <time>2021-07-31T14:19:42+02:00</time>
      </trkpt>
      <trkpt lat="48.06687" lon="6.98539">
        <ele>1133</ele>
        <time>2021-07-31T14:19:57+02:00</time>
      </trkpt>
      <trkpt lat="48.06683" lon="6.98511">
        <ele>1127</ele>
        <time>2021-07-31T14:20:14+02:00</time>
      </trkpt>
      <trkpt lat="48.06677" lon="6.98486">
        <ele>1126</ele>
        <time>2021-07-31T14:20:24+02:00</time>
      </trkpt>
      <trkpt lat="48.06679" lon="6.98458">
        <ele>1120</ele>
        <time>2021-07-31T14:20:38+02:00</time>
      </trkpt>
      <trkpt lat="48.06694" lon="6.9844">
        <ele>1120</ele>
        <time>2021-07-31T14:20:52+02:00</time>
      </trkpt>
      <trkpt lat="48.06709" lon="6.98423">
        <ele>1116</ele>
        <time>2021-07-31T14:21:02+02:00</time>
      </trkpt>
      <trkpt lat="48.06721" lon="6.984">
        <ele>1123</ele>
        <time>2021-07-31T14:21:15+02:00</time>
      </trkpt>
      <trkpt lat="48.06738" lon="6.98388">
        <ele>1121</ele>
        <time>2021-07-31T14:21:29+02:00</time>
      </trkpt>
      <trkpt lat="48.06754" lon="6.98371">
        <ele>1111</ele>
        <time>2021-07-31T14:21:45+02:00</time>
      </trkpt>
      <trkpt lat="48.06767" lon="6.98351">
        <ele>1118</ele>
        <time>2021-07-31T14:21:57+02:00</time>
      </trkpt>
      <trkpt lat="48.06781" lon="6.98331">
        <ele>1125</ele>
        <time>2021-07-31T14:22:10+02:00</time>
      </trkpt>
      <trkpt lat="48.06796" lon="6.98315">
        <ele>1125</ele>
        <time>2021-07-31T14:22:28+02:00</time>
      </trkpt>
      <trkpt lat="48.0681" lon="6.98296">
        <ele>1131</ele>
        <time>2021-07-31T14:22:43+02:00</time>
      </trkpt>
      <trkpt lat="48.0682" lon="6.98271">
        <ele>1127</ele>
        <time>2021-07-31T14:22:56+02:00</time>
      </trkpt>
      <trkpt lat="48.06822" lon="6.98244">
        <ele>1126</ele>
        <time>2021-07-31T14:23:09+02:00</time>
      </trkpt>
      <trkpt lat="48.06825" lon="6.98217">
        <ele>1127</ele>
        <time>2021-07-31T14:23:21+02:00</time>
      </trkpt>
      <trkpt lat="48.06836" lon="6.98194">
        <ele>1120</ele>
        <time>2021-07-31T14:23:36+02:00</time>
      </trkpt>
      <trkpt lat="48.06835" lon="6.98167">
        <ele>1121</ele>
        <time>2021-07-31T14:23:54+02:00</time>
      </trkpt>
      <trkpt lat="48.06832" lon="6.98139">
        <ele>1127</ele>
        <time>2021-07-31T14:24:09+02:00</time>
      </trkpt>
      <trkpt lat="48.06828" lon="6.98113">
        <ele>1128</ele>
        <time>2021-07-31T14:24:42+02:00</time>
      </trkpt>
      <trkpt lat="48.06819" lon="6.98089">
        <ele>1125</ele>
        <time>2021-07-31T14:24:55+02:00</time>
      </trkpt>
      <trkpt lat="48.06814" lon="6.98062">
        <ele>1123</ele>
        <time>2021-07-31T14:25:05+02:00</time>
      </trkpt>
      <trkpt lat="48.06805" lon="6.98037">
        <ele>1126</ele>
        <time>2021-07-31T14:25:19+02:00</time>
      </trkpt>
      <trkpt lat="48.068" lon="6.98009">
        <ele>1123</ele>
        <time>2021-07-31T14:25:32+02:00</time>
      </trkpt>
      <trkpt lat="48.06793" lon="6.97983">
        <ele>1130</ele>
        <time>2021-07-31T14:25:45+02:00</time>
      </trkpt>
      <trkpt lat="48.06785" lon="6.97957">
        <ele>1131</ele>
        <time>2021-07-31T14:25:58+02:00</time>
      </trkpt>
      <trkpt lat="48.06776" lon="6.97932">
        <ele>1134</ele>
        <time>2021-07-31T14:26:12+02:00</time>
      </trkpt>
      <trkpt lat="48.06763" lon="6.97911">
        <ele>1135</ele>
        <time>2021-07-31T14:26:27+02:00</time>
      </trkpt>
      <trkpt lat="48.06756" lon="6.97885">
        <ele>1132</ele>
        <time>2021-07-31T14:26:36+02:00</time>
      </trkpt>
      <trkpt lat="48.06747" lon="6.97859">
        <ele>1135</ele>
        <time>2021-07-31T14:26:45+02:00</time>
      </trkpt>
      <trkpt lat="48.0674" lon="6.97834">
        <ele>1136</ele>
        <time>2021-07-31T14:26:58+02:00</time>
      </trkpt>
      <trkpt lat="48.06732" lon="6.97809">
        <ele>1136</ele>
        <time>2021-07-31T14:27:12+02:00</time>
      </trkpt>
      <trkpt lat="48.06726" lon="6.97783">
        <ele>1138</ele>
        <time>2021-07-31T14:27:24+02:00</time>
      </trkpt>
      <trkpt lat="48.06721" lon="6.97756">
        <ele>1140</ele>
        <time>2021-07-31T14:27:37+02:00</time>
      </trkpt>
      <trkpt lat="48.0672" lon="6.97727">
        <ele>1143</ele>
        <time>2021-07-31T14:27:53+02:00</time>
      </trkpt>
      <trkpt lat="48.06718" lon="6.97698">
        <ele>1140</ele>
        <time>2021-07-31T14:28:02+02:00</time>
      </trkpt>
      <trkpt lat="48.06729" lon="6.97672">
        <ele>1138</ele>
        <time>2021-07-31T14:28:24+02:00</time>
      </trkpt>
      <trkpt lat="48.06739" lon="6.97648">
        <ele>1132</ele>
        <time>2021-07-31T14:28:35+02:00</time>
      </trkpt>
      <trkpt lat="48.06743" lon="6.97621">
        <ele>1137</ele>
        <time>2021-07-31T14:28:44+02:00</time>
      </trkpt>
      <trkpt lat="48.0675" lon="6.97596">
        <ele>1127</ele>
        <time>2021-07-31T14:29:02+02:00</time>
      </trkpt>
      <trkpt lat="48.06757" lon="6.97571">
        <ele>1132</ele>
        <time>2021-07-31T14:29:13+02:00</time>
      </trkpt>
      <trkpt lat="48.06765" lon="6.97546">
        <ele>1125</ele>
        <time>2021-07-31T14:29:26+02:00</time>
      </trkpt>
      <trkpt lat="48.06772" lon="6.9752">
        <ele>1129</ele>
        <time>2021-07-31T14:29:36+02:00</time>
      </trkpt>
      <trkpt lat="48.06775" lon="6.97491">
        <ele>1130</ele>
        <time>2021-07-31T14:29:45+02:00</time>
      </trkpt>
      <trkpt lat="48.06764" lon="6.97469">
        <ele>1133</ele>
        <time>2021-07-31T14:30:06+02:00</time>
      </trkpt>
      <trkpt lat="48.06748" lon="6.9745">
        <ele>1129</ele>
        <time>2021-07-31T14:30:22+02:00</time>
      </trkpt>
      <trkpt lat="48.06731" lon="6.97438">
        <ele>1130</ele>
        <time>2021-07-31T14:30:35+02:00</time>
      </trkpt>
      <trkpt lat="48.06714" lon="6.97426">
        <ele>1140</ele>
        <time>2021-07-31T14:30:53+02:00</time>
      </trkpt>
      <trkpt lat="48.06698" lon="6.97412">
        <ele>1143</ele>
        <time>2021-07-31T14:31:03+02:00</time>
      </trkpt>
      <trkpt lat="48.06683" lon="6.97395">
        <ele>1142</ele>
        <time>2021-07-31T14:31:14+02:00</time>
      </trkpt>
      <trkpt lat="48.06675" lon="6.97371">
        <ele>1138</ele>
        <time>2021-07-31T14:31:25+02:00</time>
      </trkpt>
      <trkpt lat="48.06673" lon="6.97343">
        <ele>1131</ele>
        <time>2021-07-31T14:31:46+02:00</time>
      </trkpt>
      <trkpt lat="48.06683" lon="6.9732">
        <ele>1130</ele>
        <time>2021-07-31T14:31:57+02:00</time>
      </trkpt>
      <trkpt lat="48.06691" lon="6.97294">
        <ele>1127</ele>
        <time>2021-07-31T14:32:07+02:00</time>
      </trkpt>
      <trkpt lat="48.06701" lon="6.97271">
        <ele>1121</ele>
        <time>2021-07-31T14:32:20+02:00</time>
      </trkpt>
      <trkpt lat="48.06706" lon="6.97244">
        <ele>1126</ele>
        <time>2021-07-31T14:32:40+02:00</time>
      </trkpt>
      <trkpt lat="48.0672" lon="6.97224">
        <ele>1120</ele>
        <time>2021-07-31T14:32:51+02:00</time>
      </trkpt>
      <trkpt lat="48.06734" lon="6.97205">
        <ele>1123</ele>
        <time>2021-07-31T14:33:02+02:00</time>
      </trkpt>
      <trkpt lat="48.06747" lon="6.97187">
        <ele>1117</ele>
        <time>2021-07-31T14:33:20+02:00</time>
      </trkpt>
      <trkpt lat="48.06761" lon="6.97168">
        <ele>1118</ele>
        <time>2021-07-31T14:33:33+02:00</time>
      </trkpt>
      <trkpt lat="48.06777" lon="6.97156">
        <ele>1119</ele>
        <time>2021-07-31T14:33:46+02:00</time>
      </trkpt>
      <trkpt lat="48.06791" lon="6.97136">
        <ele>1118</ele>
        <time>2021-07-31T14:33:56+02:00</time>
      </trkpt>
      <trkpt lat="48.06809" lon="6.97133">
        <ele>1111</ele>
        <time>2021-07-31T14:34:07+02:00</time>
      </trkpt>
      <trkpt lat="48.06828" lon="6.97127">
        <ele>1110</ele>
        <time>2021-07-31T14:34:26+02:00</time>
      </trkpt>
      <trkpt lat="48.06846" lon="6.97119">
        <ele>1107</ele>
        <time>2021-07-31T14:34:37+02:00</time>
      </trkpt>
      <trkpt lat="48.06863" lon="6.97109">
        <ele>1108</ele>
        <time>2021-07-31T14:34:50+02:00</time>
      </trkpt>
      <trkpt lat="48.06882" lon="6.97104">
        <ele>1109</ele>
        <time>2021-07-31T14:35:01+02:00</time>
      </trkpt>
      <trkpt lat="48.069" lon="6.97104">
        <ele>1109</ele>
        <time>2021-07-31T14:35:18+02:00</time>
      </trkpt>
      <trkpt lat="48.06916" lon="6.97086">
        <ele>1105</ele>
        <time>2021-07-31T14:35:31+02:00</time>
      </trkpt>
      <trkpt lat="48.06929" lon="6.97067">
        <ele>1104</ele>
        <time>2021-07-31T14:35:58+02:00</time>
      </trkpt>
      <trkpt lat="48.06947" lon="6.97061">
        <ele>1094</ele>
        <time>2021-07-31T14:36:40+02:00</time>
      </trkpt>
      <trkpt lat="48.06965" lon="6.97048">
        <ele>1092</ele>
        <time>2021-07-31T14:37:01+02:00</time>
      </trkpt>
      <trkpt lat="48.06982" lon="6.97039">
        <ele>1103</ele>
        <time>2021-07-31T14:37:40+02:00</time>
      </trkpt>
      <trkpt lat="48.06999" lon="6.97028">
        <ele>1094</ele>
        <time>2021-07-31T14:37:57+02:00</time>
      </trkpt>
      <trkpt lat="48.07016" lon="6.97019">
        <ele>1093</ele>
        <time>2021-07-31T14:38:12+02:00</time>
      </trkpt>
      <trkpt lat="48.07031" lon="6.97002">
        <ele>1091</ele>
        <time>2021-07-31T14:38:26+02:00</time>
      </trkpt>
      <trkpt lat="48.0705" lon="6.96992">
        <ele>1089</ele>
        <time>2021-07-31T14:38:41+02:00</time>
      </trkpt>
      <trkpt lat="48.07068" lon="6.9699">
        <ele>1088</ele>
        <time>2021-07-31T14:38:54+02:00</time>
      </trkpt>
      <trkpt lat="48.07086" lon="6.96983">
        <ele>1087</ele>
        <time>2021-07-31T14:39:10+02:00</time>
      </trkpt>
      <trkpt lat="48.07105" lon="6.96986">
        <ele>1087</ele>
        <time>2021-07-31T14:39:33+02:00</time>
      </trkpt>
      <trkpt lat="48.07123" lon="6.96985">
        <ele>1084</ele>
        <time>2021-07-31T14:39:46+02:00</time>
      </trkpt>
      <trkpt lat="48.0714" lon="6.96975">
        <ele>1086</ele>
        <time>2021-07-31T14:40:03+02:00</time>
      </trkpt>
      <trkpt lat="48.07157" lon="6.96968">
        <ele>1090</ele>
        <time>2021-07-31T14:40:13+02:00</time>
      </trkpt>
      <trkpt lat="48.07175" lon="6.96961">
        <ele>1087</ele>
        <time>2021-07-31T14:40:25+02:00</time>
      </trkpt>
      <trkpt lat="48.07192" lon="6.96947">
        <ele>1084</ele>
        <time>2021-07-31T14:40:44+02:00</time>
      </trkpt>
      <trkpt lat="48.07208" lon="6.96934">
        <ele>1086</ele>
        <time>2021-07-31T14:40:55+02:00</time>
      </trkpt>
      <trkpt lat="48.07224" lon="6.96918">
        <ele>1077</ele>
        <time>2021-07-31T14:41:06+02:00</time>
      </trkpt>
      <trkpt lat="48.07236" lon="6.96896">
        <ele>1086</ele>
        <time>2021-07-31T14:41:24+02:00</time>
      </trkpt>
      <trkpt lat="48.07249" lon="6.96878">
        <ele>1076</ele>
        <time>2021-07-31T14:41:36+02:00</time>
      </trkpt>
      <trkpt lat="48.0726" lon="6.96856">
        <ele>1080</ele>
        <time>2021-07-31T14:41:48+02:00</time>
      </trkpt>
      <trkpt lat="48.07274" lon="6.96837">
        <ele>1087</ele>
        <time>2021-07-31T14:42:05+02:00</time>
      </trkpt>
      <trkpt lat="48.07286" lon="6.96818">
        <ele>1090</ele>
        <time>2021-07-31T14:42:21+02:00</time>
      </trkpt>
      <trkpt lat="48.07299" lon="6.96795">
        <ele>1094</ele>
        <time>2021-07-31T14:42:31+02:00</time>
      </trkpt>
      <trkpt lat="48.07309" lon="6.96771">
        <ele>1098</ele>
        <time>2021-07-31T14:42:44+02:00</time>
      </trkpt>
      <trkpt lat="48.07321" lon="6.96749">
        <ele>1098</ele>
        <time>2021-07-31T14:43:06+02:00</time>
      </trkpt>
      <trkpt lat="48.07339" lon="6.96736">
        <ele>1099</ele>
        <time>2021-07-31T14:43:18+02:00</time>
      </trkpt>
      <trkpt lat="48.07355" lon="6.96723">
        <ele>1103</ele>
        <time>2021-07-31T14:43:34+02:00</time>
      </trkpt>
      <trkpt lat="48.07362" lon="6.96698">
        <ele>1102</ele>
        <time>2021-07-31T14:43:46+02:00</time>
      </trkpt>
      <trkpt lat="48.07368" lon="6.96671">
        <ele>1108</ele>
        <time>2021-07-31T14:44:02+02:00</time>
      </trkpt>
      <trkpt lat="48.07369" lon="6.96641">
        <ele>1112</ele>
        <time>2021-07-31T14:44:20+02:00</time>
      </trkpt>
      <trkpt lat="48.07369" lon="6.96613">
        <ele>1112</ele>
        <time>2021-07-31T14:44:30+02:00</time>
      </trkpt>
      <trkpt lat="48.07371" lon="6.96586">
        <ele>1114</ele>
        <time>2021-07-31T14:44:49+02:00</time>
      </trkpt>
      <trkpt lat="48.07371" lon="6.96557">
        <ele>1114</ele>
        <time>2021-07-31T14:44:59+02:00</time>
      </trkpt>
      <trkpt lat="48.07359" lon="6.96535">
        <ele>1112</ele>
        <time>2021-07-31T14:45:12+02:00</time>
      </trkpt>
      <trkpt lat="48.07344" lon="6.96516">
        <ele>1114</ele>
        <time>2021-07-31T14:45:22+02:00</time>
      </trkpt>
      <trkpt lat="48.07332" lon="6.96494">
        <ele>1122</ele>
        <time>2021-07-31T14:45:37+02:00</time>
      </trkpt>
      <trkpt lat="48.07314" lon="6.96501">
        <ele>1118</ele>
        <time>2021-07-31T14:45:54+02:00</time>
      </trkpt>
      <trkpt lat="48.07295" lon="6.96494">
        <ele>1119</ele>
        <time>2021-07-31T14:46:11+02:00</time>
      </trkpt>
      <trkpt lat="48.0728" lon="6.96509">
        <ele>1115</ele>
        <time>2021-07-31T14:46:20+02:00</time>
      </trkpt>
      <trkpt lat="48.07263" lon="6.96517">
        <ele>1121</ele>
        <time>2021-07-31T14:46:40+02:00</time>
      </trkpt>
      <trkpt lat="48.07245" lon="6.96507">
        <ele>1109</ele>
        <time>2021-07-31T14:47:04+02:00</time>
      </trkpt>
      <trkpt lat="48.07226" lon="6.96507">
        <ele>1104</ele>
        <time>2021-07-31T14:47:21+02:00</time>
      </trkpt>
      <trkpt lat="48.07207" lon="6.96505">
        <ele>1096</ele>
        <time>2021-07-31T14:48:04+02:00</time>
      </trkpt>
      <trkpt lat="48.07189" lon="6.96507">
        <ele>1085</ele>
        <time>2021-07-31T14:48:26+02:00</time>
      </trkpt>
      <trkpt lat="48.07181" lon="6.96483">
        <ele>1087</ele>
        <time>2021-07-31T14:48:38+02:00</time>
      </trkpt>
      <trkpt lat="48.0718" lon="6.96453">
        <ele>1071</ele>
        <time>2021-07-31T14:48:49+02:00</time>
      </trkpt>
      <trkpt lat="48.07186" lon="6.96427">
        <ele>1065</ele>
        <time>2021-07-31T14:49:00+02:00</time>
      </trkpt>
      <trkpt lat="48.07193" lon="6.96402">
        <ele>1047</ele>
        <time>2021-07-31T14:49:12+02:00</time>
      </trkpt>
      <trkpt lat="48.07195" lon="6.96375">
        <ele>1051</ele>
        <time>2021-07-31T14:49:29+02:00</time>
      </trkpt>
      <trkpt lat="48.07199" lon="6.96349">
        <ele>1052</ele>
        <time>2021-07-31T14:49:45+02:00</time>
      </trkpt>
      <trkpt lat="48.07199" lon="6.9632">
        <ele>1060</ele>
        <time>2021-07-31T14:50:00+02:00</time>
      </trkpt>
      <trkpt lat="48.07206" lon="6.96293">
        <ele>1052</ele>
        <time>2021-07-31T14:50:15+02:00</time>
      </trkpt>
      <trkpt lat="48.07214" lon="6.96268">
        <ele>1048</ele>
        <time>2021-07-31T14:50:30+02:00</time>
      </trkpt>
      <trkpt lat="48.07211" lon="6.9624">
        <ele>1057</ele>
        <time>2021-07-31T14:50:45+02:00</time>
      </trkpt>
      <trkpt lat="48.07209" lon="6.96213">
        <ele>1061</ele>
        <time>2021-07-31T14:50:58+02:00</time>
      </trkpt>
      <trkpt lat="48.07209" lon="6.96185">
        <ele>1055</ele>
        <time>2021-07-31T14:51:11+02:00</time>
      </trkpt>
      <trkpt lat="48.07211" lon="6.96157">
        <ele>1060</ele>
        <time>2021-07-31T14:51:26+02:00</time>
      </trkpt>
      <trkpt lat="48.07219" lon="6.96131">
        <ele>1052</ele>
        <time>2021-07-31T14:51:40+02:00</time>
      </trkpt>
      <trkpt lat="48.07226" lon="6.96105">
        <ele>1045</ele>
        <time>2021-07-31T14:51:54+02:00</time>
      </trkpt>
      <trkpt lat="48.07233" lon="6.96079">
        <ele>1037</ele>
        <time>2021-07-31T14:52:13+02:00</time>
      </trkpt>
      <trkpt lat="48.07242" lon="6.96054">
        <ele>1033</ele>
        <time>2021-07-31T14:52:30+02:00</time>
      </trkpt>
      <trkpt lat="48.07254" lon="6.96033">
        <ele>1034</ele>
        <time>2021-07-31T14:52:47+02:00</time>
      </trkpt>
      <trkpt lat="48.07268" lon="6.96014">
        <ele>1032</ele>
        <time>2021-07-31T14:53:04+02:00</time>
      </trkpt>
      <trkpt lat="48.07279" lon="6.95993">
        <ele>1028</ele>
        <time>2021-07-31T14:53:19+02:00</time>
      </trkpt>
      <trkpt lat="48.0729" lon="6.95971">
        <ele>1029</ele>
        <time>2021-07-31T14:53:36+02:00</time>
      </trkpt>
      <trkpt lat="48.07294" lon="6.95944">
        <ele>1037</ele>
        <time>2021-07-31T14:53:52+02:00</time>
      </trkpt>
      <trkpt lat="48.07301" lon="6.95918">
        <ele>1022</ele>
        <time>2021-07-31T14:54:14+02:00</time>
      </trkpt>
      <trkpt lat="48.07303" lon="6.9589">
        <ele>1019</ele>
        <time>2021-07-31T14:54:38+02:00</time>
      </trkpt>
      <trkpt lat="48.07304" lon="6.95863">
        <ele>998</ele>
        <time>2021-07-31T14:55:11+02:00</time>
      </trkpt>
      <trkpt lat="48.07305" lon="6.95836">
        <ele>1012</ele>
        <time>2021-07-31T14:55:31+02:00</time>
      </trkpt>
      <trkpt lat="48.07288" lon="6.95826">
        <ele>1007</ele>
        <time>2021-07-31T14:56:04+02:00</time>
      </trkpt>
      <trkpt lat="48.0727" lon="6.95831">
        <ele>1008</ele>
        <time>2021-07-31T14:56:18+02:00</time>
      </trkpt>
      <trkpt lat="48.07256" lon="6.95847">
        <ele>1006</ele>
        <time>2021-07-31T14:56:38+02:00</time>
      </trkpt>
      <trkpt lat="48.07239" lon="6.95858">
        <ele>1005</ele>
        <time>2021-07-31T14:56:53+02:00</time>
      </trkpt>
      <trkpt lat="48.07221" lon="6.95866">
        <ele>1000</ele>
        <time>2021-07-31T14:57:27+02:00</time>
      </trkpt>
      <trkpt lat="48.0721" lon="6.95887">
        <ele>986</ele>
        <time>2021-07-31T14:57:46+02:00</time>
      </trkpt>
      <trkpt lat="48.07193" lon="6.95898">
        <ele>981</ele>
        <time>2021-07-31T14:58:03+02:00</time>
      </trkpt>
      <trkpt lat="48.0718" lon="6.95918">
        <ele>971</ele>
        <time>2021-07-31T14:58:23+02:00</time>
      </trkpt>
      <trkpt lat="48.07166" lon="6.95937">
        <ele>965</ele>
        <time>2021-07-31T14:58:38+02:00</time>
      </trkpt>
      <trkpt lat="48.07151" lon="6.95953">
        <ele>970</ele>
        <time>2021-07-31T14:58:52+02:00</time>
      </trkpt>
      <trkpt lat="48.07135" lon="6.95968">
        <ele>966</ele>
        <time>2021-07-31T14:59:09+02:00</time>
      </trkpt>
      <trkpt lat="48.0712" lon="6.95983">
        <ele>965</ele>
        <time>2021-07-31T14:59:26+02:00</time>
      </trkpt>
      <trkpt lat="48.07108" lon="6.96005">
        <ele>966</ele>
        <time>2021-07-31T14:59:42+02:00</time>
      </trkpt>
      <trkpt lat="48.07098" lon="6.96028">
        <ele>962</ele>
        <time>2021-07-31T14:59:53+02:00</time>
      </trkpt>
      <trkpt lat="48.07086" lon="6.96048">
        <ele>958</ele>
        <time>2021-07-31T15:00:08+02:00</time>
      </trkpt>
      <trkpt lat="48.07076" lon="6.96071">
        <ele>953</ele>
        <time>2021-07-31T15:00:20+02:00</time>
      </trkpt>
      <trkpt lat="48.07064" lon="6.96092">
        <ele>955</ele>
        <time>2021-07-31T15:00:36+02:00</time>
      </trkpt>
      <trkpt lat="48.07048" lon="6.96105">
        <ele>956</ele>
        <time>2021-07-31T15:00:49+02:00</time>
      </trkpt>
      <trkpt lat="48.07035" lon="6.96124">
        <ele>951</ele>
        <time>2021-07-31T15:01:06+02:00</time>
      </trkpt>
      <trkpt lat="48.07021" lon="6.96144">
        <ele>952</ele>
        <time>2021-07-31T15:01:20+02:00</time>
      </trkpt>
      <trkpt lat="48.0701" lon="6.96167">
        <ele>950</ele>
        <time>2021-07-31T15:01:38+02:00</time>
      </trkpt>
      <trkpt lat="48.06999" lon="6.96188">
        <ele>945</ele>
        <time>2021-07-31T15:01:49+02:00</time>
      </trkpt>
      <trkpt lat="48.06987" lon="6.96208">
        <ele>946</ele>
        <time>2021-07-31T15:02:02+02:00</time>
      </trkpt>
      <trkpt lat="48.06978" lon="6.96235">
        <ele>948</ele>
        <time>2021-07-31T15:02:19+02:00</time>
      </trkpt>
      <trkpt lat="48.0697" lon="6.96259">
        <ele>949</ele>
        <time>2021-07-31T15:02:30+02:00</time>
      </trkpt>
      <trkpt lat="48.06962" lon="6.96285">
        <ele>951</ele>
        <time>2021-07-31T15:02:46+02:00</time>
      </trkpt>
      <trkpt lat="48.06949" lon="6.96304">
        <ele>954</ele>
        <time>2021-07-31T15:03:04+02:00</time>
      </trkpt>
      <trkpt lat="48.06941" lon="6.96329">
        <ele>946</ele>
        <time>2021-07-31T15:04:02+02:00</time>
      </trkpt>
      <trkpt lat="48.06927" lon="6.96346">
        <ele>945</ele>
        <time>2021-07-31T15:04:27+02:00</time>
      </trkpt>
      <trkpt lat="48.06915" lon="6.96366">
        <ele>945</ele>
        <time>2021-07-31T15:04:43+02:00</time>
      </trkpt>
      <trkpt lat="48.06905" lon="6.9639">
        <ele>941</ele>
        <time>2021-07-31T15:04:52+02:00</time>
      </trkpt>
      <trkpt lat="48.06895" lon="6.96414">
        <ele>943</ele>
        <time>2021-07-31T15:05:03+02:00</time>
      </trkpt>
      <trkpt lat="48.06884" lon="6.96435">
        <ele>940</ele>
        <time>2021-07-31T15:05:12+02:00</time>
      </trkpt>
      <trkpt lat="48.06875" lon="6.9646">
        <ele>942</ele>
        <time>2021-07-31T15:05:25+02:00</time>
      </trkpt>
      <trkpt lat="48.06871" lon="6.96487">
        <ele>939</ele>
        <time>2021-07-31T15:05:46+02:00</time>
      </trkpt>
      <trkpt lat="48.06872" lon="6.96515">
        <ele>938</ele>
        <time>2021-07-31T15:06:00+02:00</time>
      </trkpt>
      <trkpt lat="48.0686" lon="6.96537">
        <ele>938</ele>
        <time>2021-07-31T15:06:13+02:00</time>
      </trkpt>
      <trkpt lat="48.06843" lon="6.9655">
        <ele>935</ele>
        <time>2021-07-31T15:06:23+02:00</time>
      </trkpt>
      <trkpt lat="48.06831" lon="6.96571">
        <ele>933</ele>
        <time>2021-07-31T15:06:35+02:00</time>
      </trkpt>
      <trkpt lat="48.06818" lon="6.96591">
        <ele>932</ele>
        <time>2021-07-31T15:06:47+02:00</time>
      </trkpt>
      <trkpt lat="48.06809" lon="6.96615">
        <ele>928</ele>
        <time>2021-07-31T15:06:59+02:00</time>
      </trkpt>
      <trkpt lat="48.06792" lon="6.96628">
        <ele>925</ele>
        <time>2021-07-31T15:07:15+02:00</time>
      </trkpt>
      <trkpt lat="48.06774" lon="6.96635">
        <ele>922</ele>
        <time>2021-07-31T15:07:28+02:00</time>
      </trkpt>
      <trkpt lat="48.06757" lon="6.96628">
        <ele>922</ele>
        <time>2021-07-31T15:07:51+02:00</time>
      </trkpt>
      <trkpt lat="48.06753" lon="6.96602">
        <ele>912</ele>
        <time>2021-07-31T15:08:08+02:00</time>
      </trkpt>
      <trkpt lat="48.06736" lon="6.96586">
        <ele>913</ele>
        <time>2021-07-31T15:08:35+02:00</time>
      </trkpt>
      <trkpt lat="48.06719" lon="6.96576">
        <ele>904</ele>
        <time>2021-07-31T15:08:49+02:00</time>
      </trkpt>
      <trkpt lat="48.06702" lon="6.96564">
        <ele>901</ele>
        <time>2021-07-31T15:09:09+02:00</time>
      </trkpt>
      <trkpt lat="48.06691" lon="6.96542">
        <ele>895</ele>
        <time>2021-07-31T15:09:33+02:00</time>
      </trkpt>
      <trkpt lat="48.06688" lon="6.96515">
        <ele>894</ele>
        <time>2021-07-31T15:09:52+02:00</time>
      </trkpt>
      <trkpt lat="48.06681" lon="6.9649">
        <ele>890</ele>
        <time>2021-07-31T15:10:11+02:00</time>
      </trkpt>
      <trkpt lat="48.06662" lon="6.96485">
        <ele>876</ele>
        <time>2021-07-31T15:10:31+02:00</time>
      </trkpt>
      <trkpt lat="48.06644" lon="6.96491">
        <ele>870</ele>
        <time>2021-07-31T15:10:48+02:00</time>
      </trkpt>
      <trkpt lat="48.0663" lon="6.96473">
        <ele>863</ele>
        <time>2021-07-31T15:11:37+02:00</time>
      </trkpt>
      <trkpt lat="48.06612" lon="6.96471">
        <ele>862</ele>
        <time>2021-07-31T15:11:49+02:00</time>
      </trkpt>
      <trkpt lat="48.06594" lon="6.96469">
        <ele>857</ele>
        <time>2021-07-31T15:12:02+02:00</time>
      </trkpt>
      <trkpt lat="48.06577" lon="6.96479">
        <ele>841</ele>
        <time>2021-07-31T15:12:25+02:00</time>
      </trkpt>
      <trkpt lat="48.06581" lon="6.96451">
        <ele>838</ele>
        <time>2021-07-31T15:12:42+02:00</time>
      </trkpt>
      <trkpt lat="48.06595" lon="6.96434">
        <ele>835</ele>
        <time>2021-07-31T15:12:56+02:00</time>
      </trkpt>
      <trkpt lat="48.06613" lon="6.9642">
        <ele>836</ele>
        <time>2021-07-31T15:13:08+02:00</time>
      </trkpt>
      <trkpt lat="48.06626" lon="6.96402">
        <ele>840</ele>
        <time>2021-07-31T15:13:22+02:00</time>
      </trkpt>
      <trkpt lat="48.06642" lon="6.96386">
        <ele>829</ele>
        <time>2021-07-31T15:13:44+02:00</time>
      </trkpt>
      <trkpt lat="48.06653" lon="6.96365">
        <ele>833</ele>
        <time>2021-07-31T15:13:54+02:00</time>
      </trkpt>
      <trkpt lat="48.06664" lon="6.96343">
        <ele>835</ele>
        <time>2021-07-31T15:14:07+02:00</time>
      </trkpt>
      <trkpt lat="48.06677" lon="6.96323">
        <ele>835</ele>
        <time>2021-07-31T15:14:20+02:00</time>
      </trkpt>
      <trkpt lat="48.06682" lon="6.96296">
        <ele>830</ele>
        <time>2021-07-31T15:14:36+02:00</time>
      </trkpt>
      <trkpt lat="48.06683" lon="6.96268">
        <ele>828</ele>
        <time>2021-07-31T15:14:58+02:00</time>
      </trkpt>
      <trkpt lat="48.06688" lon="6.9624">
        <ele>836</ele>
        <time>2021-07-31T15:15:10+02:00</time>
      </trkpt>
      <trkpt lat="48.06691" lon="6.96212">
        <ele>829</ele>
        <time>2021-07-31T15:15:33+02:00</time>
      </trkpt>
      <trkpt lat="48.06693" lon="6.96184">
        <ele>825</ele>
        <time>2021-07-31T15:15:45+02:00</time>
      </trkpt>
      <trkpt lat="48.06696" lon="6.96157">
        <ele>815</ele>
        <time>2021-07-31T15:16:02+02:00</time>
      </trkpt>
      <trkpt lat="48.06693" lon="6.96131">
        <ele>815</ele>
        <time>2021-07-31T15:16:28+02:00</time>
      </trkpt>
      <trkpt lat="48.06679" lon="6.96111">
        <ele>810</ele>
        <time>2021-07-31T15:16:51+02:00</time>
      </trkpt>
      <trkpt lat="48.06671" lon="6.96084">
        <ele>817</ele>
        <time>2021-07-31T15:17:09+02:00</time>
      </trkpt>
      <trkpt lat="48.06673" lon="6.96057">
        <ele>815</ele>
        <time>2021-07-31T15:17:19+02:00</time>
      </trkpt>
      <trkpt lat="48.0666" lon="6.96039">
        <ele>807</ele>
        <time>2021-07-31T15:17:43+02:00</time>
      </trkpt>
      <trkpt lat="48.06652" lon="6.96014">
        <ele>807</ele>
        <time>2021-07-31T15:18:04+02:00</time>
      </trkpt>
      <trkpt lat="48.06656" lon="6.95986">
        <ele>788</ele>
        <time>2021-07-31T15:18:24+02:00</time>
      </trkpt>
      <trkpt lat="48.06658" lon="6.95957">
        <ele>788</ele>
        <time>2021-07-31T15:18:36+02:00</time>
      </trkpt>
      <trkpt lat="48.0664" lon="6.95947">
        <ele>779</ele>
        <time>2021-07-31T15:19:05+02:00</time>
      </trkpt>
      <trkpt lat="48.06623" lon="6.95956">
        <ele>777</ele>
        <time>2021-07-31T15:19:19+02:00</time>
      </trkpt>
      <trkpt lat="48.06607" lon="6.95942">
        <ele>774</ele>
        <time>2021-07-31T15:21:37+02:00</time>
      </trkpt>
      <trkpt lat="48.06518" lon="6.95837">
        <ele>768</ele>
        <time>2021-07-31T15:41:40+02:00</time>
      </trkpt>
      <trkpt lat="48.06506" lon="6.95817">
        <ele>774</ele>
        <time>2021-07-31T15:41:48+02:00</time>
      </trkpt>
      <trkpt lat="48.06496" lon="6.95793">
        <ele>778</ele>
        <time>2021-07-31T15:42:05+02:00</time>
      </trkpt>
      <trkpt lat="48.06482" lon="6.95775">
        <ele>779</ele>
        <time>2021-07-31T15:42:15+02:00</time>
      </trkpt>
      <trkpt lat="48.06466" lon="6.95757">
        <ele>775</ele>
        <time>2021-07-31T15:42:27+02:00</time>
      </trkpt>
      <trkpt lat="48.06469" lon="6.95784">
        <ele>782</ele>
        <time>2021-07-31T15:42:50+02:00</time>
      </trkpt>
      <trkpt lat="48.0647" lon="6.95811">
        <ele>783</ele>
        <time>2021-07-31T15:43:03+02:00</time>
      </trkpt>
      <trkpt lat="48.06452" lon="6.95817">
        <ele>781</ele>
        <time>2021-07-31T15:43:17+02:00</time>
      </trkpt>
      <trkpt lat="48.06435" lon="6.95824">
        <ele>776</ele>
        <time>2021-07-31T15:43:27+02:00</time>
      </trkpt>
      <trkpt lat="48.06419" lon="6.95843">
        <ele>784</ele>
        <time>2021-07-31T15:43:41+02:00</time>
      </trkpt>
      <trkpt lat="48.06403" lon="6.95856">
        <ele>783</ele>
        <time>2021-07-31T15:43:54+02:00</time>
      </trkpt>
      <trkpt lat="48.06392" lon="6.95878">
        <ele>783</ele>
        <time>2021-07-31T15:44:08+02:00</time>
      </trkpt>
      <trkpt lat="48.06381" lon="6.95899">
        <ele>781</ele>
        <time>2021-07-31T15:44:19+02:00</time>
      </trkpt>
      <trkpt lat="48.06373" lon="6.95924">
        <ele>780</ele>
        <time>2021-07-31T15:44:35+02:00</time>
      </trkpt>
      <trkpt lat="48.06364" lon="6.95948">
        <ele>783</ele>
        <time>2021-07-31T15:44:50+02:00</time>
      </trkpt>
      <trkpt lat="48.06353" lon="6.95972">
        <ele>783</ele>
        <time>2021-07-31T15:45:04+02:00</time>
      </trkpt>
      <trkpt lat="48.06347" lon="6.95999">
        <ele>783</ele>
        <time>2021-07-31T15:45:17+02:00</time>
      </trkpt>
      <trkpt lat="48.06335" lon="6.96022">
        <ele>780</ele>
        <time>2021-07-31T15:45:34+02:00</time>
      </trkpt>
      <trkpt lat="48.06323" lon="6.96042">
        <ele>781</ele>
        <time>2021-07-31T15:45:44+02:00</time>
      </trkpt>
      <trkpt lat="48.06312" lon="6.96067">
        <ele>782</ele>
        <time>2021-07-31T15:45:58+02:00</time>
      </trkpt>
      <trkpt lat="48.06301" lon="6.9609">
        <ele>789</ele>
        <time>2021-07-31T15:46:11+02:00</time>
      </trkpt>
      <trkpt lat="48.06288" lon="6.96108">
        <ele>784</ele>
        <time>2021-07-31T15:46:24+02:00</time>
      </trkpt>
      <trkpt lat="48.0628" lon="6.96133">
        <ele>783</ele>
        <time>2021-07-31T15:46:37+02:00</time>
      </trkpt>
      <trkpt lat="48.06265" lon="6.96152">
        <ele>788</ele>
        <time>2021-07-31T15:46:48+02:00</time>
      </trkpt>
      <trkpt lat="48.06248" lon="6.96161">
        <ele>788</ele>
        <time>2021-07-31T15:46:59+02:00</time>
      </trkpt>
      <trkpt lat="48.06231" lon="6.96172">
        <ele>784</ele>
        <time>2021-07-31T15:47:13+02:00</time>
      </trkpt>
      <trkpt lat="48.06222" lon="6.96196">
        <ele>784</ele>
        <time>2021-07-31T15:47:24+02:00</time>
      </trkpt>
      <trkpt lat="48.06211" lon="6.96219">
        <ele>786</ele>
        <time>2021-07-31T15:47:34+02:00</time>
      </trkpt>
      <trkpt lat="48.06203" lon="6.96243">
        <ele>785</ele>
        <time>2021-07-31T15:47:51+02:00</time>
      </trkpt>
      <trkpt lat="48.06203" lon="6.9627">
        <ele>783</ele>
        <time>2021-07-31T15:48:05+02:00</time>
      </trkpt>
      <trkpt lat="48.06202" lon="6.96297">
        <ele>786</ele>
        <time>2021-07-31T15:48:15+02:00</time>
      </trkpt>
      <trkpt lat="48.06201" lon="6.96326">
        <ele>787</ele>
        <time>2021-07-31T15:48:28+02:00</time>
      </trkpt>
      <trkpt lat="48.06196" lon="6.96352">
        <ele>784</ele>
        <time>2021-07-31T15:48:42+02:00</time>
      </trkpt>
      <trkpt lat="48.06177" lon="6.96355">
        <ele>788</ele>
        <time>2021-07-31T15:49:02+02:00</time>
      </trkpt>
      <trkpt lat="48.06159" lon="6.96351">
        <ele>787</ele>
        <time>2021-07-31T15:49:15+02:00</time>
      </trkpt>
      <trkpt lat="48.06141" lon="6.96358">
        <ele>786</ele>
        <time>2021-07-31T15:49:29+02:00</time>
      </trkpt>
      <trkpt lat="48.06124" lon="6.96368">
        <ele>784</ele>
        <time>2021-07-31T15:49:40+02:00</time>
      </trkpt>
      <trkpt lat="48.06115" lon="6.96392">
        <ele>784</ele>
        <time>2021-07-31T15:49:49+02:00</time>
      </trkpt>
      <trkpt lat="48.06113" lon="6.96419">
        <ele>790</ele>
        <time>2021-07-31T15:49:59+02:00</time>
      </trkpt>
      <trkpt lat="48.06112" lon="6.96448">
        <ele>786</ele>
        <time>2021-07-31T15:50:12+02:00</time>
      </trkpt>
      <trkpt lat="48.06108" lon="6.96477">
        <ele>784</ele>
        <time>2021-07-31T15:50:25+02:00</time>
      </trkpt>
      <trkpt lat="48.06109" lon="6.96504">
        <ele>783</ele>
        <time>2021-07-31T15:50:38+02:00</time>
      </trkpt>
      <trkpt lat="48.06105" lon="6.96531">
        <ele>787</ele>
        <time>2021-07-31T15:52:45+02:00</time>
      </trkpt>
      <trkpt lat="48.06106" lon="6.96562">
        <ele>785</ele>
        <time>2021-07-31T15:52:55+02:00</time>
      </trkpt>
      <trkpt lat="48.06104" lon="6.9659">
        <ele>787</ele>
        <time>2021-07-31T15:53:02+02:00</time>
      </trkpt>
      <trkpt lat="48.06097" lon="6.96619">
        <ele>792</ele>
        <time>2021-07-31T15:53:13+02:00</time>
      </trkpt>
      <trkpt lat="48.06102" lon="6.96645">
        <ele>795</ele>
        <time>2021-07-31T15:53:25+02:00</time>
      </trkpt>
      <trkpt lat="48.06098" lon="6.96672">
        <ele>790</ele>
        <time>2021-07-31T15:53:38+02:00</time>
      </trkpt>
      <trkpt lat="48.06096" lon="6.96699">
        <ele>793</ele>
        <time>2021-07-31T15:53:48+02:00</time>
      </trkpt>
      <trkpt lat="48.06085" lon="6.96722">
        <ele>795</ele>
        <time>2021-07-31T15:54:01+02:00</time>
      </trkpt>
      <trkpt lat="48.06079" lon="6.96749">
        <ele>797</ele>
        <time>2021-07-31T15:54:16+02:00</time>
      </trkpt>
      <trkpt lat="48.06075" lon="6.96777">
        <ele>795</ele>
        <time>2021-07-31T15:54:28+02:00</time>
      </trkpt>
      <trkpt lat="48.06065" lon="6.96803">
        <ele>785</ele>
        <time>2021-07-31T15:54:41+02:00</time>
      </trkpt>
      <trkpt lat="48.0606" lon="6.9683">
        <ele>787</ele>
        <time>2021-07-31T15:54:50+02:00</time>
      </trkpt>
      <trkpt lat="48.06052" lon="6.96856">
        <ele>793</ele>
        <time>2021-07-31T15:55:08+02:00</time>
      </trkpt>
      <trkpt lat="48.06055" lon="6.96885">
        <ele>792</ele>
        <time>2021-07-31T15:55:19+02:00</time>
      </trkpt>
      <trkpt lat="48.06053" lon="6.96912">
        <ele>788</ele>
        <time>2021-07-31T15:55:27+02:00</time>
      </trkpt>
      <trkpt lat="48.06047" lon="6.96939">
        <ele>786</ele>
        <time>2021-07-31T15:55:40+02:00</time>
      </trkpt>
      <trkpt lat="48.06039" lon="6.96966">
        <ele>785</ele>
        <time>2021-07-31T15:55:52+02:00</time>
      </trkpt>
      <trkpt lat="48.0604" lon="6.96993">
        <ele>794</ele>
        <time>2021-07-31T15:56:04+02:00</time>
      </trkpt>
      <trkpt lat="48.06041" lon="6.97021">
        <ele>798</ele>
        <time>2021-07-31T15:56:15+02:00</time>
      </trkpt>
      <trkpt lat="48.06038" lon="6.97048">
        <ele>800</ele>
        <time>2021-07-31T15:56:25+02:00</time>
      </trkpt>
      <trkpt lat="48.06031" lon="6.97073">
        <ele>799</ele>
        <time>2021-07-31T15:56:40+02:00</time>
      </trkpt>
      <trkpt lat="48.06024" lon="6.971">
        <ele>796</ele>
        <time>2021-07-31T15:56:54+02:00</time>
      </trkpt>
      <trkpt lat="48.06018" lon="6.97126">
        <ele>797</ele>
        <time>2021-07-31T15:57:06+02:00</time>
      </trkpt>
      <trkpt lat="48.06007" lon="6.97149">
        <ele>791</ele>
        <time>2021-07-31T15:57:17+02:00</time>
      </trkpt>
      <trkpt lat="48.05992" lon="6.97168">
        <ele>791</ele>
        <time>2021-07-31T15:57:30+02:00</time>
      </trkpt>
      <trkpt lat="48.05973" lon="6.97173">
        <ele>792</ele>
        <time>2021-07-31T15:57:36+02:00</time>
      </trkpt>
      <trkpt lat="48.05961" lon="6.97192">
        <ele>798</ele>
        <time>2021-07-31T15:57:46+02:00</time>
      </trkpt>
      <trkpt lat="48.05966" lon="6.9722">
        <ele>802</ele>
        <time>2021-07-31T15:57:53+02:00</time>
      </trkpt>
      <trkpt lat="48.05968" lon="6.97249">
        <ele>808</ele>
        <time>2021-07-31T15:58:03+02:00</time>
      </trkpt>
      <trkpt lat="48.05968" lon="6.97278">
        <ele>813</ele>
        <time>2021-07-31T15:58:16+02:00</time>
      </trkpt>
      <trkpt lat="48.05979" lon="6.973">
        <ele>811</ele>
        <time>2021-07-31T15:58:26+02:00</time>
      </trkpt>
      <trkpt lat="48.05987" lon="6.97324">
        <ele>820</ele>
        <time>2021-07-31T15:58:35+02:00</time>
      </trkpt>
      <trkpt lat="48.05984" lon="6.97352">
        <ele>809</ele>
        <time>2021-07-31T15:58:54+02:00</time>
      </trkpt>
      <trkpt lat="48.05969" lon="6.97372">
        <ele>802</ele>
        <time>2021-07-31T15:59:08+02:00</time>
      </trkpt>
      <trkpt lat="48.05965" lon="6.974">
        <ele>800</ele>
        <time>2021-07-31T15:59:18+02:00</time>
      </trkpt>
      <trkpt lat="48.05961" lon="6.97428">
        <ele>799</ele>
        <time>2021-07-31T15:59:29+02:00</time>
      </trkpt>
      <trkpt lat="48.05967" lon="6.97454">
        <ele>799</ele>
        <time>2021-07-31T15:59:45+02:00</time>
      </trkpt>
      <trkpt lat="48.05967" lon="6.97482">
        <ele>804</ele>
        <time>2021-07-31T15:59:54+02:00</time>
      </trkpt>
      <trkpt lat="48.05964" lon="6.97511">
        <ele>801</ele>
        <time>2021-07-31T16:00:05+02:00</time>
      </trkpt>
      <trkpt lat="48.05965" lon="6.97538">
        <ele>805</ele>
        <time>2021-07-31T16:00:15+02:00</time>
      </trkpt>
      <trkpt lat="48.0596" lon="6.97563">
        <ele>799</ele>
        <time>2021-07-31T16:00:30+02:00</time>
      </trkpt>
      <trkpt lat="48.05959" lon="6.97591">
        <ele>799</ele>
        <time>2021-07-31T16:00:45+02:00</time>
      </trkpt>
      <trkpt lat="48.05955" lon="6.97617">
        <ele>792</ele>
        <time>2021-07-31T16:00:58+02:00</time>
      </trkpt>
      <trkpt lat="48.05942" lon="6.97638">
        <ele>788</ele>
        <time>2021-07-31T16:01:11+02:00</time>
      </trkpt>
      <trkpt lat="48.05933" lon="6.97661">
        <ele>793</ele>
        <time>2021-07-31T16:01:22+02:00</time>
      </trkpt>
      <trkpt lat="48.05921" lon="6.97683">
        <ele>794</ele>
        <time>2021-07-31T16:01:33+02:00</time>
      </trkpt>
      <trkpt lat="48.05917" lon="6.97709">
        <ele>794</ele>
        <time>2021-07-31T16:01:43+02:00</time>
      </trkpt>
      <trkpt lat="48.05904" lon="6.9773">
        <ele>796</ele>
        <time>2021-07-31T16:01:55+02:00</time>
      </trkpt>
      <trkpt lat="48.05891" lon="6.97751">
        <ele>801</ele>
        <time>2021-07-31T16:02:08+02:00</time>
      </trkpt>
      <trkpt lat="48.05874" lon="6.97763">
        <ele>802</ele>
        <time>2021-07-31T16:02:19+02:00</time>
      </trkpt>
      <trkpt lat="48.05858" lon="6.97777">
        <ele>808</ele>
        <time>2021-07-31T16:02:29+02:00</time>
      </trkpt>
      <trkpt lat="48.05847" lon="6.97799">
        <ele>805</ele>
        <time>2021-07-31T16:02:38+02:00</time>
      </trkpt>
      <trkpt lat="48.05835" lon="6.9782">
        <ele>814</ele>
        <time>2021-07-31T16:02:50+02:00</time>
      </trkpt>
      <trkpt lat="48.05836" lon="6.97848">
        <ele>814</ele>
        <time>2021-07-31T16:03:03+02:00</time>
      </trkpt>
      <trkpt lat="48.05839" lon="6.97876">
        <ele>816</ele>
        <time>2021-07-31T16:03:13+02:00</time>
      </trkpt>
      <trkpt lat="48.05841" lon="6.97903">
        <ele>810</ele>
        <time>2021-07-31T16:03:29+02:00</time>
      </trkpt>
      <trkpt lat="48.0583" lon="6.97924">
        <ele>808</ele>
        <time>2021-07-31T16:03:45+02:00</time>
      </trkpt>
      <trkpt lat="48.05821" lon="6.97949">
        <ele>812</ele>
        <time>2021-07-31T16:03:55+02:00</time>
      </trkpt>
      <trkpt lat="48.05814" lon="6.97976">
        <ele>821</ele>
        <time>2021-07-31T16:04:08+02:00</time>
      </trkpt>
      <trkpt lat="48.0581" lon="6.98003">
        <ele>823</ele>
        <time>2021-07-31T16:04:18+02:00</time>
      </trkpt>
      <trkpt lat="48.05805" lon="6.98032">
        <ele>822</ele>
        <time>2021-07-31T16:04:28+02:00</time>
      </trkpt>
      <trkpt lat="48.05806" lon="6.98059">
        <ele>825</ele>
        <time>2021-07-31T16:04:41+02:00</time>
      </trkpt>
      <trkpt lat="48.05812" lon="6.98089">
        <ele>825</ele>
        <time>2021-07-31T16:04:55+02:00</time>
      </trkpt>
      <trkpt lat="48.0581" lon="6.98116">
        <ele>820</ele>
        <time>2021-07-31T16:05:11+02:00</time>
      </trkpt>
      <trkpt lat="48.05808" lon="6.98145">
        <ele>824</ele>
        <time>2021-07-31T16:05:25+02:00</time>
      </trkpt>
      <trkpt lat="48.05809" lon="6.98172">
        <ele>818</ele>
        <time>2021-07-31T16:05:37+02:00</time>
      </trkpt>
      <trkpt lat="48.05796" lon="6.98192">
        <ele>819</ele>
        <time>2021-07-31T16:05:53+02:00</time>
      </trkpt>
      <trkpt lat="48.05778" lon="6.98196">
        <ele>815</ele>
        <time>2021-07-31T16:06:05+02:00</time>
      </trkpt>
      <trkpt lat="48.05762" lon="6.98209">
        <ele>823</ele>
        <time>2021-07-31T16:06:19+02:00</time>
      </trkpt>
      <trkpt lat="48.05744" lon="6.98213">
        <ele>824</ele>
        <time>2021-07-31T16:06:31+02:00</time>
      </trkpt>
      <trkpt lat="48.05726" lon="6.98216">
        <ele>821</ele>
        <time>2021-07-31T16:06:42+02:00</time>
      </trkpt>
      <trkpt lat="48.0571" lon="6.98203">
        <ele>812</ele>
        <time>2021-07-31T16:06:56+02:00</time>
      </trkpt>
      <trkpt lat="48.05691" lon="6.98202">
        <ele>810</ele>
        <time>2021-07-31T16:07:06+02:00</time>
      </trkpt>
      <trkpt lat="48.05671" lon="6.98202">
        <ele>814</ele>
        <time>2021-07-31T16:07:17+02:00</time>
      </trkpt>
      <trkpt lat="48.05654" lon="6.98211">
        <ele>814</ele>
        <time>2021-07-31T16:07:31+02:00</time>
      </trkpt>
      <trkpt lat="48.05636" lon="6.98218">
        <ele>817</ele>
        <time>2021-07-31T16:07:44+02:00</time>
      </trkpt>
      <trkpt lat="48.05618" lon="6.98218">
        <ele>814</ele>
        <time>2021-07-31T16:07:58+02:00</time>
      </trkpt>
      <trkpt lat="48.056" lon="6.98228">
        <ele>826</ele>
        <time>2021-07-31T16:08:11+02:00</time>
      </trkpt>
      <trkpt lat="48.05581" lon="6.98234">
        <ele>823</ele>
        <time>2021-07-31T16:08:23+02:00</time>
      </trkpt>
      <trkpt lat="48.05566" lon="6.98247">
        <ele>824</ele>
        <time>2021-07-31T16:08:34+02:00</time>
      </trkpt>
      <trkpt lat="48.05547" lon="6.98251">
        <ele>820</ele>
        <time>2021-07-31T16:08:47+02:00</time>
      </trkpt>
      <trkpt lat="48.0553" lon="6.98261">
        <ele>825</ele>
        <time>2021-07-31T16:09:01+02:00</time>
      </trkpt>
      <trkpt lat="48.05515" lon="6.98278">
        <ele>833</ele>
        <time>2021-07-31T16:09:10+02:00</time>
      </trkpt>
      <trkpt lat="48.05499" lon="6.98293">
        <ele>837</ele>
        <time>2021-07-31T16:09:22+02:00</time>
      </trkpt>
      <trkpt lat="48.05484" lon="6.98311">
        <ele>835</ele>
        <time>2021-07-31T16:09:36+02:00</time>
      </trkpt>
      <trkpt lat="48.0548" lon="6.98339">
        <ele>832</ele>
        <time>2021-07-31T16:09:47+02:00</time>
      </trkpt>
      <trkpt lat="48.05463" lon="6.98327">
        <ele>833</ele>
        <time>2021-07-31T16:10:29+02:00</time>
      </trkpt>
      <trkpt lat="48.05449" lon="6.98307">
        <ele>834</ele>
        <time>2021-07-31T16:10:43+02:00</time>
      </trkpt>
      <trkpt lat="48.05433" lon="6.98292">
        <ele>845</ele>
        <time>2021-07-31T16:10:59+02:00</time>
      </trkpt>
      <trkpt lat="48.05417" lon="6.98281">
        <ele>844</ele>
        <time>2021-07-31T16:11:14+02:00</time>
      </trkpt>
      <trkpt lat="48.05405" lon="6.98258">
        <ele>850</ele>
        <time>2021-07-31T16:11:43+02:00</time>
      </trkpt>
      <trkpt lat="48.0539" lon="6.9824">
        <ele>857</ele>
        <time>2021-07-31T16:11:55+02:00</time>
      </trkpt>
      <trkpt lat="48.05377" lon="6.9822">
        <ele>864</ele>
        <time>2021-07-31T16:12:16+02:00</time>
      </trkpt>
      <trkpt lat="48.05363" lon="6.98201">
        <ele>870</ele>
        <time>2021-07-31T16:12:31+02:00</time>
      </trkpt>
      <trkpt lat="48.05351" lon="6.98179">
        <ele>873</ele>
        <time>2021-07-31T16:12:46+02:00</time>
      </trkpt>
      <trkpt lat="48.05345" lon="6.98153">
        <ele>871</ele>
        <time>2021-07-31T16:13:03+02:00</time>
      </trkpt>
      <trkpt lat="48.05349" lon="6.98125">
        <ele>875</ele>
        <time>2021-07-31T16:13:24+02:00</time>
      </trkpt>
      <trkpt lat="48.05335" lon="6.98106">
        <ele>880</ele>
        <time>2021-07-31T16:13:38+02:00</time>
      </trkpt>
      <trkpt lat="48.05332" lon="6.9808">
        <ele>885</ele>
        <time>2021-07-31T16:13:52+02:00</time>
      </trkpt>
      <trkpt lat="48.05325" lon="6.98055">
        <ele>888</ele>
        <time>2021-07-31T16:14:03+02:00</time>
      </trkpt>
      <trkpt lat="48.05329" lon="6.98028">
        <ele>886</ele>
        <time>2021-07-31T16:14:18+02:00</time>
      </trkpt>
      <trkpt lat="48.05322" lon="6.98002">
        <ele>893</ele>
        <time>2021-07-31T16:14:35+02:00</time>
      </trkpt>
      <trkpt lat="48.05309" lon="6.97985">
        <ele>891</ele>
        <time>2021-07-31T16:14:49+02:00</time>
      </trkpt>
      <trkpt lat="48.05307" lon="6.97955">
        <ele>884</ele>
        <time>2021-07-31T16:15:13+02:00</time>
      </trkpt>
      <trkpt lat="48.05294" lon="6.97935">
        <ele>888</ele>
        <time>2021-07-31T16:15:27+02:00</time>
      </trkpt>
      <trkpt lat="48.05284" lon="6.97912">
        <ele>894</ele>
        <time>2021-07-31T16:15:44+02:00</time>
      </trkpt>
      <trkpt lat="48.05275" lon="6.97888">
        <ele>899</ele>
        <time>2021-07-31T16:15:57+02:00</time>
      </trkpt>
      <trkpt lat="48.05261" lon="6.97872">
        <ele>904</ele>
        <time>2021-07-31T16:16:17+02:00</time>
      </trkpt>
      <trkpt lat="48.05248" lon="6.9785">
        <ele>904</ele>
        <time>2021-07-31T16:16:45+02:00</time>
      </trkpt>
      <trkpt lat="48.05234" lon="6.97833">
        <ele>909</ele>
        <time>2021-07-31T16:17:05+02:00</time>
      </trkpt>
      <trkpt lat="48.05217" lon="6.97821">
        <ele>907</ele>
        <time>2021-07-31T16:17:18+02:00</time>
      </trkpt>
      <trkpt lat="48.052" lon="6.97816">
        <ele>910</ele>
        <time>2021-07-31T16:17:34+02:00</time>
      </trkpt>
      <trkpt lat="48.05181" lon="6.97808">
        <ele>919</ele>
        <time>2021-07-31T16:17:56+02:00</time>
      </trkpt>
      <trkpt lat="48.05166" lon="6.9779">
        <ele>921</ele>
        <time>2021-07-31T16:18:09+02:00</time>
      </trkpt>
      <trkpt lat="48.05149" lon="6.9778">
        <ele>916</ele>
        <time>2021-07-31T16:18:30+02:00</time>
      </trkpt>
      <trkpt lat="48.05137" lon="6.9776">
        <ele>931</ele>
        <time>2021-07-31T16:18:55+02:00</time>
      </trkpt>
      <trkpt lat="48.05119" lon="6.97764">
        <ele>947</ele>
        <time>2021-07-31T16:21:15+02:00</time>
      </trkpt>
      <trkpt lat="48.05104" lon="6.9775">
        <ele>946</ele>
        <time>2021-07-31T16:22:06+02:00</time>
      </trkpt>
      <trkpt lat="48.05088" lon="6.97735">
        <ele>947</ele>
        <time>2021-07-31T16:22:20+02:00</time>
      </trkpt>
      <trkpt lat="48.0507" lon="6.9773">
        <ele>954</ele>
        <time>2021-07-31T16:22:44+02:00</time>
      </trkpt>
      <trkpt lat="48.05053" lon="6.97721">
        <ele>956</ele>
        <time>2021-07-31T16:23:06+02:00</time>
      </trkpt>
      <trkpt lat="48.05038" lon="6.97705">
        <ele>960</ele>
        <time>2021-07-31T16:23:21+02:00</time>
      </trkpt>
      <trkpt lat="48.0502" lon="6.97693">
        <ele>965</ele>
        <time>2021-07-31T16:23:36+02:00</time>
      </trkpt>
      <trkpt lat="48.05003" lon="6.97683">
        <ele>971</ele>
        <time>2021-07-31T16:23:52+02:00</time>
      </trkpt>
      <trkpt lat="48.04988" lon="6.97668">
        <ele>965</ele>
        <time>2021-07-31T16:24:14+02:00</time>
      </trkpt>
      <trkpt lat="48.04971" lon="6.97654">
        <ele>968</ele>
        <time>2021-07-31T16:24:24+02:00</time>
      </trkpt>
      <trkpt lat="48.04952" lon="6.97651">
        <ele>973</ele>
        <time>2021-07-31T16:24:35+02:00</time>
      </trkpt>
      <trkpt lat="48.04934" lon="6.97646">
        <ele>972</ele>
        <time>2021-07-31T16:24:54+02:00</time>
      </trkpt>
      <trkpt lat="48.04919" lon="6.97629">
        <ele>972</ele>
        <time>2021-07-31T16:25:09+02:00</time>
      </trkpt>
      <trkpt lat="48.04901" lon="6.97621">
        <ele>978</ele>
        <time>2021-07-31T16:25:24+02:00</time>
      </trkpt>
      <trkpt lat="48.04882" lon="6.97622">
        <ele>981</ele>
        <time>2021-07-31T16:25:46+02:00</time>
      </trkpt>
      <trkpt lat="48.04863" lon="6.97627">
        <ele>992</ele>
        <time>2021-07-31T16:26:16+02:00</time>
      </trkpt>
      <trkpt lat="48.04846" lon="6.97613">
        <ele>994</ele>
        <time>2021-07-31T16:26:29+02:00</time>
      </trkpt>
      <trkpt lat="48.04828" lon="6.97607">
        <ele>995</ele>
        <time>2021-07-31T16:26:42+02:00</time>
      </trkpt>
      <trkpt lat="48.0481" lon="6.97602">
        <ele>995</ele>
        <time>2021-07-31T16:26:55+02:00</time>
      </trkpt>
      <trkpt lat="48.04792" lon="6.976">
        <ele>996</ele>
        <time>2021-07-31T16:27:11+02:00</time>
      </trkpt>
      <trkpt lat="48.04776" lon="6.97584">
        <ele>998</ele>
        <time>2021-07-31T16:27:28+02:00</time>
      </trkpt>
      <trkpt lat="48.04762" lon="6.97567">
        <ele>1005</ele>
        <time>2021-07-31T16:27:45+02:00</time>
      </trkpt>
      <trkpt lat="48.04744" lon="6.97565">
        <ele>1003</ele>
        <time>2021-07-31T16:28:01+02:00</time>
      </trkpt>
      <trkpt lat="48.04725" lon="6.9756">
        <ele>1001</ele>
        <time>2021-07-31T16:28:14+02:00</time>
      </trkpt>
      <trkpt lat="48.04707" lon="6.9757">
        <ele>1000</ele>
        <time>2021-07-31T16:28:38+02:00</time>
      </trkpt>
      <trkpt lat="48.04706" lon="6.97597">
        <ele>1001</ele>
        <time>2021-07-31T16:28:49+02:00</time>
      </trkpt>
      <trkpt lat="48.04725" lon="6.976">
        <ele>1007</ele>
        <time>2021-07-31T16:29:05+02:00</time>
      </trkpt>
      <trkpt lat="48.04738" lon="6.97618">
        <ele>999</ele>
        <time>2021-07-31T16:31:43+02:00</time>
      </trkpt>
      <trkpt lat="48.04747" lon="6.97642">
        <ele>1013</ele>
        <time>2021-07-31T16:32:03+02:00</time>
      </trkpt>
      <trkpt lat="48.0473" lon="6.97658">
        <ele>1015</ele>
        <time>2021-07-31T16:32:26+02:00</time>
      </trkpt>
      <trkpt lat="48.04713" lon="6.97673">
        <ele>1018</ele>
        <time>2021-07-31T16:32:39+02:00</time>
      </trkpt>
      <trkpt lat="48.047" lon="6.97692">
        <ele>1026</ele>
        <time>2021-07-31T16:32:55+02:00</time>
      </trkpt>
      <trkpt lat="48.0468" lon="6.97697">
        <ele>1031</ele>
        <time>2021-07-31T16:33:10+02:00</time>
      </trkpt>
      <trkpt lat="48.04662" lon="6.97698">
        <ele>1032</ele>
        <time>2021-07-31T16:33:21+02:00</time>
      </trkpt>
      <trkpt lat="48.04648" lon="6.97715">
        <ele>1040</ele>
        <time>2021-07-31T16:33:42+02:00</time>
      </trkpt>
      <trkpt lat="48.04642" lon="6.97741">
        <ele>1025</ele>
        <time>2021-07-31T16:34:03+02:00</time>
      </trkpt>
      <trkpt lat="48.04625" lon="6.97754">
        <ele>1023</ele>
        <time>2021-07-31T16:34:15+02:00</time>
      </trkpt>
      <trkpt lat="48.04606" lon="6.97751">
        <ele>1033</ele>
        <time>2021-07-31T16:34:27+02:00</time>
      </trkpt>
      <trkpt lat="48.04588" lon="6.97745">
        <ele>1036</ele>
        <time>2021-07-31T16:34:42+02:00</time>
      </trkpt>
      <trkpt lat="48.04572" lon="6.97758">
        <ele>1036</ele>
        <time>2021-07-31T16:34:55+02:00</time>
      </trkpt>
      <trkpt lat="48.04554" lon="6.9776">
        <ele>1043</ele>
        <time>2021-07-31T16:35:09+02:00</time>
      </trkpt>
      <trkpt lat="48.04538" lon="6.97773">
        <ele>1044</ele>
        <time>2021-07-31T16:35:58+02:00</time>
      </trkpt>
      <trkpt lat="48.0452" lon="6.97773">
        <ele>1047</ele>
        <time>2021-07-31T16:36:26+02:00</time>
      </trkpt>
      <trkpt lat="48.04501" lon="6.97781">
        <ele>1044</ele>
        <time>2021-07-31T16:36:38+02:00</time>
      </trkpt>
      <trkpt lat="48.04482" lon="6.97792">
        <ele>1044</ele>
        <time>2021-07-31T16:36:50+02:00</time>
      </trkpt>
      <trkpt lat="48.04468" lon="6.97808">
        <ele>1058</ele>
        <time>2021-07-31T16:37:13+02:00</time>
      </trkpt>
      <trkpt lat="48.04455" lon="6.97827">
        <ele>1064</ele>
        <time>2021-07-31T16:37:30+02:00</time>
      </trkpt>
      <trkpt lat="48.04439" lon="6.97844">
        <ele>1060</ele>
        <time>2021-07-31T16:37:50+02:00</time>
      </trkpt>
      <trkpt lat="48.0442" lon="6.97842">
        <ele>1062</ele>
        <time>2021-07-31T16:38:05+02:00</time>
      </trkpt>
      <trkpt lat="48.044" lon="6.97842">
        <ele>1071</ele>
        <time>2021-07-31T16:38:19+02:00</time>
      </trkpt>
      <trkpt lat="48.04382" lon="6.97848">
        <ele>1078</ele>
        <time>2021-07-31T16:38:34+02:00</time>
      </trkpt>
      <trkpt lat="48.04362" lon="6.97844">
        <ele>1079</ele>
        <time>2021-07-31T16:38:44+02:00</time>
      </trkpt>
      <trkpt lat="48.04344" lon="6.97851">
        <ele>1086</ele>
        <time>2021-07-31T16:38:58+02:00</time>
      </trkpt>
      <trkpt lat="48.04325" lon="6.97853">
        <ele>1095</ele>
        <time>2021-07-31T16:39:12+02:00</time>
      </trkpt>
      <trkpt lat="48.04308" lon="6.97857">
        <ele>1094</ele>
        <time>2021-07-31T16:39:27+02:00</time>
      </trkpt>
      <trkpt lat="48.04288" lon="6.97863">
        <ele>1080</ele>
        <time>2021-07-31T16:39:41+02:00</time>
      </trkpt>
      <trkpt lat="48.04271" lon="6.9786">
        <ele>1083</ele>
        <time>2021-07-31T16:39:56+02:00</time>
      </trkpt>
      <trkpt lat="48.04252" lon="6.97853">
        <ele>1085</ele>
        <time>2021-07-31T16:40:10+02:00</time>
      </trkpt>
      <trkpt lat="48.04234" lon="6.97848">
        <ele>1092</ele>
        <time>2021-07-31T16:40:26+02:00</time>
      </trkpt>
      <trkpt lat="48.04216" lon="6.97838">
        <ele>1097</ele>
        <time>2021-07-31T16:40:36+02:00</time>
      </trkpt>
      <trkpt lat="48.04198" lon="6.97831">
        <ele>1099</ele>
        <time>2021-07-31T16:40:50+02:00</time>
      </trkpt>
      <trkpt lat="48.0418" lon="6.97826">
        <ele>1095</ele>
        <time>2021-07-31T16:41:03+02:00</time>
      </trkpt>
      <trkpt lat="48.04162" lon="6.97822">
        <ele>1096</ele>
        <time>2021-07-31T16:41:19+02:00</time>
      </trkpt>
      <trkpt lat="48.04143" lon="6.97816">
        <ele>1096</ele>
        <time>2021-07-31T16:41:30+02:00</time>
      </trkpt>
      <trkpt lat="48.04125" lon="6.97818">
        <ele>1098</ele>
        <time>2021-07-31T16:41:44+02:00</time>
      </trkpt>
      <trkpt lat="48.04106" lon="6.97821">
        <ele>1106</ele>
        <time>2021-07-31T16:41:56+02:00</time>
      </trkpt>
      <trkpt lat="48.04087" lon="6.97825">
        <ele>1110</ele>
        <time>2021-07-31T16:42:09+02:00</time>
      </trkpt>
      <trkpt lat="48.04069" lon="6.9783">
        <ele>1105</ele>
        <time>2021-07-31T16:42:20+02:00</time>
      </trkpt>
      <trkpt lat="48.04053" lon="6.97846">
        <ele>1105</ele>
        <time>2021-07-31T16:42:39+02:00</time>
      </trkpt>
      <trkpt lat="48.04039" lon="6.97866">
        <ele>1105</ele>
        <time>2021-07-31T16:42:50+02:00</time>
      </trkpt>
      <trkpt lat="48.04031" lon="6.97889">
        <ele>1108</ele>
        <time>2021-07-31T16:42:59+02:00</time>
      </trkpt>
      <trkpt lat="48.04021" lon="6.97913">
        <ele>1112</ele>
        <time>2021-07-31T16:43:11+02:00</time>
      </trkpt>
      <trkpt lat="48.04025" lon="6.97939">
        <ele>1107</ele>
        <time>2021-07-31T16:43:28+02:00</time>
      </trkpt>
      <trkpt lat="48.04019" lon="6.97967">
        <ele>1113</ele>
        <time>2021-07-31T16:43:43+02:00</time>
      </trkpt>
      <trkpt lat="48.04009" lon="6.9799">
        <ele>1116</ele>
        <time>2021-07-31T16:44:00+02:00</time>
      </trkpt>
      <trkpt lat="48.04008" lon="6.98018">
        <ele>1113</ele>
        <time>2021-07-31T16:44:10+02:00</time>
      </trkpt>
      <trkpt lat="48.04002" lon="6.98044">
        <ele>1123</ele>
        <time>2021-07-31T16:44:25+02:00</time>
      </trkpt>
      <trkpt lat="48.04004" lon="6.98073">
        <ele>1124</ele>
        <time>2021-07-31T16:44:41+02:00</time>
      </trkpt>
      <trkpt lat="48.04002" lon="6.98099">
        <ele>1125</ele>
        <time>2021-07-31T16:44:57+02:00</time>
      </trkpt>
      <trkpt lat="48.03994" lon="6.98124">
        <ele>1131</ele>
        <time>2021-07-31T16:45:09+02:00</time>
      </trkpt>
      <trkpt lat="48.03998" lon="6.98153">
        <ele>1123</ele>
        <time>2021-07-31T16:45:18+02:00</time>
      </trkpt>
      <trkpt lat="48.03997" lon="6.98182">
        <ele>1123</ele>
        <time>2021-07-31T16:45:33+02:00</time>
      </trkpt>
      <trkpt lat="48.03996" lon="6.98211">
        <ele>1134</ele>
        <time>2021-07-31T16:45:46+02:00</time>
      </trkpt>
      <trkpt lat="48.0399" lon="6.98239">
        <ele>1134</ele>
        <time>2021-07-31T16:46:02+02:00</time>
      </trkpt>
      <trkpt lat="48.03977" lon="6.9826">
        <ele>1134</ele>
        <time>2021-07-31T16:46:18+02:00</time>
      </trkpt>
      <trkpt lat="48.03967" lon="6.98284">
        <ele>1130</ele>
        <time>2021-07-31T16:46:31+02:00</time>
      </trkpt>
      <trkpt lat="48.03962" lon="6.98312">
        <ele>1130</ele>
        <time>2021-07-31T16:46:43+02:00</time>
      </trkpt>
      <trkpt lat="48.03957" lon="6.98338">
        <ele>1129</ele>
        <time>2021-07-31T16:47:00+02:00</time>
      </trkpt>
      <trkpt lat="48.03953" lon="6.98365">
        <ele>1132</ele>
        <time>2021-07-31T16:47:14+02:00</time>
      </trkpt>
      <trkpt lat="48.03939" lon="6.98385">
        <ele>1139</ele>
        <time>2021-07-31T16:47:26+02:00</time>
      </trkpt>
      <trkpt lat="48.03934" lon="6.98411">
        <ele>1144</ele>
        <time>2021-07-31T16:47:42+02:00</time>
      </trkpt>
      <trkpt lat="48.03937" lon="6.98439">
        <ele>1139</ele>
        <time>2021-07-31T16:47:56+02:00</time>
      </trkpt>
      <trkpt lat="48.03944" lon="6.98465">
        <ele>1141</ele>
        <time>2021-07-31T16:48:11+02:00</time>
      </trkpt>
      <trkpt lat="48.03951" lon="6.98491">
        <ele>1148</ele>
        <time>2021-07-31T16:48:24+02:00</time>
      </trkpt>
      <trkpt lat="48.03956" lon="6.98519">
        <ele>1143</ele>
        <time>2021-07-31T16:48:35+02:00</time>
      </trkpt>
      <trkpt lat="48.03961" lon="6.98546">
        <ele>1141</ele>
        <time>2021-07-31T16:48:45+02:00</time>
      </trkpt>
      <trkpt lat="48.03967" lon="6.98573">
        <ele>1137</ele>
        <time>2021-07-31T16:49:05+02:00</time>
      </trkpt>
      <trkpt lat="48.03971" lon="6.986">
        <ele>1139</ele>
        <time>2021-07-31T16:49:21+02:00</time>
      </trkpt>
      <trkpt lat="48.03977" lon="6.98626">
        <ele>1149</ele>
        <time>2021-07-31T16:49:37+02:00</time>
      </trkpt>
      <trkpt lat="48.03976" lon="6.98653">
        <ele>1150</ele>
        <time>2021-07-31T16:49:53+02:00</time>
      </trkpt>
      <trkpt lat="48.03975" lon="6.98682">
        <ele>1156</ele>
        <time>2021-07-31T16:50:03+02:00</time>
      </trkpt>
      <trkpt lat="48.03973" lon="6.98712">
        <ele>1156</ele>
        <time>2021-07-31T16:50:14+02:00</time>
      </trkpt>
      <trkpt lat="48.03976" lon="6.98741">
        <ele>1153</ele>
        <time>2021-07-31T16:50:26+02:00</time>
      </trkpt>
      <trkpt lat="48.03977" lon="6.98769">
        <ele>1158</ele>
        <time>2021-07-31T16:50:37+02:00</time>
      </trkpt>
      <trkpt lat="48.03985" lon="6.98793">
        <ele>1159</ele>
        <time>2021-07-31T16:50:51+02:00</time>
      </trkpt>
      <trkpt lat="48.03981" lon="6.98822">
        <ele>1158</ele>
        <time>2021-07-31T16:51:06+02:00</time>
      </trkpt>
      <trkpt lat="48.03989" lon="6.98846">
        <ele>1152</ele>
        <time>2021-07-31T16:51:15+02:00</time>
      </trkpt>
      <trkpt lat="48.03992" lon="6.98874">
        <ele>1152</ele>
        <time>2021-07-31T16:51:30+02:00</time>
      </trkpt>
      <trkpt lat="48.04003" lon="6.98896">
        <ele>1140</ele>
        <time>2021-07-31T16:51:44+02:00</time>
      </trkpt>
      <trkpt lat="48.04015" lon="6.98919">
        <ele>1141</ele>
        <time>2021-07-31T16:51:53+02:00</time>
      </trkpt>
      <trkpt lat="48.04027" lon="6.98941">
        <ele>1150</ele>
        <time>2021-07-31T16:52:04+02:00</time>
      </trkpt>
      <trkpt lat="48.04033" lon="6.98968">
        <ele>1146</ele>
        <time>2021-07-31T16:52:14+02:00</time>
      </trkpt>
      <trkpt lat="48.04043" lon="6.98991">
        <ele>1144</ele>
        <time>2021-07-31T16:52:27+02:00</time>
      </trkpt>
      <trkpt lat="48.0406" lon="6.99004">
        <ele>1149</ele>
        <time>2021-07-31T16:52:42+02:00</time>
      </trkpt>
      <trkpt lat="48.04079" lon="6.9901">
        <ele>1151</ele>
        <time>2021-07-31T16:52:56+02:00</time>
      </trkpt>
      <trkpt lat="48.04095" lon="6.99025">
        <ele>1150</ele>
        <time>2021-07-31T16:53:09+02:00</time>
      </trkpt>
      <trkpt lat="48.04097" lon="6.99053">
        <ele>1143</ele>
        <time>2021-07-31T16:53:26+02:00</time>
      </trkpt>
      <trkpt lat="48.04103" lon="6.9908">
        <ele>1147</ele>
        <time>2021-07-31T16:53:41+02:00</time>
      </trkpt>
      <trkpt lat="48.04107" lon="6.99108">
        <ele>1146</ele>
        <time>2021-07-31T16:53:52+02:00</time>
      </trkpt>
      <trkpt lat="48.0411" lon="6.99135">
        <ele>1152</ele>
        <time>2021-07-31T16:54:05+02:00</time>
      </trkpt>
      <trkpt lat="48.04105" lon="6.99161">
        <ele>1152</ele>
        <time>2021-07-31T16:54:18+02:00</time>
      </trkpt>
      <trkpt lat="48.04105" lon="6.99188">
        <ele>1158</ele>
        <time>2021-07-31T16:54:35+02:00</time>
      </trkpt>
      <trkpt lat="48.04104" lon="6.99215">
        <ele>1162</ele>
        <time>2021-07-31T16:54:48+02:00</time>
      </trkpt>
      <trkpt lat="48.04102" lon="6.99243">
        <ele>1165</ele>
        <time>2021-07-31T16:55:09+02:00</time>
      </trkpt>
      <trkpt lat="48.04101" lon="6.9927">
        <ele>1167</ele>
        <time>2021-07-31T16:55:24+02:00</time>
      </trkpt>
      <trkpt lat="48.04105" lon="6.99299">
        <ele>1168</ele>
        <time>2021-07-31T16:55:38+02:00</time>
      </trkpt>
      <trkpt lat="48.04109" lon="6.99326">
        <ele>1170</ele>
        <time>2021-07-31T16:55:47+02:00</time>
      </trkpt>
      <trkpt lat="48.04111" lon="6.99354">
        <ele>1163</ele>
        <time>2021-07-31T16:56:02+02:00</time>
      </trkpt>
      <trkpt lat="48.04104" lon="6.9938">
        <ele>1167</ele>
        <time>2021-07-31T16:56:19+02:00</time>
      </trkpt>
      <trkpt lat="48.04101" lon="6.99407">
        <ele>1160</ele>
        <time>2021-07-31T16:56:32+02:00</time>
      </trkpt>
      <trkpt lat="48.04101" lon="6.99437">
        <ele>1164</ele>
        <time>2021-07-31T16:56:45+02:00</time>
      </trkpt>
      <trkpt lat="48.04098" lon="6.99466">
        <ele>1165</ele>
        <time>2021-07-31T16:56:54+02:00</time>
      </trkpt>
      <trkpt lat="48.04092" lon="6.99492">
        <ele>1167</ele>
        <time>2021-07-31T16:57:05+02:00</time>
      </trkpt>
      <trkpt lat="48.04089" lon="6.99519">
        <ele>1165</ele>
        <time>2021-07-31T16:57:17+02:00</time>
      </trkpt>
      <trkpt lat="48.04087" lon="6.99546">
        <ele>1159</ele>
        <time>2021-07-31T16:57:28+02:00</time>
      </trkpt>
      <trkpt lat="48.04089" lon="6.99573">
        <ele>1159</ele>
        <time>2021-07-31T16:57:38+02:00</time>
      </trkpt>
      <trkpt lat="48.04095" lon="6.99599">
        <ele>1163</ele>
        <time>2021-07-31T16:57:49+02:00</time>
      </trkpt>
      <trkpt lat="48.0411" lon="6.99618">
        <ele>1152</ele>
        <time>2021-07-31T16:58:15+02:00</time>
      </trkpt>
      <trkpt lat="48.04123" lon="6.99637">
        <ele>1157</ele>
        <time>2021-07-31T16:58:25+02:00</time>
      </trkpt>
      <trkpt lat="48.04135" lon="6.9966">
        <ele>1158</ele>
        <time>2021-07-31T16:58:37+02:00</time>
      </trkpt>
      <trkpt lat="48.04134" lon="6.99687">
        <ele>1159</ele>
        <time>2021-07-31T16:58:48+02:00</time>
      </trkpt>
      <trkpt lat="48.0412" lon="6.99707">
        <ele>1162</ele>
        <time>2021-07-31T16:58:56+02:00</time>
      </trkpt>
      <trkpt lat="48.04102" lon="6.9971">
        <ele>1158</ele>
        <time>2021-07-31T16:59:15+02:00</time>
      </trkpt>
      <trkpt lat="48.04099" lon="6.99738">
        <ele>1157</ele>
        <time>2021-07-31T16:59:27+02:00</time>
      </trkpt>
      <trkpt lat="48.0411" lon="6.99761">
        <ele>1155</ele>
        <time>2021-07-31T16:59:40+02:00</time>
      </trkpt>
      <trkpt lat="48.0412" lon="6.99785">
        <ele>1158</ele>
        <time>2021-07-31T16:59:58+02:00</time>
      </trkpt>
      <trkpt lat="48.04114" lon="6.99811">
        <ele>1159</ele>
        <time>2021-07-31T17:00:12+02:00</time>
      </trkpt>
      <trkpt lat="48.04111" lon="6.99839">
        <ele>1160</ele>
        <time>2021-07-31T17:00:24+02:00</time>
      </trkpt>
      <trkpt lat="48.04121" lon="6.99861">
        <ele>1155</ele>
        <time>2021-07-31T17:00:39+02:00</time>
      </trkpt>
      <trkpt lat="48.04133" lon="6.99883">
        <ele>1157</ele>
        <time>2021-07-31T17:00:51+02:00</time>
      </trkpt>
      <trkpt lat="48.04131" lon="6.9991">
        <ele>1157</ele>
        <time>2021-07-31T17:01:26+02:00</time>
      </trkpt>
      <trkpt lat="48.04132" lon="6.99937">
        <ele>1167</ele>
        <time>2021-07-31T17:05:37+02:00</time>
      </trkpt>
      <trkpt lat="48.04151" lon="6.99935">
        <ele>1171</ele>
        <time>2021-07-31T17:05:51+02:00</time>
      </trkpt>
      <trkpt lat="48.04169" lon="6.99942">
        <ele>1172</ele>
        <time>2021-07-31T17:06:10+02:00</time>
      </trkpt>
      <trkpt lat="48.04185" lon="6.99957">
        <ele>1172</ele>
        <time>2021-07-31T17:06:24+02:00</time>
      </trkpt>
      <trkpt lat="48.04202" lon="6.99968">
        <ele>1176</ele>
        <time>2021-07-31T17:06:44+02:00</time>
      </trkpt>
      <trkpt lat="48.0422" lon="6.99974">
        <ele>1169</ele>
        <time>2021-07-31T17:07:08+02:00</time>
      </trkpt>
      <trkpt lat="48.04239" lon="6.99978">
        <ele>1179</ele>
        <time>2021-07-31T17:07:24+02:00</time>
      </trkpt>
      <trkpt lat="48.04256" lon="6.99994">
        <ele>1171</ele>
        <time>2021-07-31T17:07:42+02:00</time>
      </trkpt>
      <trkpt lat="48.04273" lon="7.00006">
        <ele>1176</ele>
        <time>2021-07-31T17:07:53+02:00</time>
      </trkpt>
      <trkpt lat="48.04291" lon="7.0001">
        <ele>1181</ele>
        <time>2021-07-31T17:08:14+02:00</time>
      </trkpt>
      <trkpt lat="48.04307" lon="7.00025">
        <ele>1186</ele>
        <time>2021-07-31T17:08:29+02:00</time>
      </trkpt>
      <trkpt lat="48.04321" lon="7.00043">
        <ele>1188</ele>
        <time>2021-07-31T17:08:42+02:00</time>
      </trkpt>
      <trkpt lat="48.04334" lon="7.00064">
        <ele>1196</ele>
        <time>2021-07-31T17:08:56+02:00</time>
      </trkpt>
      <trkpt lat="48.04316" lon="7.00061">
        <ele>1200</ele>
        <time>2021-07-31T17:09:17+02:00</time>
      </trkpt>
      <trkpt lat="48.04297" lon="7.00056">
        <ele>1208</ele>
        <time>2021-07-31T17:09:32+02:00</time>
      </trkpt>
      <trkpt lat="48.04308" lon="7.00079">
        <ele>1212</ele>
        <time>2021-07-31T17:10:01+02:00</time>
      </trkpt>
      <trkpt lat="48.04308" lon="7.00106">
        <ele>1214</ele>
        <time>2021-07-31T17:10:36+02:00</time>
      </trkpt>
      <trkpt lat="48.04322" lon="7.00125">
        <ele>1214</ele>
        <time>2021-07-31T17:10:50+02:00</time>
      </trkpt>
      <trkpt lat="48.04331" lon="7.0015">
        <ele>1215</ele>
        <time>2021-07-31T17:11:00+02:00</time>
      </trkpt>
      <trkpt lat="48.04335" lon="7.00177">
        <ele>1220</ele>
        <time>2021-07-31T17:11:17+02:00</time>
      </trkpt>
      <trkpt lat="48.04339" lon="7.00203">
        <ele>1223</ele>
        <time>2021-07-31T17:11:32+02:00</time>
      </trkpt>
      <trkpt lat="48.04322" lon="7.00191">
        <ele>1228</ele>
        <time>2021-07-31T17:11:49+02:00</time>
      </trkpt>
      <trkpt lat="48.04306" lon="7.00204">
        <ele>1229</ele>
        <time>2021-07-31T17:12:07+02:00</time>
      </trkpt>
      <trkpt lat="48.0429" lon="7.00219">
        <ele>1235</ele>
        <time>2021-07-31T17:12:50+02:00</time>
      </trkpt>
      <trkpt lat="48.04273" lon="7.0023">
        <ele>1238</ele>
        <time>2021-07-31T17:13:08+02:00</time>
      </trkpt>
      <trkpt lat="48.04284" lon="7.00254">
        <ele>1245</ele>
        <time>2021-07-31T17:13:35+02:00</time>
      </trkpt>
      <trkpt lat="48.04297" lon="7.00276">
        <ele>1251</ele>
        <time>2021-07-31T17:13:50+02:00</time>
      </trkpt>
      <trkpt lat="48.043" lon="7.00303">
        <ele>1251</ele>
        <time>2021-07-31T17:14:09+02:00</time>
      </trkpt>
      <trkpt lat="48.04282" lon="7.00301">
        <ele>1251</ele>
        <time>2021-07-31T17:14:24+02:00</time>
      </trkpt>
      <trkpt lat="48.04264" lon="7.00306">
        <ele>1253</ele>
        <time>2021-07-31T17:14:39+02:00</time>
      </trkpt>
      <trkpt lat="48.04246" lon="7.0032">
        <ele>1254</ele>
        <time>2021-07-31T17:14:53+02:00</time>
      </trkpt>
      <trkpt lat="48.04232" lon="7.00337">
        <ele>1255</ele>
        <time>2021-07-31T17:15:06+02:00</time>
      </trkpt>
      <trkpt lat="48.04218" lon="7.00357">
        <ele>1261</ele>
        <time>2021-07-31T17:15:21+02:00</time>
      </trkpt>
      <trkpt lat="48.04203" lon="7.00372">
        <ele>1265</ele>
        <time>2021-07-31T17:15:34+02:00</time>
      </trkpt>
      <trkpt lat="48.04188" lon="7.00389">
        <ele>1270</ele>
        <time>2021-07-31T17:15:47+02:00</time>
      </trkpt>
      <trkpt lat="48.04174" lon="7.00407">
        <ele>1275</ele>
        <time>2021-07-31T17:16:02+02:00</time>
      </trkpt>
      <trkpt lat="48.04161" lon="7.00429">
        <ele>1280</ele>
        <time>2021-07-31T17:16:17+02:00</time>
      </trkpt>
      <trkpt lat="48.04147" lon="7.0045">
        <ele>1281</ele>
        <time>2021-07-31T17:16:32+02:00</time>
      </trkpt>
      <trkpt lat="48.04134" lon="7.00469">
        <ele>1277</ele>
        <time>2021-07-31T17:16:47+02:00</time>
      </trkpt>
      <trkpt lat="48.04124" lon="7.00493">
        <ele>1279</ele>
        <time>2021-07-31T17:17:02+02:00</time>
      </trkpt>
      <trkpt lat="48.04113" lon="7.00514">
        <ele>1282</ele>
        <time>2021-07-31T17:17:15+02:00</time>
      </trkpt>
      <trkpt lat="48.04109" lon="7.00542">
        <ele>1285</ele>
        <time>2021-07-31T17:17:31+02:00</time>
      </trkpt>
      <trkpt lat="48.041" lon="7.00566">
        <ele>1289</ele>
        <time>2021-07-31T17:17:45+02:00</time>
      </trkpt>
      <trkpt lat="48.04093" lon="7.00591">
        <ele>1292</ele>
        <time>2021-07-31T17:18:04+02:00</time>
      </trkpt>
      <trkpt lat="48.04086" lon="7.00618">
        <ele>1294</ele>
        <time>2021-07-31T17:18:21+02:00</time>
      </trkpt>
      <trkpt lat="48.04079" lon="7.00643">
        <ele>1297</ele>
        <time>2021-07-31T17:18:35+02:00</time>
      </trkpt>
      <trkpt lat="48.04073" lon="7.00669">
        <ele>1298</ele>
        <time>2021-07-31T17:18:51+02:00</time>
      </trkpt>
      <trkpt lat="48.04069" lon="7.00696">
        <ele>1301</ele>
        <time>2021-07-31T17:19:04+02:00</time>
      </trkpt>
      <trkpt lat="48.04069" lon="7.00724">
        <ele>1301</ele>
        <time>2021-07-31T17:19:21+02:00</time>
      </trkpt>
      <trkpt lat="48.04066" lon="7.00753">
        <ele>1303</ele>
        <time>2021-07-31T17:19:36+02:00</time>
      </trkpt>
      <trkpt lat="48.04062" lon="7.00782">
        <ele>1305</ele>
        <time>2021-07-31T17:19:50+02:00</time>
      </trkpt>
      <trkpt lat="48.04059" lon="7.00809">
        <ele>1308</ele>
        <time>2021-07-31T17:20:02+02:00</time>
      </trkpt>
      <trkpt lat="48.04055" lon="7.00835">
        <ele>1311</ele>
        <time>2021-07-31T17:20:17+02:00</time>
      </trkpt>
      <trkpt lat="48.0405" lon="7.00861">
        <ele>1310</ele>
        <time>2021-07-31T17:20:30+02:00</time>
      </trkpt>
      <trkpt lat="48.04044" lon="7.00888">
        <ele>1312</ele>
        <time>2021-07-31T17:20:44+02:00</time>
      </trkpt>
      <trkpt lat="48.04039" lon="7.00916">
        <ele>1311</ele>
        <time>2021-07-31T17:21:00+02:00</time>
      </trkpt>
      <trkpt lat="48.04035" lon="7.00942">
        <ele>1316</ele>
        <time>2021-07-31T17:21:16+02:00</time>
      </trkpt>
      <trkpt lat="48.04021" lon="7.00961">
        <ele>1315</ele>
        <time>2021-07-31T17:21:28+02:00</time>
      </trkpt>
      <trkpt lat="48.04011" lon="7.00984">
        <ele>1318</ele>
        <time>2021-07-31T17:21:44+02:00</time>
      </trkpt>
      <trkpt lat="48.04002" lon="7.01008">
        <ele>1324</ele>
        <time>2021-07-31T17:22:01+02:00</time>
      </trkpt>
      <trkpt lat="48.0399" lon="7.01028">
        <ele>1329</ele>
        <time>2021-07-31T17:22:37+02:00</time>
      </trkpt>
      <trkpt lat="48.03972" lon="7.01024">
        <ele>1327</ele>
        <time>2021-07-31T17:22:51+02:00</time>
      </trkpt>
      <trkpt lat="48.03953" lon="7.01017">
        <ele>1325</ele>
        <time>2021-07-31T17:23:06+02:00</time>
      </trkpt>
      <trkpt lat="48.03935" lon="7.01011">
        <ele>1325</ele>
        <time>2021-07-31T17:23:19+02:00</time>
      </trkpt>
      <trkpt lat="48.03917" lon="7.01009">
        <ele>1321</ele>
        <time>2021-07-31T17:23:31+02:00</time>
      </trkpt>
      <trkpt lat="48.03901" lon="7.00993">
        <ele>1324</ele>
        <time>2021-07-31T17:23:41+02:00</time>
      </trkpt>
      <trkpt lat="48.03881" lon="7.0099">
        <ele>1321</ele>
        <time>2021-07-31T17:23:58+02:00</time>
      </trkpt>
      <trkpt lat="48.03862" lon="7.00985">
        <ele>1322</ele>
        <time>2021-07-31T17:24:11+02:00</time>
      </trkpt>
      <trkpt lat="48.03845" lon="7.00976">
        <ele>1319</ele>
        <time>2021-07-31T17:24:25+02:00</time>
      </trkpt>
      <trkpt lat="48.03826" lon="7.0098">
        <ele>1317</ele>
        <time>2021-07-31T17:24:43+02:00</time>
      </trkpt>
      <trkpt lat="48.03809" lon="7.00988">
        <ele>1317</ele>
        <time>2021-07-31T17:24:55+02:00</time>
      </trkpt>
      <trkpt lat="48.03789" lon="7.00991">
        <ele>1320</ele>
        <time>2021-07-31T17:25:10+02:00</time>
      </trkpt>
      <trkpt lat="48.03771" lon="7.00995">
        <ele>1322</ele>
        <time>2021-07-31T17:25:25+02:00</time>
      </trkpt>
      <trkpt lat="48.03752" lon="7.01001">
        <ele>1322</ele>
        <time>2021-07-31T17:25:37+02:00</time>
      </trkpt>
      <trkpt lat="48.03733" lon="7.01005">
        <ele>1324</ele>
        <time>2021-07-31T17:25:48+02:00</time>
      </trkpt>
      <trkpt lat="48.03715" lon="7.01018">
        <ele>1326</ele>
        <time>2021-07-31T17:26:06+02:00</time>
      </trkpt>
      <trkpt lat="48.03698" lon="7.01028">
        <ele>1326</ele>
        <time>2021-07-31T17:26:18+02:00</time>
      </trkpt>
      <trkpt lat="48.03681" lon="7.01041">
        <ele>1328</ele>
        <time>2021-07-31T17:26:32+02:00</time>
      </trkpt>
      <trkpt lat="48.03664" lon="7.01053">
        <ele>1331</ele>
        <time>2021-07-31T17:26:46+02:00</time>
      </trkpt>
      <trkpt lat="48.03647" lon="7.01067">
        <ele>1331</ele>
        <time>2021-07-31T17:27:01+02:00</time>
      </trkpt>
      <trkpt lat="48.03631" lon="7.0108">
        <ele>1332</ele>
        <time>2021-07-31T17:27:12+02:00</time>
      </trkpt>
      <trkpt lat="48.03614" lon="7.0109">
        <ele>1334</ele>
        <time>2021-07-31T17:27:25+02:00</time>
      </trkpt>
      <trkpt lat="48.03595" lon="7.01096">
        <ele>1337</ele>
        <time>2021-07-31T17:27:43+02:00</time>
      </trkpt>
      <trkpt lat="48.03577" lon="7.01085">
        <ele>1329</ele>
        <time>2021-07-31T17:27:56+02:00</time>
      </trkpt>
      <trkpt lat="48.03559" lon="7.01083">
        <ele>1330</ele>
        <time>2021-07-31T17:28:09+02:00</time>
      </trkpt>
      <trkpt lat="48.0354" lon="7.01078">
        <ele>1334</ele>
        <time>2021-07-31T17:28:21+02:00</time>
      </trkpt>
      <trkpt lat="48.03522" lon="7.01076">
        <ele>1337</ele>
        <time>2021-07-31T17:28:32+02:00</time>
      </trkpt>
      <trkpt lat="48.03504" lon="7.01067">
        <ele>1329</ele>
        <time>2021-07-31T17:28:49+02:00</time>
      </trkpt>
      <trkpt lat="48.03488" lon="7.01054">
        <ele>1327</ele>
        <time>2021-07-31T17:29:04+02:00</time>
      </trkpt>
      <trkpt lat="48.03469" lon="7.01053">
        <ele>1329</ele>
        <time>2021-07-31T17:29:17+02:00</time>
      </trkpt>
      <trkpt lat="48.03451" lon="7.01042">
        <ele>1331</ele>
        <time>2021-07-31T17:29:32+02:00</time>
      </trkpt>
      <trkpt lat="48.03434" lon="7.01031">
        <ele>1333</ele>
        <time>2021-07-31T17:29:47+02:00</time>
      </trkpt>
      <trkpt lat="48.03419" lon="7.01015">
        <ele>1338</ele>
        <time>2021-07-31T17:30:04+02:00</time>
      </trkpt>
      <trkpt lat="48.03402" lon="7.01001">
        <ele>1341</ele>
        <time>2021-07-31T17:30:20+02:00</time>
      </trkpt>
      <trkpt lat="48.03386" lon="7.00987">
        <ele>1344</ele>
        <time>2021-07-31T17:30:36+02:00</time>
      </trkpt>
      <trkpt lat="48.0337" lon="7.00974">
        <ele>1348</ele>
        <time>2021-07-31T17:30:46+02:00</time>
      </trkpt>
      <trkpt lat="48.03353" lon="7.00962">
        <ele>1346</ele>
        <time>2021-07-31T17:30:59+02:00</time>
      </trkpt>
      <trkpt lat="48.03337" lon="7.00948">
        <ele>1351</ele>
        <time>2021-07-31T17:31:19+02:00</time>
      </trkpt>
      <trkpt lat="48.03321" lon="7.00933">
        <ele>1354</ele>
        <time>2021-07-31T17:31:30+02:00</time>
      </trkpt>
      <trkpt lat="48.03305" lon="7.00921">
        <ele>1353</ele>
        <time>2021-07-31T17:31:44+02:00</time>
      </trkpt>
      <trkpt lat="48.03289" lon="7.00907">
        <ele>1358</ele>
        <time>2021-07-31T17:31:54+02:00</time>
      </trkpt>
      <trkpt lat="48.0327" lon="7.00898">
        <ele>1356</ele>
        <time>2021-07-31T17:32:11+02:00</time>
      </trkpt>
      <trkpt lat="48.03252" lon="7.00892">
        <ele>1350</ele>
        <time>2021-07-31T17:32:23+02:00</time>
      </trkpt>
      <trkpt lat="48.03234" lon="7.00887">
        <ele>1350</ele>
        <time>2021-07-31T17:32:35+02:00</time>
      </trkpt>
      <trkpt lat="48.03216" lon="7.00879">
        <ele>1349</ele>
        <time>2021-07-31T17:32:52+02:00</time>
      </trkpt>
      <trkpt lat="48.03198" lon="7.00872">
        <ele>1349</ele>
        <time>2021-07-31T17:33:04+02:00</time>
      </trkpt>
      <trkpt lat="48.0318" lon="7.00864">
        <ele>1350</ele>
        <time>2021-07-31T17:33:15+02:00</time>
      </trkpt>
      <trkpt lat="48.03161" lon="7.00858">
        <ele>1347</ele>
        <time>2021-07-31T17:33:27+02:00</time>
      </trkpt>
      <trkpt lat="48.03144" lon="7.00852">
        <ele>1347</ele>
        <time>2021-07-31T17:33:44+02:00</time>
      </trkpt>
      <trkpt lat="48.03125" lon="7.00846">
        <ele>1340</ele>
        <time>2021-07-31T17:33:57+02:00</time>
      </trkpt>
      <trkpt lat="48.03108" lon="7.00836">
        <ele>1342</ele>
        <time>2021-07-31T17:34:10+02:00</time>
      </trkpt>
      <trkpt lat="48.0309" lon="7.0083">
        <ele>1339</ele>
        <time>2021-07-31T17:34:23+02:00</time>
      </trkpt>
      <trkpt lat="48.03072" lon="7.00821">
        <ele>1337</ele>
        <time>2021-07-31T17:34:42+02:00</time>
      </trkpt>
      <trkpt lat="48.03054" lon="7.00815">
        <ele>1339</ele>
        <time>2021-07-31T17:34:52+02:00</time>
      </trkpt>
      <trkpt lat="48.03037" lon="7.00806">
        <ele>1340</ele>
        <time>2021-07-31T17:35:01+02:00</time>
      </trkpt>
      <trkpt lat="48.03019" lon="7.00799">
        <ele>1337</ele>
        <time>2021-07-31T17:35:17+02:00</time>
      </trkpt>
      <trkpt lat="48.03002" lon="7.00791">
        <ele>1338</ele>
        <time>2021-07-31T17:35:28+02:00</time>
      </trkpt>
      <trkpt lat="48.02983" lon="7.0078">
        <ele>1341</ele>
        <time>2021-07-31T17:35:40+02:00</time>
      </trkpt>
      <trkpt lat="48.02967" lon="7.00767">
        <ele>1337</ele>
        <time>2021-07-31T17:35:58+02:00</time>
      </trkpt>
      <trkpt lat="48.0295" lon="7.00755">
        <ele>1338</ele>
        <time>2021-07-31T17:36:12+02:00</time>
      </trkpt>
      <trkpt lat="48.02933" lon="7.00742">
        <ele>1339</ele>
        <time>2021-07-31T17:36:23+02:00</time>
      </trkpt>
      <trkpt lat="48.02918" lon="7.00727">
        <ele>1337</ele>
        <time>2021-07-31T17:36:35+02:00</time>
      </trkpt>
      <trkpt lat="48.02902" lon="7.00714">
        <ele>1335</ele>
        <time>2021-07-31T17:36:46+02:00</time>
      </trkpt>
      <trkpt lat="48.02888" lon="7.00696">
        <ele>1334</ele>
        <time>2021-07-31T17:36:58+02:00</time>
      </trkpt>
      <trkpt lat="48.02872" lon="7.00681">
        <ele>1334</ele>
        <time>2021-07-31T17:37:09+02:00</time>
      </trkpt>
      <trkpt lat="48.02856" lon="7.00666">
        <ele>1337</ele>
        <time>2021-07-31T17:37:26+02:00</time>
      </trkpt>
      <trkpt lat="48.0284" lon="7.0065">
        <ele>1336</ele>
        <time>2021-07-31T17:37:37+02:00</time>
      </trkpt>
      <trkpt lat="48.02823" lon="7.00634">
        <ele>1338</ele>
        <time>2021-07-31T17:37:52+02:00</time>
      </trkpt>
      <trkpt lat="48.02807" lon="7.0062">
        <ele>1339</ele>
        <time>2021-07-31T17:38:08+02:00</time>
      </trkpt>
      <trkpt lat="48.0279" lon="7.00607">
        <ele>1340</ele>
        <time>2021-07-31T17:38:23+02:00</time>
      </trkpt>
      <trkpt lat="48.02778" lon="7.00584">
        <ele>1340</ele>
        <time>2021-07-31T17:38:37+02:00</time>
      </trkpt>
      <trkpt lat="48.02764" lon="7.00563">
        <ele>1344</ele>
        <time>2021-07-31T17:38:53+02:00</time>
      </trkpt>
      <trkpt lat="48.02754" lon="7.0054">
        <ele>1348</ele>
        <time>2021-07-31T17:39:02+02:00</time>
      </trkpt>
      <trkpt lat="48.02744" lon="7.00517">
        <ele>1351</ele>
        <time>2021-07-31T17:39:12+02:00</time>
      </trkpt>
      <trkpt lat="48.02733" lon="7.00494">
        <ele>1355</ele>
        <time>2021-07-31T17:39:24+02:00</time>
      </trkpt>
      <trkpt lat="48.02725" lon="7.00468">
        <ele>1356</ele>
        <time>2021-07-31T17:39:35+02:00</time>
      </trkpt>
      <trkpt lat="48.02715" lon="7.00445">
        <ele>1352</ele>
        <time>2021-07-31T17:39:51+02:00</time>
      </trkpt>
      <trkpt lat="48.02707" lon="7.0042">
        <ele>1350</ele>
        <time>2021-07-31T17:40:07+02:00</time>
      </trkpt>
      <trkpt lat="48.02702" lon="7.00394">
        <ele>1349</ele>
        <time>2021-07-31T17:40:16+02:00</time>
      </trkpt>
      <trkpt lat="48.02699" lon="7.00366">
        <ele>1349</ele>
        <time>2021-07-31T17:40:25+02:00</time>
      </trkpt>
      <trkpt lat="48.02694" lon="7.00339">
        <ele>1350</ele>
        <time>2021-07-31T17:40:46+02:00</time>
      </trkpt>
      <trkpt lat="48.02688" lon="7.00312">
        <ele>1349</ele>
        <time>2021-07-31T17:40:57+02:00</time>
      </trkpt>
      <trkpt lat="48.02684" lon="7.00286">
        <ele>1351</ele>
        <time>2021-07-31T17:41:05+02:00</time>
      </trkpt>
      <trkpt lat="48.02681" lon="7.00259">
        <ele>1352</ele>
        <time>2021-07-31T17:41:14+02:00</time>
      </trkpt>
      <trkpt lat="48.02676" lon="7.00232">
        <ele>1350</ele>
        <time>2021-07-31T17:41:26+02:00</time>
      </trkpt>
      <trkpt lat="48.0267" lon="7.00206">
        <ele>1349</ele>
        <time>2021-07-31T17:41:47+02:00</time>
      </trkpt>
      <trkpt lat="48.02662" lon="7.0018">
        <ele>1350</ele>
        <time>2021-07-31T17:41:58+02:00</time>
      </trkpt>
      <trkpt lat="48.02655" lon="7.00154">
        <ele>1354</ele>
        <time>2021-07-31T17:42:08+02:00</time>
      </trkpt>
      <trkpt lat="48.02647" lon="7.0013">
        <ele>1356</ele>
        <time>2021-07-31T17:42:18+02:00</time>
      </trkpt>
      <trkpt lat="48.02638" lon="7.00104">
        <ele>1359</ele>
        <time>2021-07-31T17:42:30+02:00</time>
      </trkpt>
      <trkpt lat="48.02627" lon="7.00084">
        <ele>1352</ele>
        <time>2021-07-31T17:42:45+02:00</time>
      </trkpt>
      <trkpt lat="48.02615" lon="7.00063">
        <ele>1349</ele>
        <time>2021-07-31T17:43:04+02:00</time>
      </trkpt>
      <trkpt lat="48.026" lon="7.00043">
        <ele>1348</ele>
        <time>2021-07-31T17:43:18+02:00</time>
      </trkpt>
      <trkpt lat="48.02584" lon="7.00027">
        <ele>1352</ele>
        <time>2021-07-31T17:43:27+02:00</time>
      </trkpt>
      <trkpt lat="48.02569" lon="7.00009">
        <ele>1352</ele>
        <time>2021-07-31T17:43:40+02:00</time>
      </trkpt>
      <trkpt lat="48.02554" lon="6.99994">
        <ele>1351</ele>
        <time>2021-07-31T17:43:54+02:00</time>
      </trkpt>
      <trkpt lat="48.02538" lon="6.99981">
        <ele>1350</ele>
        <time>2021-07-31T17:44:08+02:00</time>
      </trkpt>
      <trkpt lat="48.02521" lon="6.99967">
        <ele>1351</ele>
        <time>2021-07-31T17:44:20+02:00</time>
      </trkpt>
      <trkpt lat="48.02504" lon="6.99956">
        <ele>1354</ele>
        <time>2021-07-31T17:44:31+02:00</time>
      </trkpt>
      <trkpt lat="48.0249" lon="6.99939">
        <ele>1355</ele>
        <time>2021-07-31T17:44:43+02:00</time>
      </trkpt>
      <trkpt lat="48.02476" lon="6.99921">
        <ele>1350</ele>
        <time>2021-07-31T17:44:58+02:00</time>
      </trkpt>
      <trkpt lat="48.02463" lon="6.999">
        <ele>1348</ele>
        <time>2021-07-31T17:45:18+02:00</time>
      </trkpt>
      <trkpt lat="48.0245" lon="6.99878">
        <ele>1347</ele>
        <time>2021-07-31T17:45:29+02:00</time>
      </trkpt>
      <trkpt lat="48.02439" lon="6.99857">
        <ele>1348</ele>
        <time>2021-07-31T17:45:38+02:00</time>
      </trkpt>
      <trkpt lat="48.02427" lon="6.99833">
        <ele>1348</ele>
        <time>2021-07-31T17:45:51+02:00</time>
      </trkpt>
      <trkpt lat="48.02412" lon="6.99813">
        <ele>1352</ele>
        <time>2021-07-31T17:46:02+02:00</time>
      </trkpt>
      <trkpt lat="48.02401" lon="6.99792">
        <ele>1351</ele>
        <time>2021-07-31T17:46:12+02:00</time>
      </trkpt>
      <trkpt lat="48.02392" lon="6.99766">
        <ele>1353</ele>
        <time>2021-07-31T17:46:24+02:00</time>
      </trkpt>
      <trkpt lat="48.02384" lon="6.9974">
        <ele>1351</ele>
        <time>2021-07-31T17:46:37+02:00</time>
      </trkpt>
      <trkpt lat="48.02374" lon="6.99718">
        <ele>1351</ele>
        <time>2021-07-31T17:46:52+02:00</time>
      </trkpt>
      <trkpt lat="48.02366" lon="6.99692">
        <ele>1350</ele>
        <time>2021-07-31T17:47:01+02:00</time>
      </trkpt>
      <trkpt lat="48.02355" lon="6.99667">
        <ele>1344</ele>
        <time>2021-07-31T17:47:12+02:00</time>
      </trkpt>
      <trkpt lat="48.02345" lon="6.99644">
        <ele>1342</ele>
        <time>2021-07-31T17:47:23+02:00</time>
      </trkpt>
      <trkpt lat="48.02333" lon="6.99623">
        <ele>1349</ele>
        <time>2021-07-31T17:47:35+02:00</time>
      </trkpt>
      <trkpt lat="48.02321" lon="6.99602">
        <ele>1347</ele>
        <time>2021-07-31T17:47:48+02:00</time>
      </trkpt>
      <trkpt lat="48.02307" lon="6.99579">
        <ele>1346</ele>
        <time>2021-07-31T17:47:56+02:00</time>
      </trkpt>
      <trkpt lat="48.02294" lon="6.99559">
        <ele>1345</ele>
        <time>2021-07-31T17:48:03+02:00</time>
      </trkpt>
      <trkpt lat="48.0228" lon="6.99536">
        <ele>1341</ele>
        <time>2021-07-31T17:48:11+02:00</time>
      </trkpt>
      <trkpt lat="48.02265" lon="6.99517">
        <ele>1339</ele>
        <time>2021-07-31T17:48:19+02:00</time>
      </trkpt>
      <trkpt lat="48.02251" lon="6.99496">
        <ele>1337</ele>
        <time>2021-07-31T17:48:26+02:00</time>
      </trkpt>
      <trkpt lat="48.02236" lon="6.99479">
        <ele>1338</ele>
        <time>2021-07-31T17:48:34+02:00</time>
      </trkpt>
      <trkpt lat="48.02219" lon="6.99467">
        <ele>1342</ele>
        <time>2021-07-31T17:48:42+02:00</time>
      </trkpt>
      <trkpt lat="48.02205" lon="6.99446">
        <ele>1345</ele>
        <time>2021-07-31T17:48:50+02:00</time>
      </trkpt>
      <trkpt lat="48.02187" lon="6.99433">
        <ele>1343</ele>
        <time>2021-07-31T17:48:57+02:00</time>
      </trkpt>
      <trkpt lat="48.0217" lon="6.99419">
        <ele>1342</ele>
        <time>2021-07-31T17:49:04+02:00</time>
      </trkpt>
      <trkpt lat="48.02155" lon="6.99402">
        <ele>1338</ele>
        <time>2021-07-31T17:49:11+02:00</time>
      </trkpt>
      <trkpt lat="48.0214" lon="6.99382">
        <ele>1340</ele>
        <time>2021-07-31T17:49:19+02:00</time>
      </trkpt>
      <trkpt lat="48.02125" lon="6.99366">
        <ele>1339</ele>
        <time>2021-07-31T17:49:26+02:00</time>
      </trkpt>
      <trkpt lat="48.02109" lon="6.99348">
        <ele>1335</ele>
        <time>2021-07-31T17:49:34+02:00</time>
      </trkpt>
      <trkpt lat="48.02091" lon="6.99339">
        <ele>1334</ele>
        <time>2021-07-31T17:49:42+02:00</time>
      </trkpt>
      <trkpt lat="48.02072" lon="6.99333">
        <ele>1336</ele>
        <time>2021-07-31T17:49:50+02:00</time>
      </trkpt>
      <trkpt lat="48.02064" lon="6.99307">
        <ele>1335</ele>
        <time>2021-07-31T17:49:56+02:00</time>
      </trkpt>
      <trkpt lat="48.02056" lon="6.99281">
        <ele>1333</ele>
        <time>2021-07-31T17:50:04+02:00</time>
      </trkpt>
      <trkpt lat="48.02045" lon="6.99258">
        <ele>1332</ele>
        <time>2021-07-31T17:50:16+02:00</time>
      </trkpt>
      <trkpt lat="48.02033" lon="6.99235">
        <ele>1328</ele>
        <time>2021-07-31T17:50:29+02:00</time>
      </trkpt>
      <trkpt lat="48.02024" lon="6.99212">
        <ele>1326</ele>
        <time>2021-07-31T17:50:40+02:00</time>
      </trkpt>
      <trkpt lat="48.02012" lon="6.99191">
        <ele>1328</ele>
        <time>2021-07-31T17:50:54+02:00</time>
      </trkpt>
      <trkpt lat="48.01998" lon="6.99174">
        <ele>1325</ele>
        <time>2021-07-31T17:51:07+02:00</time>
      </trkpt>
      <trkpt lat="48.01989" lon="6.9915">
        <ele>1328</ele>
        <time>2021-07-31T17:51:22+02:00</time>
      </trkpt>
      <trkpt lat="48.01981" lon="6.99126">
        <ele>1327</ele>
        <time>2021-07-31T17:51:33+02:00</time>
      </trkpt>
      <trkpt lat="48.01975" lon="6.99099">
        <ele>1327</ele>
        <time>2021-07-31T17:51:44+02:00</time>
      </trkpt>
      <trkpt lat="48.01968" lon="6.99075">
        <ele>1325</ele>
        <time>2021-07-31T17:52:02+02:00</time>
      </trkpt>
      <trkpt lat="48.01962" lon="6.99048">
        <ele>1321</ele>
        <time>2021-07-31T17:52:18+02:00</time>
      </trkpt>
      <trkpt lat="48.01947" lon="6.99033">
        <ele>1316</ele>
        <time>2021-07-31T17:52:40+02:00</time>
      </trkpt>
      <trkpt lat="48.01933" lon="6.99015">
        <ele>1313</ele>
        <time>2021-07-31T17:52:56+02:00</time>
      </trkpt>
      <trkpt lat="48.01921" lon="6.98995">
        <ele>1309</ele>
        <time>2021-07-31T17:53:12+02:00</time>
      </trkpt>
      <trkpt lat="48.01904" lon="6.98983">
        <ele>1304</ele>
        <time>2021-07-31T17:53:32+02:00</time>
      </trkpt>
      <trkpt lat="48.01885" lon="6.98975">
        <ele>1299</ele>
        <time>2021-07-31T17:53:43+02:00</time>
      </trkpt>
      <trkpt lat="48.01867" lon="6.9897">
        <ele>1297</ele>
        <time>2021-07-31T17:53:54+02:00</time>
      </trkpt>
      <trkpt lat="48.01853" lon="6.98954">
        <ele>1298</ele>
        <time>2021-07-31T17:54:05+02:00</time>
      </trkpt>
      <trkpt lat="48.01839" lon="6.98935">
        <ele>1295</ele>
        <time>2021-07-31T17:54:23+02:00</time>
      </trkpt>
      <trkpt lat="48.01824" lon="6.98918">
        <ele>1293</ele>
        <time>2021-07-31T17:54:34+02:00</time>
      </trkpt>
      <trkpt lat="48.0181" lon="6.98898">
        <ele>1289</ele>
        <time>2021-07-31T17:54:49+02:00</time>
      </trkpt>
      <trkpt lat="48.01793" lon="6.98886">
        <ele>1282</ele>
        <time>2021-07-31T17:55:04+02:00</time>
      </trkpt>
      <trkpt lat="48.01778" lon="6.98872">
        <ele>1281</ele>
        <time>2021-07-31T17:55:17+02:00</time>
      </trkpt>
      <trkpt lat="48.01762" lon="6.98858">
        <ele>1277</ele>
        <time>2021-07-31T17:55:35+02:00</time>
      </trkpt>
      <trkpt lat="48.01746" lon="6.98843">
        <ele>1275</ele>
        <time>2021-07-31T17:55:49+02:00</time>
      </trkpt>
      <trkpt lat="48.01731" lon="6.98827">
        <ele>1272</ele>
        <time>2021-07-31T17:56:05+02:00</time>
      </trkpt>
      <trkpt lat="48.01717" lon="6.9881">
        <ele>1270</ele>
        <time>2021-07-31T17:56:14+02:00</time>
      </trkpt>
      <trkpt lat="48.01703" lon="6.98793">
        <ele>1273</ele>
        <time>2021-07-31T17:56:33+02:00</time>
      </trkpt>
      <trkpt lat="48.01689" lon="6.98775">
        <ele>1269</ele>
        <time>2021-07-31T17:56:50+02:00</time>
      </trkpt>
      <trkpt lat="48.01676" lon="6.98756">
        <ele>1265</ele>
        <time>2021-07-31T17:57:01+02:00</time>
      </trkpt>
      <trkpt lat="48.01663" lon="6.98735">
        <ele>1263</ele>
        <time>2021-07-31T17:57:11+02:00</time>
      </trkpt>
      <trkpt lat="48.01652" lon="6.98713">
        <ele>1259</ele>
        <time>2021-07-31T17:57:24+02:00</time>
      </trkpt>
      <trkpt lat="48.0164" lon="6.9869">
        <ele>1256</ele>
        <time>2021-07-31T17:57:38+02:00</time>
      </trkpt>
      <trkpt lat="48.01624" lon="6.98673">
        <ele>1256</ele>
        <time>2021-07-31T17:57:53+02:00</time>
      </trkpt>
      <trkpt lat="48.01613" lon="6.98651">
        <ele>1258</ele>
        <time>2021-07-31T17:58:12+02:00</time>
      </trkpt>
      <trkpt lat="48.01604" lon="6.98627">
        <ele>1256</ele>
        <time>2021-07-31T17:58:28+02:00</time>
      </trkpt>
      <trkpt lat="48.01591" lon="6.98606">
        <ele>1251</ele>
        <time>2021-07-31T17:58:44+02:00</time>
      </trkpt>
      <trkpt lat="48.01577" lon="6.98588">
        <ele>1244</ele>
        <time>2021-07-31T17:58:59+02:00</time>
      </trkpt>
      <trkpt lat="48.0156" lon="6.98577">
        <ele>1242</ele>
        <time>2021-07-31T17:59:16+02:00</time>
      </trkpt>
      <trkpt lat="48.01541" lon="6.98569">
        <ele>1242</ele>
        <time>2021-07-31T17:59:28+02:00</time>
      </trkpt>
      <trkpt lat="48.01523" lon="6.98558">
        <ele>1244</ele>
        <time>2021-07-31T17:59:40+02:00</time>
      </trkpt>
      <trkpt lat="48.01504" lon="6.98553">
        <ele>1247</ele>
        <time>2021-07-31T17:59:49+02:00</time>
      </trkpt>
      <trkpt lat="48.01486" lon="6.9854">
        <ele>1245</ele>
        <time>2021-07-31T18:00:01+02:00</time>
      </trkpt>
      <trkpt lat="48.01479" lon="6.98514">
        <ele>1247</ele>
        <time>2021-07-31T18:00:14+02:00</time>
      </trkpt>
      <trkpt lat="48.01472" lon="6.98489">
        <ele>1238</ele>
        <time>2021-07-31T18:00:33+02:00</time>
      </trkpt>
      <trkpt lat="48.0149" lon="6.98496">
        <ele>1234</ele>
        <time>2021-07-31T18:00:45+02:00</time>
      </trkpt>
    </trkseg>
  </trk>
</gpx>